Ship Status Report: callsign 000000

sailwx.info

Track history (hours):
 
Tides and Currents Weather Stations Pressure Air Temp Water Temp Dewpoint Dewpoint Depression Visibility Wind Speed Wind Dir Waves Ship Positions

Callsign 000000 (name unknown)

Last reported at 2014-Oct-20 03:33 UTC. Time now 2014-Oct-20 04:27 UTC.
Position N 32°04' E 120°28'.

Type: Fishing. MMSI: 200007452.

Date/timePositionNaut miles runAvg speedWind from/ knotsBaromVisibWave heightAir tempDewpointWater temp
2014-Oct-20 03:33N 32°04' E 120°28'655393219.6
2014-Oct-20 03:33N 23°04' E 113°30'467821.2
2014-Oct-20 03:33N 22°20' E 113°42'693356195.4
2014-Oct-20 03:33N 32°02' E 120°45'5432415.2
2014-Oct-20 03:33N 31°21' E 121°27'661132222.6
2014-Oct-20 03:33N 22°51' E 113°34'28808.1
2014-Oct-20 03:30N 22°27' E 113°47'66854627.1
2014-Oct-20 03:30N 30°25' E 122°27'1167476.3
2014-Oct-20 03:29N 31°50' E 120°54'201076.8
2014-Oct-20 03:28N 32°01' E 120°35'23293.7
2014-Oct-20 03:23N 31°47' E 120°55'1 9.6
2014-Oct-20 03:17N 31°47' E 120°54'6 8.8
2014-Oct-20 02:33N 31°47' E 121°02'6592372487.5
2014-Oct-20 02:33N 23°04' E 113°29'652782283.9
2014-Oct-20 02:33N 30°25' E 122°27'763188.1
2014-Oct-20 02:32N 31°21' E 121°27'68855003.0
2014-Oct-20 02:31N 22°15' E 113°39'69530533.4
2014-Oct-20 02:30N 31°45' E 121°06'25510.7
2014-Oct-20 02:27N 32°02' E 120°45'182256.0
2014-Oct-20 02:26N 31°47' E 120°55'50528.0
2014-Oct-20 02:21N 32°01' E 119°59'681860.7
2014-Oct-20 01:33N 22°12' E 113°34'698279174.1
2014-Oct-20 01:33N 32°04' E 120°29'14184857.1
2014-Oct-20 01:33N 30°25' E 122°27'652117342.6
2014-Oct-20 01:33N 23°04' E 113°29'660215909.8
2014-Oct-20 01:33N 31°42' E 121°10'66518704.9
2014-Oct-20 01:30N 23°02' E 113°22'66133528.6
2014-Oct-20 01:29N 31°22' E 121°29'82296760.9
2014-Oct-20 01:29N 31°58' E 120°02'25250.2
2014-Oct-20 01:23N 32°01' E 120°32'6639783.5
2014-Oct-20 01:19N 22°51' E 113°34'17223769.9
2014-Oct-20 01:19N 23°09' E 116°39'5653596.9
2014-Oct-20 01:09N 31°47' E 120°54'677187473.4
2014-Oct-20 01:09N 22°27' E 113°46'9921669.0
2014-Oct-20 00:33N 37°42' E 121°10'44179414.0
2014-Oct-20 00:33N 30°25' E 122°27'7533967.0
2014-Oct-20 00:33N 31°22' E 121°29'64231502.7
2014-Oct-20 00:33N 32°04' E 120°32'66333157.7
2014-Oct-20 00:32N 22°56' E 113°30'661264231.0
2014-Oct-20 00:32N 32°01' E 120°32'570513035.5
2014-Oct-20 00:32N 23°09' E 116°39'56478116.4
2014-Oct-20 00:31N 31°37' E 121°17'70033598.3
2014-Oct-20 00:30N 22°11' E 113°34'69719001.3
2014-Oct-20 00:28N 31°47' E 120°55'65628788.4
2014-Oct-20 00:26N 23°04' E 113°29'6553148.7
2014-Oct-20 00:14N 31°47' E 120°54'171213.4
2014-Oct-20 00:13N 32°02' E 120°45'6855563.5
2014-Oct-20 00:06N 22°27' E 113°47'6781266.0
2014-Oct-19 23:33N 32°01' E 120°32'2421723.1
2014-Oct-19 23:33N 31°47' E 120°54'35764233.7
2014-Oct-19 23:33N 37°43' E 121°20'35732106.4
2014-Oct-19 23:32N 31°47' E 120°55'11311000.8
2014-Oct-19 23:32N 30°25' E 122°27'75271752.2
2014-Oct-19 23:32N 31°22' E 121°29'69586242.3
2014-Oct-19 23:31N 22°12' E 113°34'21337.7
2014-Oct-19 23:28N 22°28' E 113°48'40544.2
2014-Oct-19 23:23N 23°04' E 113°29'111523.2
2014-Oct-19 23:23N 22°54' E 113°24'67210570.0
2014-Oct-19 23:19N 32°02' E 120°45'46486.8
2014-Oct-19 23:13N 31°31' E 121°24'56214149.2
2014-Oct-19 23:11N 23°09' E 116°39'561892.3
2014-Oct-19 22:33N 31°28' E 121°28'343823.6
2014-Oct-19 22:33N 31°47' E 120°54'418753238.2
2014-Oct-19 22:33N 38°44' E 121°31'6172748.0
2014-Oct-19 22:33N 37°43' E 121°30'34625915.9
2014-Oct-19 22:32N 32°00' E 120°40'13222604.5
2014-Oct-19 22:31N 30°25' E 122°27'1388394.0
2014-Oct-19 22:30N 32°01' E 120°32'69759710.4
2014-Oct-19 22:30N 22°11' E 113°35'69719140.5
2014-Oct-19 22:28N 31°47' E 120°55'65628442.2
2014-Oct-19 22:26N 23°04' E 113°29'14454.1
2014-Oct-19 22:24N 22°51' E 113°34'9831155.8
2014-Oct-19 21:33N 37°43' E 121°32'358644484.2
2014-Oct-19 21:33N 31°47' E 120°55'1162.3
2014-Oct-19 21:33N 31°47' E 120°54'11425553.0
2014-Oct-19 21:33N 30°25' E 122°27'796281.0
2014-Oct-19 21:32N 31°26' E 121°29'66612624.1
2014-Oct-19 21:29N 22°51' E 113°34'66685618.3
2014-Oct-19 21:28N 31°24' E 121°31'697278820.3
2014-Oct-19 21:28N 22°11' E 113°35'69655717.5
2014-Oct-19 21:27N 32°01' E 120°32'6559099.1
2014-Oct-19 21:23N 23°04' E 113°29'6626406.6
2014-Oct-19 21:17N 32°02' E 120°45'24184.1
2014-Oct-19 21:09N 31°58' E 120°17'3456.4
2014-Oct-19 20:33N 31°47' E 120°54'3581290528.4
2014-Oct-19 20:33N 37°43' E 121°36'985506439.0
2014-Oct-19 20:33N 22°51' E 113°34'670172381.8
2014-Oct-19 20:33N 32°02' E 120°45'13042619.9
2014-Oct-19 20:33N 30°25' E 122°27'1449630.7
2014-Oct-19 20:32N 31°56' E 120°16'141614.0
2014-Oct-19 20:31N 32°01' E 120°32'69616941.3
2014-Oct-19 20:29N 22°11' E 113°35'69619432.8
2014-Oct-19 20:27N 31°47' E 120°55'49659497.7
2014-Oct-19 20:26N 23°52' E 118°14'2665200.1
2014-Oct-19 20:23N 23°04' E 113°29'102715868.5
2014-Oct-19 20:19N 38°43' E 121°35'116451.4
2014-Oct-19 20:04N 36°53' E 122°26'316625.2
2014-Oct-19 19:33N 31°47' E 120°54'359107709.2
2014-Oct-19 19:33N 37°44' E 121°32'442122278.5
2014-Oct-19 19:33N 30°25' E 122°27'13058604.4
2014-Oct-19 19:33N 32°02' E 120°45'3011816.1
2014-Oct-19 19:33N 31°56' E 120°11'3181143781.4
2014-Oct-19 19:33N 36°53' E 122°28'9961194781.8
2014-Oct-19 19:33N 22°11' E 113°35'69627547.6
2014-Oct-19 19:31N 31°47' E 120°55'252884.6
2014-Oct-19 19:31N 32°01' E 120°32'663149202.6
2014-Oct-19 19:30N 22°51' E 113°34'14195.8
2014-Oct-19 19:26N 23°04' E 113°29'655744.6
2014-Oct-19 18:33N 31°47' E 120°54'359143587.2
2014-Oct-19 18:33N 37°45' E 121°27'35944549.6
2014-Oct-19 18:33N 31°47' E 120°55'696835617.0
2014-Oct-19 18:33N 22°11' E 113°35'69696437.7
2014-Oct-19 18:32N 32°01' E 120°32'11281.6
2014-Oct-19 18:30N 32°02' E 120°45'34311.4
2014-Oct-19 18:23N 31°57' E 120°06'638135157.9
2014-Oct-19 18:23N 23°04' E 113°29'2731121.8
2014-Oct-19 18:09N 23°55' E 118°21'2715699.1
2014-Oct-19 18:06N 22°52' E 113°34'6621235.0
2014-Oct-19 17:34N 31°47' E 120°54'35999443.7
2014-Oct-19 17:33N 37°45' E 121°29'35999419.4
2014-Oct-19 17:33N 31°47' E 120°55'696139271.5
2014-Oct-19 17:33N 22°11' E 113°35'4478420.4
2014-Oct-19 17:33N 22°55' E 113°35'187.8
2014-Oct-19 17:32N 22°56' E 113°36'6588970.4
2014-Oct-19 17:27N 32°01' E 120°31'65530212.7
2014-Oct-19 17:26N 23°04' E 113°29'65227614.6
2014-Oct-19 17:25N 30°25' E 122°27'1315955.8
2014-Oct-19 17:23N 32°02' E 120°45'371316.9
2014-Oct-19 17:22N 31°58' E 120°02'581384.7
2014-Oct-19 17:19N 31°42' E 121°08'28124.8
2014-Oct-19 17:06N 32°02' E 120°45'67016875.7
2014-Oct-19 17:04N 22°51' E 113°34'6631320.3
2014-Oct-19 16:33N 32°01' E 120°31'255255.8
2014-Oct-19 16:33N 31°47' E 120°55'696139274.3
2014-Oct-19 16:33N 22°11' E 113°35'69620041.7
2014-Oct-19 16:31N 31°47' E 120°54'35921886.1
2014-Oct-19 16:30N 37°44' E 121°34'36031594.3
2014-Oct-19 16:29N 31°45' E 121°05'6619180.8
2014-Oct-19 16:25N 22°57' E 113°38'103013736.0
2014-Oct-19 16:20N 38°43' E 121°32'5002333.4
2014-Oct-19 16:07N 30°25' E 122°27'1305390.2
2014-Oct-19 16:06N 32°02' E 120°45'1832.1
2014-Oct-19 15:33N 31°47' E 120°55'185739.3
2014-Oct-19 15:33N 32°02' E 120°45'40327393.3
2014-Oct-19 15:32N 38°43' E 121°29'40515682.8
2014-Oct-19 15:31N 32°01' E 120°31'638096.7
2014-Oct-19 15:30N 31°24' E 121°31'697100312.5
2014-Oct-19 15:30N 22°11' E 113°35'421105.8
2014-Oct-19 15:27N 22°54' E 113°31'11552.7
2014-Oct-19 15:26N 23°04' E 113°29'65529483.3
2014-Oct-19 15:25N 31°47' E 120°54'67311825.6
2014-Oct-19 15:21N 22°19' E 114°08'100337237.8
2014-Oct-19 15:20N 37°43' E 121°39'9781264.4
2014-Oct-19 14:33N 22°60' E 113°31'979881135.3
2014-Oct-19 14:33N 37°42' E 121°42'102252559.0
2014-Oct-19 14:32N 22°11' E 113°36'69545516.9
2014-Oct-19 14:31N 31°47' E 120°54'17825.1
2014-Oct-19 14:30N 32°02' E 120°45'542102.0
2014-Oct-19 14:28N 31°22' E 121°28'624550.7
2014-Oct-19 14:28N 32°01' E 120°32'66015953.6
2014-Oct-19 14:25N 23°03' E 113°20'65928929.2
2014-Oct-19 14:24N 30°25' E 122°27'65269037.6
2014-Oct-19 14:23N 23°04' E 113°29'14146.0
2014-Oct-19 14:18N 22°51' E 113°34'6536736.3
2014-Oct-19 14:12N 31°57' E 120°17'64713300.2
2014-Oct-19 14:09N 22°57' E 113°37'9791653.2
2014-Oct-19 13:33N 37°43' E 121°38'354159203.3
2014-Oct-19 13:33N 31°56' E 120°15'68048973.6
2014-Oct-19 13:32N 22°14' E 113°40'69245295.9
2014-Oct-19 13:31N 32°01' E 120°32'627432.9
2014-Oct-19 13:31N 31°22' E 121°28'65678720.3
2014-Oct-19 13:30N 23°05' E 113°26'654117641.3
2014-Oct-19 13:30N 30°25' E 122°27'6529946.0
2014-Oct-19 13:26N 23°04' E 113°29'6559003.0
2014-Oct-19 13:22N 31°47' E 120°54'66313567.6
2014-Oct-19 13:19N 22°51' E 113°34'66470280.4
2014-Oct-19 13:18N 31°47' E 120°55'18447.7
2014-Oct-19 13:16N 32°02' E 120°45'66436766.4
2014-Oct-19 13:15N 22°57' E 113°37'10125.6
2014-Oct-19 13:10N 23°04' E 113°30'4879.2
2014-Oct-19 12:34N 22°17' E 113°44'1012227781.8
2014-Oct-19 12:33N 37°44' E 121°33'3591292359.2
2014-Oct-19 12:33N 31°47' E 120°55'674161852.6
2014-Oct-19 12:33N 22°18' E 114°08'1056253506.5
2014-Oct-19 12:33N 38°44' E 121°29'41339121.5
2014-Oct-19 12:32N 31°56' E 120°07'774061.2
2014-Oct-19 12:31N 31°22' E 121°28'621581.4
2014-Oct-19 12:29N 32°01' E 120°32'69173174.9
2014-Oct-19 12:28N 22°15' E 113°40'511646.8
2014-Oct-19 12:26N 23°04' E 113°29'0 0.8
2014-Oct-19 12:19N 23°04' E 113°29'6525458.2
2014-Oct-19 12:12N 30°25' E 122°27'1141919.3
2014-Oct-19 12:09N 31°47' E 120°54'114194.1
2014-Oct-19 11:33N 30°25' E 122°27'445228779.0
2014-Oct-19 11:33N 37°47' E 121°30'1018229021.2
2014-Oct-19 11:33N 22°11' E 113°48'1913822.9
2014-Oct-19 11:33N 22°18' E 114°08'674242612.9
2014-Oct-19 11:33N 31°47' E 120°54'65865821.0
2014-Oct-19 11:32N 22°56' E 113°36'65751424.6
2014-Oct-19 11:31N 31°22' E 121°28'68054396.6
2014-Oct-19 11:31N 22°22' E 113°44'683204964.4
2014-Oct-19 11:30N 32°01' E 120°32'25255.9
2014-Oct-19 11:25N 31°47' E 120°55'6564047.8
2014-Oct-19 11:15N 23°04' E 113°30'66319721.7
2014-Oct-19 11:13N 31°59' E 120°51'6634589.5
2014-Oct-19 11:04N 23°04' E 113°30'9761872.8
2014-Oct-19 10:33N 37°50' E 121°25'36419292.2
2014-Oct-19 10:32N 31°47' E 120°54'383160.3
2014-Oct-19 10:31N 31°22' E 121°28'662625.8
2014-Oct-19 10:30N 32°02' E 120°27'293444.8
2014-Oct-19 10:29N 31°47' E 120°55'65643701.9
2014-Oct-19 10:28N 23°04' E 113°30'66017595.8
2014-Oct-19 10:26N 32°00' E 120°43'13031190.9
2014-Oct-19 10:26N 30°25' E 122°27'66112330.1
2014-Oct-19 10:23N 22°18' E 114°08'68268198.4
2014-Oct-19 10:22N 32°02' E 120°45'6624774.2
2014-Oct-19 10:14N 23°04' E 113°30'646965.6
2014-Oct-19 09:33N 31°59' E 120°19'310367.7
2014-Oct-19 09:33N 31°60' E 120°22'30822.8
2014-Oct-19 09:31N 31°47' E 120°54'3867945.8
2014-Oct-19 09:31N 31°22' E 121°28'582240.6
2014-Oct-19 09:30N 31°60' E 120°36'2174517.9
2014-Oct-19 09:30N 31°47' E 120°55'65539328.2
2014-Oct-19 09:29N 23°04' E 113°30'66258105.9
2014-Oct-19 09:28N 32°02' E 120°45'68268193.7
2014-Oct-19 09:27N 22°18' E 114°08'10597428.5
2014-Oct-19 09:19N 38°44' E 121°36'6482.4
2014-Oct-19 08:32N 37°43' E 121°13'343137382.9
2014-Oct-19 08:32N 32°01' E 120°31'2514847.3
2014-Oct-19 08:32N 31°47' E 120°54'333653.8
2014-Oct-19 08:32N 31°57' E 120°17'6292.8
2014-Oct-19 08:30N 32°01' E 120°22'64917319.6
2014-Oct-19 08:28N 23°04' E 113°30'65248878.5
2014-Oct-19 08:27N 30°25' E 122°27'65220945.4
2014-Oct-19 08:26N 23°04' E 113°30'654138579.2
2014-Oct-19 08:25N 31°22' E 121°28'54976.8
2014-Oct-19 08:22N 32°02' E 120°45'181150.6
2014-Oct-19 08:21N 31°47' E 120°55'6566483.1
2014-Oct-19 08:15N 23°04' E 113°30'651936.6
2014-Oct-19 07:33N 32°01' E 120°25'295159.8
2014-Oct-19 07:33N 31°47' E 120°54'381461.4
2014-Oct-19 07:31N 31°22' E 121°28'682415.8
2014-Oct-19 07:30N 32°01' E 120°22'64937107.4
2014-Oct-19 07:29N 23°04' E 113°30'029.3
2014-Oct-19 07:28N 23°04' E 113°30'65247881.0
2014-Oct-19 07:27N 30°25' E 122°27'65280897.8
2014-Oct-19 07:27N 23°04' E 113°30'656262203.4
2014-Oct-19 07:27N 31°47' E 120°55'18576.1
2014-Oct-19 07:25N 32°02' E 120°45'6702893.6
2014-Oct-19 07:11N 22°51' E 113°34'6561041.9
2014-Oct-19 06:33N 31°59' E 120°21'3219089.8
2014-Oct-19 06:33N 31°47' E 120°55'11367840.8
2014-Oct-19 06:33N 30°25' E 122°27'114204431.4
2014-Oct-19 06:33N 31°47' E 120°54'663119399.5
2014-Oct-19 06:33N 22°51' E 113°34'658338517.7
2014-Oct-19 06:33N 32°01' E 120°22'683422.4
2014-Oct-19 06:31N 31°22' E 121°28'65412532.9
2014-Oct-19 06:28N 23°04' E 113°30'0 3.7
2014-Oct-19 06:26N 23°04' E 113°30'10276451.6
2014-Oct-19 06:16N 38°44' E 121°31'40336266.5
2014-Oct-19 06:15N 32°04' E 120°29'65633730.3
2014-Oct-19 06:14N 23°04' E 113°30'6625540.4
2014-Oct-19 06:07N 32°02' E 120°45'2545.0
2014-Oct-19 05:33N 31°56' E 120°16'348257.7
2014-Oct-19 05:33N 31°47' E 120°54'314677.6
2014-Oct-19 05:33N 32°01' E 120°22'649212524.1
2014-Oct-19 05:32N 23°04' E 113°30'3413448.6
2014-Oct-19 05:32N 22°34' E 113°46'66376970.9
2014-Oct-19 05:32N 30°25' E 122°27'14218202.3
2014-Oct-19 05:31N 32°04' E 120°29'293122.6
2014-Oct-19 05:31N 31°47' E 120°55'371056.7
2014-Oct-19 05:29N 31°22' E 121°28'49842706.9
2014-Oct-19 05:28N 39°05' E 117°44'177159010.2
2014-Oct-19 05:28N 38°44' E 121°29'105516949.5
2014-Oct-19 05:24N 22°27' E 113°48'41260.7
2014-Oct-19 05:15N 23°04' E 113°30'66221856.8
2014-Oct-19 05:13N 32°02' E 120°45'44821228.5
2014-Oct-19 05:12N 39°05' E 117°44'98641256.2
2014-Oct-19 05:10N 23°04' E 113°30'3861.7
2014-Oct-19 04:33N 22°31' E 113°51'67128431.5
2014-Oct-19 04:32N 31°47' E 120°54'38136186.6
2014-Oct-19 04:32N 31°22' E 121°28'665266.7
2014-Oct-19 04:31N 32°04' E 120°29'181405.4
2014-Oct-19 04:30N 31°56' E 120°10'44369384.3
2014-Oct-19 04:30N 39°04' E 117°50'2107.1
2014-Oct-19 04:29N 39°04' E 117°47'986168962.8
2014-Oct-19 04:28N 23°04' E 113°30'6508411.1
2014-Oct-19 04:24N 32°01' E 120°22'65011188.4
2014-Oct-19 04:20N 23°04' E 113°29'65610217.2
2014-Oct-19 04:16N 31°47' E 120°55'1 1.1
2014-Oct-19 03:33N 31°47' E 120°54'671268258.0
2014-Oct-19 03:33N 22°32' E 113°51'667100012.6
2014-Oct-19 03:33N 32°01' E 120°22'14443075.6
2014-Oct-19 03:32N 30°25' E 122°27'652195580.3
2014-Oct-19 03:32N 23°04' E 113°29'66491968.2
2014-Oct-19 03:32N 32°02' E 120°49'18521.6
2014-Oct-19 03:30N 32°04' E 120°29'4414814.9
2014-Oct-19 03:24N 39°05' E 117°44'99749175.3
2014-Oct-19 03:23N 22°51' E 113°34'99715814.1
2014-Oct-19 03:19N 39°05' E 117°45'44227896.6
2014-Oct-19 03:18N 31°58' E 120°03'46780.4
2014-Oct-19 03:15N 31°47' E 120°55'18272.0
2014-Oct-19 03:11N 32°02' E 120°45'130206.6
2014-Oct-19 02:33N 30°25' E 122°27'14419893.9
2014-Oct-19 02:33N 32°01' E 120°22'191707.9
2014-Oct-19 02:32N 32°02' E 120°45'66214099.9
2014-Oct-19 02:29N 23°04' E 113°29'65653641.7
2014-Oct-19 02:28N 31°47' E 120°55'656294987.8
2014-Oct-19 02:28N 23°04' E 113°30'985141875.8
2014-Oct-19 02:28N 39°04' E 117°48'46326045.6
2014-Oct-19 02:27N 31°47' E 120°54'46214857.1
2014-Oct-19 02:25N 39°04' E 117°51'4384300.6
2014-Oct-19 02:19N 32°06' E 120°32'6763052.5
2014-Oct-19 02:06N 22°32' E 113°51'0 0.0
2014-Oct-19 01:33N 22°31' E 113°51'66753340.9
2014-Oct-19 01:33N 32°01' E 120°22'65077946.7
2014-Oct-19 01:32N 23°04' E 113°29'662183293.4
2014-Oct-19 01:32N 32°02' E 120°45'182628.9
2014-Oct-19 01:32N 31°47' E 120°55'169430.6
2014-Oct-19 01:31N 32°02' E 120°49'12811199.3
2014-Oct-19 01:31N 30°25' E 122°27'65894770.4
2014-Oct-19 01:30N 22°51' E 113°34'66526027.2
2014-Oct-19 01:29N 31°31' E 121°20'48424551.5
2014-Oct-19 01:28N 39°04' E 117°50'1019192985.2
2014-Oct-19 01:27N 22°27' E 113°48'41220.8
2014-Oct-19 01:16N 23°04' E 113°30'58674.5
2014-Oct-19 01:11N 22°19' E 114°09'17452.2
2014-Oct-19 01:09N 22°09' E 113°54'4 6.7
2014-Oct-19 00:33N 22°11' E 113°50'686822832.7
2014-Oct-19 00:33N 32°01' E 120°22'14415668.5
2014-Oct-19 00:32N 30°25' E 122°27'8226933.8
2014-Oct-19 00:32N 31°29' E 121°26'68416875.7
2014-Oct-19 00:29N 22°23' E 113°43'432104.7
2014-Oct-19 00:28N 23°04' E 113°30'66416376.2
2014-Oct-19 00:26N 32°02' E 120°49'6647032.7
2014-Oct-19 00:20N 23°04' E 113°29'6596759.0
2014-Oct-19 00:14N 31°36' E 121°17'21361.1
2014-Oct-19 00:11N 31°47' E 120°55'18221.3
2014-Oct-19 00:06N 32°02' E 120°45'1731.7
2014-Oct-18 23:33N 31°47' E 120°54'689103410.0
2014-Oct-18 23:33N 22°14' E 113°43'697278882.8
2014-Oct-18 23:33N 32°02' E 120°45'193890.1
2014-Oct-18 23:33N 32°01' E 120°22'6927695.7
2014-Oct-18 23:32N 31°24' E 121°31'658107727.4
2014-Oct-18 23:32N 23°04' E 113°29'652102044.2
2014-Oct-18 23:32N 30°25' E 122°27'44179430.1
2014-Oct-18 23:31N 37°42' E 121°09'100348803.0
2014-Oct-18 23:30N 22°17' E 113°40'48361.2
2014-Oct-18 23:22N 23°04' E 113°30'6567023.9
2014-Oct-18 23:17N 31°47' E 120°55'4373605.3
2014-Oct-18 23:09N 24°41' E 119°05'388647.1
2014-Oct-18 22:33N 30°25' E 122°27'44251308.4
2014-Oct-18 22:33N 37°43' E 121°19'96875771.0
2014-Oct-18 22:32N 23°04' E 113°29'65015907.6
2014-Oct-18 22:30N 32°01' E 120°22'692146470.0
2014-Oct-18 22:29N 22°11' E 113°36'532799.9
2014-Oct-18 22:28N 23°04' E 113°30'65859227.9
2014-Oct-18 22:28N 31°24' E 121°31'79449.7
2014-Oct-18 22:17N 31°58' E 120°06'66215688.7
2014-Oct-18 22:15N 22°28' E 113°46'67854225.0
2014-Oct-18 22:14N 31°48' E 120°55'6616466.9
2014-Oct-18 22:08N 22°55' E 113°35'9781713.1
2014-Oct-18 21:33N 37°44' E 121°28'34729767.5
2014-Oct-18 21:33N 32°01' E 120°22'692191574.5
2014-Oct-18 21:32N 22°12' E 113°34'5315755.8
2014-Oct-18 21:32N 23°04' E 113°29'014.5
2014-Oct-18 21:32N 23°04' E 113°29'65224450.8
2014-Oct-18 21:30N 30°25' E 122°27'6558153.3
2014-Oct-18 21:26N 22°55' E 113°35'453.5
2014-Oct-18 21:21N 22°51' E 113°34'66718621.6
2014-Oct-18 21:19N 31°52' E 120°53'12135.8
2014-Oct-18 21:14N 32°02' E 120°45'1781069.1
2014-Oct-18 21:04N 34°49' E 119°31'3 5.0
2014-Oct-18 20:33N 34°50' E 119°28'304365192.7
2014-Oct-18 20:33N 30°25' E 122°27'14513747.7
2014-Oct-18 20:33N 31°57' E 120°15'73091.4
2014-Oct-18 20:33N 32°01' E 120°22'692249049.8
2014-Oct-18 20:32N 22°12' E 113°34'3911808.9
2014-Oct-18 20:32N 22°51' E 113°34'142897.0
2014-Oct-18 20:32N 23°04' E 113°29'97318831.9
2014-Oct-18 20:29N 37°43' E 121°33'3442587.7
2014-Oct-18 20:21N 32°02' E 120°45'66248628.1
2014-Oct-18 20:20N 23°04' E 113°29'9741249.2
2014-Oct-18 19:33N 37°43' E 121°35'350157633.0
2014-Oct-18 19:33N 31°58' E 120°20'214431.4
2014-Oct-18 19:33N 32°02' E 120°45'704361807.6
2014-Oct-18 19:33N 22°12' E 113°34'692276765.3
2014-Oct-18 19:33N 32°01' E 120°22'6581184874.2
2014-Oct-18 19:33N 22°51' E 113°34'141296.6
2014-Oct-18 19:32N 23°04' E 113°29'0 1.2
2014-Oct-18 19:29N 23°04' E 113°29'652335276.7
2014-Oct-18 19:29N 30°25' E 122°27'128846.7
2014-Oct-18 19:20N 32°00' E 120°47'40292.6
2014-Oct-18 19:12N 31°59' E 119°59'1813057.1
2014-Oct-18 19:08N 29°49' E 122°25'3662.3
2014-Oct-18 18:33N 30°25' E 122°27'658338479.0
2014-Oct-18 18:33N 22°51' E 113°34'403987.8
2014-Oct-18 18:32N 22°11' E 113°35'7011261646.8
2014-Oct-18 18:32N 32°00' E 120°42'34544348.7
2014-Oct-18 18:32N 37°42' E 121°38'34796013.7
2014-Oct-18 18:32N 32°01' E 120°22'65016238.7
2014-Oct-18 18:29N 23°04' E 113°29'0 0.2
2014-Oct-18 18:08N 23°04' E 113°29'10478.3
2014-Oct-18 18:07N 22°54' E 113°30'30645.9
2014-Oct-18 18:04N 22°28' E 113°46'6771337.4
2014-Oct-18 17:34N 31°24' E 121°31'587470.4
2014-Oct-18 17:33N 32°00' E 120°37'66599748.1
2014-Oct-18 17:33N 22°51' E 113°34'141296.6
2014-Oct-18 17:32N 23°04' E 113°29'652146692.4
2014-Oct-18 17:32N 30°25' E 122°27'144103412.1
2014-Oct-18 17:32N 32°01' E 120°22'69215006.3
2014-Oct-18 17:29N 22°11' E 113°35'53271.3
2014-Oct-18 17:17N 23°04' E 113°29'657897.6
2014-Oct-18 16:33N 32°03' E 120°33'666149760.7
2014-Oct-18 16:33N 22°51' E 113°34'658182254.4
2014-Oct-18 16:33N 30°25' E 122°27'65261764.5
2014-Oct-18 16:32N 23°04' E 113°29'057.1
2014-Oct-18 16:32N 23°04' E 113°29'64270075.0
2014-Oct-18 16:31N 31°57' E 120°14'68516327.0
2014-Oct-18 16:29N 22°11' E 113°35'68118299.6
2014-Oct-18 16:27N 31°56' E 120°08'13759.5
2014-Oct-18 16:26N 32°01' E 120°22'691381.1
2014-Oct-18 16:23N 31°24' E 121°31'6680.2
2014-Oct-18 15:33N 32°04' E 120°29'6623860.6
2014-Oct-18 15:33N 31°23' E 121°30'702960.9
2014-Oct-18 15:32N 31°59' E 120°20'2515.4
2014-Oct-18 15:32N 32°01' E 120°22'321816.6
2014-Oct-18 15:31N 31°47' E 120°55'422670.6
2014-Oct-18 15:30N 31°56' E 120°08'1502295.3
2014-Oct-18 15:26N 30°25' E 122°27'68629421.4
2014-Oct-18 15:24N 22°11' E 113°35'53753.7
2014-Oct-18 15:20N 23°04' E 113°29'62718644.2
2014-Oct-18 15:18N 29°51' E 122°22'1021738.2
2014-Oct-18 15:15N 31°22' E 121°28'65565460.8
2014-Oct-18 15:14N 23°04' E 113°29'102911910.6
2014-Oct-18 15:09N 38°44' E 121°37'97013850.4
2014-Oct-18 15:05N 22°38' E 120°05'5651090.6
2014-Oct-18 14:34N 32°02' E 120°25'14364219.5
2014-Oct-18 14:33N 30°25' E 122°27'14272821.2
2014-Oct-18 14:33N 32°01' E 120°25'34933923.6
2014-Oct-18 14:33N 37°44' E 121°43'38592438.2
2014-Oct-18 14:32N 31°19' E 121°34'65690860.6
2014-Oct-18 14:32N 23°04' E 113°29'543212.8
2014-Oct-18 14:31N 22°11' E 113°38'69228955.8
2014-Oct-18 14:30N 31°22' E 121°28'684562.5
2014-Oct-18 14:29N 32°01' E 120°22'5637067.7
2014-Oct-18 14:24N 22°38' E 120°10'55114057.8
2014-Oct-18 14:22N 31°47' E 120°55'66017863.0
2014-Oct-18 14:19N 22°55' E 113°35'11309.6
2014-Oct-18 14:17N 23°04' E 113°29'6485472.6
2014-Oct-18 14:10N 31°58' E 120°22'1301318.8
2014-Oct-18 14:04N 30°32' E 122°15'13719026.5
2014-Oct-18 14:04N 31°56' E 120°08'1122.5
2014-Oct-18 13:33N 31°59' E 120°21'91766.8
2014-Oct-18 13:33N 32°02' E 120°31'81425.8
2014-Oct-18 13:33N 31°58' E 120°22'14222208.6
2014-Oct-18 13:32N 30°25' E 122°27'7616098.4
2014-Oct-18 13:32N 31°22' E 121°28'688798.7
2014-Oct-18 13:32N 32°01' E 120°22'3257214.6
2014-Oct-18 13:32N 31°47' E 120°55'4422681.0
2014-Oct-18 13:32N 31°15' E 121°31'65216292.7
2014-Oct-18 13:29N 23°04' E 113°29'3776710.1
2014-Oct-18 13:26N 22°37' E 120°16'3642082.7
2014-Oct-18 13:15N 22°16' E 113°43'50426.4
2014-Oct-18 13:08N 23°04' E 113°29'6481119.4
2014-Oct-18 12:33N 31°58' E 120°22'72723.8
2014-Oct-18 12:33N 31°56' E 120°14'196174.8
2014-Oct-18 12:33N 32°01' E 120°36'12502.6
2014-Oct-18 12:32N 32°01' E 120°22'14432318.1
2014-Oct-18 12:31N 30°25' E 122°27'764702.8
2014-Oct-18 12:30N 31°22' E 121°29'65529492.8
2014-Oct-18 12:29N 23°04' E 113°29'97829590.5
2014-Oct-18 12:27N 37°45' E 121°44'42127556.4
2014-Oct-18 12:26N 30°44' E 122°16'49327.8
2014-Oct-18 12:17N 31°11' E 121°28'6736409.0
2014-Oct-18 12:11N 22°20' E 113°44'32301.9
2014-Oct-18 12:05N 22°51' E 113°34'64627377.9
2014-Oct-18 12:03N 31°59' E 120°01'650779523.9
2014-Oct-18 12:03N 22°54' E 113°22'6641327.8
2014-Oct-18 11:33N 30°25' E 122°27'672604648.4
2014-Oct-18 11:33N 22°23' E 113°44'667218290.9
2014-Oct-18 11:33N 31°56' E 120°07'645193550.2
2014-Oct-18 11:33N 22°54' E 113°35'66792381.7
2014-Oct-18 11:32N 30°51' E 122°17'415497503.2
2014-Oct-18 11:32N 37°45' E 121°39'9771171832.7
2014-Oct-18 11:32N 23°04' E 113°29'65089937.1
2014-Oct-18 11:32N 32°01' E 120°22'65924472.3
2014-Oct-18 11:30N 22°55' E 113°26'1086.7
2014-Oct-18 11:23N 23°04' E 113°29'6394476.2
2014-Oct-18 11:14N 31°58' E 120°06'43389.7
2014-Oct-18 11:08N 31°47' E 120°55'521205.6
2014-Oct-18 11:05N 31°04' E 121°28'6481222.2
2014-Oct-18 10:33N 22°55' E 113°30'658124644.5
2014-Oct-18 10:33N 30°25' E 122°27'1499921.3
2014-Oct-18 10:32N 31°57' E 120°10'640576366.1
2014-Oct-18 10:32N 23°04' E 113°29'975134996.5
2014-Oct-18 10:32N 37°45' E 121°34'3542797.1
2014-Oct-18 10:24N 31°59' E 119°60'17770731.1
2014-Oct-18 10:24N 29°51' E 122°22'62745125.1
2014-Oct-18 10:23N 23°04' E 113°29'65093543.2
2014-Oct-18 10:23N 32°01' E 120°22'191591.4
2014-Oct-18 10:22N 32°02' E 120°45'130161.1
2014-Oct-18 09:33N 30°25' E 122°27'653261255.8
2014-Oct-18 09:33N 23°01' E 113°31'976100348.6
2014-Oct-18 09:33N 37°45' E 121°29'353211930.6
2014-Oct-18 09:33N 31°57' E 120°16'7438.4
2014-Oct-18 09:32N 32°01' E 120°22'23107.5
2014-Oct-18 09:19N 32°02' E 120°49'66426568.0
2014-Oct-18 09:17N 23°04' E 113°29'0418.0
2014-Oct-18 09:17N 23°04' E 113°29'6624873.5
2014-Oct-18 09:09N 32°02' E 120°45'18597.3
2014-Oct-18 09:07N 31°47' E 120°55'383222.9
2014-Oct-18 09:06N 31°24' E 121°31'70126.5
2014-Oct-18 08:33N 31°60' E 120°21'144103491.0
2014-Oct-18 08:33N 30°25' E 122°27'65231703.7
2014-Oct-18 08:32N 23°04' E 113°30'64980619.8
2014-Oct-18 08:32N 32°01' E 120°22'684584.9
2014-Oct-18 08:31N 31°26' E 121°29'523622.9
2014-Oct-18 08:30N 32°02' E 120°45'66250700.1
2014-Oct-18 08:29N 23°04' E 113°29'6386437.8
2014-Oct-18 08:23N 32°02' E 119°57'638383070.9
2014-Oct-18 08:23N 23°04' E 113°29'97419927.2
2014-Oct-18 08:20N 37°46' E 121°29'3491393.6
2014-Oct-18 08:05N 31°59' E 120°51'6631256.6
2014-Oct-18 07:33N 23°04' E 113°30'6912459.7
2014-Oct-18 07:33N 21°58' E 113°08'1045940410.4
2014-Oct-18 07:33N 37°48' E 121°30'379681631.8
2014-Oct-18 07:33N 31°29' E 121°25'79282900.5
2014-Oct-18 07:33N 31°60' E 119°60'639135269.7
2014-Oct-18 07:33N 23°05' E 113°26'653112009.8
2014-Oct-18 07:32N 30°25' E 122°27'14412321.9
2014-Oct-18 07:32N 32°01' E 120°22'2106.5
2014-Oct-18 07:31N 31°59' E 120°23'7170.0
2014-Oct-18 07:28N 31°57' E 120°15'25344.9
2014-Oct-18 07:24N 32°02' E 120°45'6625741.9
2014-Oct-18 07:17N 23°04' E 113°29'51509.8
2014-Oct-18 07:11N 22°14' E 113°36'6881098.8
2014-Oct-18 06:34N 31°60' E 120°21'6482333139.5
2014-Oct-18 06:34N 23°04' E 113°30'652391008.2
2014-Oct-18 06:33N 30°25' E 122°27'714642863.8
2014-Oct-18 06:33N 21°53' E 113°12'1047289837.1
2014-Oct-18 06:33N 37°48' E 121°26'350251762.8
2014-Oct-18 06:33N 32°02' E 120°26'69038823.3
2014-Oct-18 06:32N 22°16' E 113°36'687154641.8
2014-Oct-18 06:32N 32°01' E 120°22'13846.5
2014-Oct-18 06:31N 31°56' E 120°08'663076.1
2014-Oct-18 06:30N 31°32' E 121°20'65887775.7
2014-Oct-18 06:29N 23°04' E 113°29'63910843.0
2014-Oct-18 06:26N 31°58' E 120°05'45547.8
2014-Oct-18 06:21N 31°47' E 120°55'66022847.3
2014-Oct-18 06:19N 22°55' E 113°35'330.7
2014-Oct-18 06:13N 22°57' E 113°37'6598.4
2014-Oct-18 05:34N 21°57' E 113°12'712427137.8
2014-Oct-18 05:33N 30°25' E 122°27'149537180.3
2014-Oct-18 05:33N 31°57' E 120°09'6131131.3
2014-Oct-18 05:33N 31°36' E 121°16'371133461.4
2014-Oct-18 05:33N 37°47' E 121°30'975219445.6
2014-Oct-18 05:33N 23°04' E 113°30'65357371.7
2014-Oct-18 05:32N 32°02' E 120°27'655262172.9
2014-Oct-18 05:32N 22°57' E 113°37'652130303.4
2014-Oct-18 05:32N 32°01' E 120°22'65448084.3
2014-Oct-18 05:31N 22°55' E 113°35'13108.5
2014-Oct-18 05:24N 23°02' E 113°23'10333718629.1
2014-Oct-18 05:23N 38°44' E 121°36'10299594.3
2014-Oct-18 05:17N 23°04' E 113°29'1459.8
2014-Oct-18 05:03N 22°51' E 113°34'1326.7
2014-Oct-18 04:33N 23°04' E 113°30'659395565.2
2014-Oct-18 04:33N 31°40' E 121°12'5246350.7
2014-Oct-18 04:33N 31°57' E 120°15'356106921.2
2014-Oct-18 04:33N 37°48' E 121°29'4451603573.5
2014-Oct-18 04:33N 30°25' E 122°27'13644433.7
2014-Oct-18 04:33N 32°01' E 120°35'66123561.7
2014-Oct-18 04:31N 22°55' E 113°35'65467311.9
2014-Oct-18 04:31N 32°01' E 120°22'67228810.7
2014-Oct-18 04:29N 22°27' E 113°48'4114776.5
2014-Oct-18 04:29N 23°04' E 113°29'6623024.0
2014-Oct-18 04:16N 32°02' E 120°45'4046385.1
2014-Oct-18 04:12N 38°44' E 121°33'10271595.8
2014-Oct-18 03:34N 23°04' E 113°30'652335153.9
2014-Oct-18 03:33N 30°25' E 122°27'10312779.0
2014-Oct-18 03:33N 31°42' E 121°08'4414435.3
2014-Oct-18 03:33N 31°59' E 120°20'71280151.0
2014-Oct-18 03:32N 21°58' E 113°11'7042534807.6
2014-Oct-18 03:32N 31°56' E 120°08'64338607.5
2014-Oct-18 03:31N 22°55' E 113°35'3823063.1
2014-Oct-18 03:31N 22°19' E 113°19'1072160817.0
2014-Oct-18 03:31N 38°44' E 121°31'407733095.1
2014-Oct-18 03:31N 32°01' E 120°22'67226891.1
2014-Oct-18 03:29N 22°27' E 113°48'67814708.0
2014-Oct-18 03:26N 32°00' E 120°36'4474498.6
2014-Oct-18 03:20N 39°05' E 117°44'98517647.7
2014-Oct-18 03:17N 23°04' E 113°29'6626492.9
2014-Oct-18 03:11N 32°02' E 120°45'6689175.9
2014-Oct-18 03:07N 23°03' E 113°19'18413.3
2014-Oct-18 03:04N 22°51' E 113°34'1326.1
2014-Oct-18 02:34N 23°04' E 113°30'649467008.2
2014-Oct-18 02:33N 31°60' E 120°22'443797347.5
2014-Oct-18 02:33N 39°05' E 117°47'441105950.5
2014-Oct-18 02:33N 32°02' E 120°24'143171741.2
2014-Oct-18 02:33N 30°25' E 122°27'442318284.5
2014-Oct-18 02:33N 37°43' E 121°12'34181804.0
2014-Oct-18 02:33N 32°03' E 120°32'237372.7
2014-Oct-18 02:33N 31°56' E 120°07'4929483.4
2014-Oct-18 02:32N 31°45' E 121°04'7505.9
2014-Oct-18 02:32N 31°47' E 120°55'4181506424.8
2014-Oct-18 02:32N 38°44' E 121°30'10303709180.3
2014-Oct-18 02:32N 23°02' E 113°24'131761.2
2014-Oct-18 02:31N 22°55' E 113°35'65478530.6
2014-Oct-18 02:31N 32°01' E 120°22'44038671.0
2014-Oct-18 02:30N 39°04' E 117°50'10188726.2
2014-Oct-18 02:23N 22°27' E 113°48'6842461924.8
2014-Oct-18 02:23N 32°02' E 120°45'6626751.2
2014-Oct-18 02:17N 23°04' E 113°29'14342.7
2014-Oct-18 02:15N 22°51' E 113°34'663966.5
2014-Oct-18 01:34N 32°02' E 120°28'14163335.8
2014-Oct-18 01:33N 30°25' E 122°27'652167644.8
2014-Oct-18 01:33N 23°04' E 113°29'655392944.3
2014-Oct-18 01:33N 32°04' E 120°27'1922.3
2014-Oct-18 01:33N 32°03' E 120°26'362274.0
2014-Oct-18 01:32N 31°45' E 121°03'41962921.3
2014-Oct-18 01:32N 38°44' E 121°30'172310411.1
2014-Oct-18 01:32N 39°05' E 117°50'44227884.8
2014-Oct-18 01:31N 32°01' E 120°22'67223962.2
2014-Oct-18 01:29N 22°27' E 113°48'41830.0
2014-Oct-18 01:26N 23°04' E 113°29'98663376.9
2014-Oct-18 01:25N 39°05' E 117°46'44712680.8
2014-Oct-18 01:23N 32°02' E 120°45'67011070.4
2014-Oct-18 01:19N 22°51' E 113°34'1499.4
2014-Oct-18 01:11N 23°04' E 113°29'6571049.1
2014-Oct-18 00:33N 32°04' E 120°31'140167859.2
2014-Oct-18 00:33N 30°25' E 122°27'13619544.0
2014-Oct-18 00:33N 32°01' E 120°35'656214809.3
2014-Oct-18 00:33N 23°04' E 113°29'65955145.9
2014-Oct-18 00:32N 31°45' E 121°03'4208534.1
2014-Oct-18 00:29N 38°44' E 121°33'1028462496.8
2014-Oct-18 00:29N 23°04' E 113°29'65028173.7
2014-Oct-18 00:28N 32°01' E 120°22'6559706.8
2014-Oct-18 00:24N 22°54' E 113°35'111124.2
2014-Oct-18 00:23N 23°04' E 113°29'41372.8
2014-Oct-18 00:16N 22°27' E 113°48'101929817.1
2014-Oct-18 00:14N 39°04' E 117°50'99435076.9
2014-Oct-18 00:13N 22°55' E 113°35'64617894.6
2014-Oct-18 00:11N 31°56' E 120°13'65011304.2
2014-Oct-18 00:07N 22°51' E 113°34'96014160.3
2014-Oct-18 00:03N 36°51' E 122°29'304615.8
2014-Oct-17 23:33N 32°02' E 120°35'340407444.9
2014-Oct-17 23:33N 37°40' E 121°08'962576960.9
2014-Oct-17 23:33N 23°04' E 113°29'953263780.5
2014-Oct-17 23:33N 36°54' E 122°28'38982448.8
2014-Oct-17 23:33N 30°25' E 122°27'1463631.5
2014-Oct-17 23:30N 31°56' E 120°13'442097.5
2014-Oct-17 23:29N 31°45' E 121°03'381604.0
2014-Oct-17 23:28N 32°01' E 120°22'4062413.6
2014-Oct-17 23:18N 38°42' E 121°32'10269467.6
2014-Oct-17 23:11N 23°04' E 113°29'1220.5
2014-Oct-17 23:11N 23°04' E 113°29'11162.8
2014-Oct-17 23:07N 22°55' E 113°35'6551170.0
2014-Oct-17 22:33N 30°25' E 122°27'133119978.1
2014-Oct-17 22:33N 32°00' E 120°38'2522379.2
2014-Oct-17 22:33N 31°56' E 120°09'639575319.8
2014-Oct-17 22:33N 23°04' E 113°29'4113440.8
2014-Oct-17 22:33N 22°27' E 113°47'68054387.3
2014-Oct-17 22:32N 31°45' E 121°03'36028812.2
2014-Oct-17 22:32N 37°45' E 121°20'3485417.2
2014-Oct-17 22:28N 32°01' E 120°22'662401.9
2014-Oct-17 22:26N 32°15' E 119°05'626375524.8
2014-Oct-17 22:26N 23°04' E 113°29'6563386.8
2014-Oct-17 22:14N 31°47' E 120°55'66023527.0
2014-Oct-17 22:13N 22°55' E 113°35'95910626.2
2014-Oct-17 22:07N 36°56' E 122°28'9531699.3
2014-Oct-17 21:34N 23°04' E 113°29'659139658.8
2014-Oct-17 21:33N 32°01' E 120°42'1316740.7
2014-Oct-17 21:32N 30°25' E 122°27'11225164.8
2014-Oct-17 21:32N 31°47' E 120°58'31830113.6
2014-Oct-17 21:31N 36°56' E 122°28'31337512.6
2014-Oct-17 21:31N 32°01' E 120°22'34720500.3
2014-Oct-17 21:30N 37°45' E 121°19'97015516.0
2014-Oct-17 21:26N 23°04' E 113°29'46599.1
2014-Oct-17 21:21N 22°19' E 113°42'677848.2
2014-Oct-17 20:33N 30°25' E 122°27'652234704.2
2014-Oct-17 20:33N 23°04' E 113°29'9711748028.3
2014-Oct-17 20:33N 37°45' E 121°23'3481251999.5
2014-Oct-17 20:33N 32°01' E 120°22'31039856.7
2014-Oct-17 20:33N 36°53' E 122°28'304547004.6
2014-Oct-17 20:33N 32°01' E 120°45'11530.5
2014-Oct-17 20:31N 31°52' E 120°53'696147467.1
2014-Oct-17 20:31N 22°13' E 113°38'424061.2
2014-Oct-17 20:30N 22°55' E 113°35'66726083.3
2014-Oct-17 20:29N 32°02' E 120°45'6626583.4
2014-Oct-17 20:23N 23°04' E 113°29'640460595.1
2014-Oct-17 20:23N 32°04' E 119°55'65811223.9
2014-Oct-17 20:19N 22°32' E 113°51'520.2
2014-Oct-17 20:04N 22°29' E 113°47'6711315.7
2014-Oct-17 19:33N 32°01' E 120°22'650146144.7
2014-Oct-17 19:33N 23°04' E 113°29'973318342.1
2014-Oct-17 19:33N 37°45' E 121°28'983196598.4
2014-Oct-17 19:32N 22°51' E 113°34'658118467.6
2014-Oct-17 19:32N 30°25' E 122°27'65523801.3
2014-Oct-17 19:30N 22°55' E 113°35'66717647.9
2014-Oct-17 19:28N 31°58' E 120°51'3452.4
2014-Oct-17 19:28N 31°60' E 120°50'494615.1
2014-Oct-17 19:27N 32°10' E 119°53'64330069.9
2014-Oct-17 19:26N 23°04' E 113°29'521871.6
2014-Oct-17 19:24N 22°12' E 113°34'7038012.1
2014-Oct-17 19:19N 32°02' E 120°45'662868.4
2014-Oct-17 18:33N 23°04' E 113°29'14980.0
2014-Oct-17 18:32N 22°51' E 113°34'3917557.2
2014-Oct-17 18:32N 22°12' E 113°34'68647506.4
2014-Oct-17 18:31N 30°25' E 122°27'12923191.5
2014-Oct-17 18:31N 32°01' E 120°46'34423379.4
2014-Oct-17 18:30N 37°43' E 121°31'3476855.8
2014-Oct-17 18:27N 32°01' E 120°22'65031180.1
2014-Oct-17 18:26N 23°04' E 113°29'66220368.1
2014-Oct-17 18:24N 32°02' E 120°45'8338.4
2014-Oct-17 18:23N 31°57' E 120°52'6673882.9
2014-Oct-17 18:12N 22°55' E 113°35'6621022.8
2014-Oct-17 17:33N 31°60' E 120°39'132237784.3
2014-Oct-17 17:33N 30°25' E 122°27'14430432.3
2014-Oct-17 17:33N 32°01' E 120°22'34843217.7
2014-Oct-17 17:33N 37°44' E 121°31'973146014.7
2014-Oct-17 17:32N 23°04' E 113°29'14255.2
2014-Oct-17 17:29N 22°51' E 113°34'13128.8
2014-Oct-17 17:23N 23°04' E 113°29'66018426.2
2014-Oct-17 17:21N 31°54' E 120°53'7957.5
2014-Oct-17 17:20N 31°47' E 120°55'69696433.2
2014-Oct-17 17:20N 22°12' E 113°34'7048673.6
2014-Oct-17 17:15N 32°02' E 120°45'1015.0
2014-Oct-17 16:33N 32°01' E 120°32'655294770.1
2014-Oct-17 16:33N 23°04' E 113°29'144460.4
2014-Oct-17 16:33N 22°51' E 113°34'983121973.3
2014-Oct-17 16:33N 37°43' E 121°32'35314958.2
2014-Oct-17 16:31N 31°51' E 120°54'11716840.8
2014-Oct-17 16:31N 30°25' E 122°27'6877846.2
2014-Oct-17 16:25N 22°12' E 113°34'192846.4
2014-Oct-17 16:25N 22°27' E 113°47'411105.5
2014-Oct-17 16:23N 23°04' E 113°29'65022062.0
2014-Oct-17 16:21N 32°01' E 120°22'6544379.0
2014-Oct-17 16:12N 22°55' E 113°35'28376.7
2014-Oct-17 16:08N 22°32' E 113°51'671115050.8
2014-Oct-17 16:07N 31°47' E 120°55'2950.8
2014-Oct-17 15:33N 32°02' E 120°26'652782855.4
2014-Oct-17 15:33N 23°04' E 113°29'649292269.0
2014-Oct-17 15:33N 32°01' E 120°22'325495.7
2014-Oct-17 15:33N 31°48' E 120°56'113204083.4
2014-Oct-17 15:33N 30°25' E 122°27'438157575.2
2014-Oct-17 15:33N 37°41' E 121°35'35613912.3
2014-Oct-17 15:31N 31°47' E 120°55'6567639.4
2014-Oct-17 15:26N 23°04' E 113°29'538601.9
2014-Oct-17 15:26N 22°12' E 113°34'192273.1
2014-Oct-17 15:25N 22°27' E 113°47'68510142.7
2014-Oct-17 15:21N 32°02' E 120°45'66714033.1
2014-Oct-17 15:18N 22°55' E 113°35'4594.6
2014-Oct-17 15:18N 22°51' E 113°34'1418.3
2014-Oct-17 14:33N 23°04' E 113°29'6481165924.2
2014-Oct-17 14:33N 31°59' E 120°21'21168.1
2014-Oct-17 14:33N 32°01' E 120°22'345248659.6
2014-Oct-17 14:33N 37°41' E 121°38'97342697.2
2014-Oct-17 14:32N 23°04' E 113°29'5327270.3
2014-Oct-17 14:32N 22°12' E 113°35'431944.3
2014-Oct-17 14:30N 22°55' E 113°35'4200.2
2014-Oct-17 14:29N 22°51' E 113°34'27215.6
2014-Oct-17 14:21N 22°27' E 113°47'68582157.7
2014-Oct-17 14:21N 32°02' E 120°45'18212.0
2014-Oct-17 14:16N 31°47' E 120°55'65618734.4
2014-Oct-17 14:14N 23°04' E 113°29'0 0.6
2014-Oct-17 13:33N 23°04' E 113°29'643385712.5
2014-Oct-17 13:33N 31°56' E 120°16'724421.1
2014-Oct-17 13:33N 32°01' E 120°22'650167023.5
2014-Oct-17 13:33N 23°04' E 113°29'97370047.9
2014-Oct-17 13:32N 37°43' E 121°34'100157208.6
2014-Oct-17 13:31N 22°27' E 113°47'302127.9
2014-Oct-17 13:30N 22°55' E 113°35'4109.7
2014-Oct-17 13:28N 22°51' E 113°34'40695.6
2014-Oct-17 13:25N 22°11' E 113°36'5362.5
2014-Oct-17 12:33N 23°04' E 113°29'650194850.4
2014-Oct-17 12:33N 32°01' E 120°22'128471.8
2014-Oct-17 12:33N 31°56' E 120°09'639209219.6
2014-Oct-17 12:33N 23°04' E 113°29'5237187.4
2014-Oct-17 12:33N 22°14' E 113°41'101482939.7
2014-Oct-17 12:32N 37°43' E 121°30'981294220.7
2014-Oct-17 12:32N 22°54' E 113°28'985443385.3
2014-Oct-17 12:32N 37°34' E 122°02'3383000.3
2014-Oct-17 12:25N 32°02' E 120°45'679101797.8
2014-Oct-17 12:25N 22°33' E 113°48'67237195.3
2014-Oct-17 12:23N 31°47' E 120°55'65512226.3
2014-Oct-17 12:20N 23°04' E 113°30'649827.2
2014-Oct-17 11:33N 32°01' E 120°22'649167013.4
2014-Oct-17 11:33N 23°04' E 113°29'63742482.5
2014-Oct-17 11:32N 31°58' E 120°02'35321533.1
2014-Oct-17 11:31N 37°43' E 121°31'97951808.2
2014-Oct-17 11:30N 22°55' E 113°35'1166.2
2014-Oct-17 11:20N 23°04' E 113°30'97640399.8
2014-Oct-17 11:19N 37°35' E 122°02'9765897.5
2014-Oct-17 11:09N 23°04' E 113°29'0 0.3
2014-Oct-17 10:33N 23°04' E 113°29'136.4
2014-Oct-17 10:32N 23°04' E 113°30'971317911.2
2014-Oct-17 10:32N 37°43' E 121°29'34610751.4
2014-Oct-17 10:30N 32°01' E 120°22'65011870.1
2014-Oct-17 10:27N 23°04' E 113°29'97538980.4
2014-Oct-17 10:25N 37°34' E 121°59'9817951.6
2014-Oct-17 10:18N 22°55' E 113°35'66719831.8
2014-Oct-17 10:16N 32°02' E 120°45'1824.8
2014-Oct-17 09:33N 31°47' E 120°55'35747622.1
2014-Oct-17 09:33N 37°43' E 121°23'9693489785.5
2014-Oct-17 09:33N 23°04' E 113°29'27236232.1
2014-Oct-17 09:33N 23°58' E 118°20'49512293.9
2014-Oct-17 09:30N 32°01' E 120°22'650194957.9
2014-Oct-17 09:30N 23°03' E 113°30'8205.9
2014-Oct-17 09:28N 23°02' E 113°22'66714830.4
2014-Oct-17 09:25N 32°02' E 120°45'66223587.7
2014-Oct-17 09:23N 23°04' E 113°30'28365.2
2014-Oct-17 09:19N 22°38' E 113°41'13421.5
2014-Oct-17 09:17N 22°27' E 113°48'461575.9
2014-Oct-17 09:15N 21°58' E 113°11'103937031.6
2014-Oct-17 09:13N 37°31' E 121°57'9711452.9
2014-Oct-17 08:33N 23°05' E 113°27'6920602.7
2014-Oct-17 08:33N 21°58' E 113°11'6910286.7
2014-Oct-17 08:33N 23°04' E 113°29'186.7
2014-Oct-17 08:32N 23°04' E 113°30'64918554.1
2014-Oct-17 08:30N 32°01' E 120°22'65487256.2
2014-Oct-17 08:30N 22°55' E 113°35'96914015.3
2014-Oct-17 08:26N 37°42' E 121°09'355106502.6
2014-Oct-17 08:25N 31°47' E 120°55'67128426.7
2014-Oct-17 08:24N 22°38' E 113°41'1009201864.3
2014-Oct-17 08:24N 39°04' E 117°51'9963581.9
2014-Oct-17 08:07N 22°54' E 113°30'1118.9
2014-Oct-17 07:33N 23°04' E 113°29'52389.9
2014-Oct-17 07:33N 22°59' E 113°31'2328032.2
2014-Oct-17 07:33N 22°38' E 113°41'666479586.2
2014-Oct-17 07:33N 32°01' E 120°22'49511968.1
2014-Oct-17 07:31N 23°57' E 118°20'2653991.1
2014-Oct-17 07:27N 22°27' E 113°48'68491201.0
2014-Oct-17 07:26N 31°59' E 120°51'66313406.1
2014-Oct-17 07:23N 23°04' E 113°30'1153.8
2014-Oct-17 07:11N 22°55' E 113°35'64512422.3
2014-Oct-17 07:08N 31°57' E 120°10'44427548.8
2014-Oct-17 07:07N 39°05' E 117°45'9851745.6
2014-Oct-17 06:33N 23°04' E 113°29'649137539.4
2014-Oct-17 06:33N 32°01' E 120°22'666171279.5
2014-Oct-17 06:33N 22°38' E 113°41'282605.1
2014-Oct-17 06:32N 23°04' E 113°30'111509.4
2014-Oct-17 06:32N 22°54' E 113°35'31027.3
2014-Oct-17 06:32N 22°53' E 113°32'6702561.0
2014-Oct-17 06:16N 32°02' E 120°45'1592550.5
2014-Oct-17 06:12N 29°42' E 122°12'168259.1
2014-Oct-17 05:33N 31°59' E 120°19'663796158.6
2014-Oct-17 05:33N 22°38' E 113°41'625321499.7
2014-Oct-17 05:33N 29°42' E 122°13'169607792.9
2014-Oct-17 05:33N 32°01' E 120°22'650584551.6
2014-Oct-17 05:33N 23°04' E 113°29'98693371.7
2014-Oct-17 05:32N 39°05' E 117°47'91171315.7
2014-Oct-17 05:32N 23°54' E 118°16'40714943.1
2014-Oct-17 05:30N 29°42' E 122°12'1594571.4
2014-Oct-17 05:28N 32°02' E 120°45'684129543.7
2014-Oct-17 05:28N 22°27' E 113°48'41560.8
2014-Oct-17 05:23N 23°04' E 113°30'1351.1
2014-Oct-17 05:08N 22°51' E 113°34'490.5
2014-Oct-17 05:05N 22°55' E 113°35'1120.9
2014-Oct-17 04:33N 23°04' E 113°29'65280904.3
2014-Oct-17 04:33N 32°01' E 120°25'6681202816.2
2014-Oct-17 04:33N 22°38' E 113°41'666141052.6
2014-Oct-17 04:33N 32°01' E 120°22'64997408.4
2014-Oct-17 04:32N 23°04' E 113°30'6629198.3
2014-Oct-17 04:28N 32°02' E 120°45'50126515.7
2014-Oct-17 04:27N 23°58' E 118°20'2665656.1
2014-Oct-17 04:24N 22°27' E 113°48'30177.9
2014-Oct-17 04:14N 22°55' E 113°35'6603748.6
2014-Oct-17 04:03N 31°47' E 120°55'1834.7
2014-Oct-17 03:33N 32°02' E 120°45'113000.5
2014-Oct-17 03:33N 32°02' E 120°32'97874.7
2014-Oct-17 03:33N 32°01' E 120°22'64997409.8
2014-Oct-17 03:32N 23°04' E 113°30'126.9
2014-Oct-17 03:31N 23°04' E 113°29'412141.1
2014-Oct-17 03:30N 22°27' E 113°48'30437.8
2014-Oct-17 03:26N 22°55' E 113°35'9775471.0
2014-Oct-17 03:15N 37°31' E 121°57'3442261.0
2014-Oct-17 03:06N 31°57' E 120°15'6431186.1
2014-Oct-17 02:33N 23°04' E 113°29'66282165.7
2014-Oct-17 02:33N 32°02' E 120°45'204140.6
2014-Oct-17 02:33N 32°01' E 120°22'65832918.2
2014-Oct-17 02:31N 22°54' E 113°28'7172.1
2014-Oct-17 02:29N 22°55' E 113°35'11791.8
2014-Oct-17 02:28N 23°04' E 113°29'4174094.7
2014-Oct-17 02:28N 22°27' E 113°48'66914077.9
2014-Oct-17 02:25N 31°59' E 120°19'1441989.0
2014-Oct-17 02:21N 30°25' E 122°27'142179.2
2014-Oct-17 01:33N 32°00' E 120°23'6501169290.4
2014-Oct-17 01:33N 23°04' E 113°29'662595825.9
2014-Oct-17 01:33N 32°01' E 120°46'67018425.9
2014-Oct-17 01:31N 22°54' E 113°30'32622.7
2014-Oct-17 01:28N 22°27' E 113°48'67227813.0
2014-Oct-17 01:27N 32°01' E 120°22'14414782.2
2014-Oct-17 01:26N 30°25' E 122°27'655102472.7
2014-Oct-17 01:26N 22°55' E 113°35'6675171.7
2014-Oct-17 01:18N 32°02' E 120°45'66224315.6
2014-Oct-17 01:16N 23°04' E 113°29'14170.8
2014-Oct-17 01:12N 22°51' E 113°34'1421.4
2014-Oct-17 00:33N 23°04' E 113°29'65267073.3
2014-Oct-17 00:33N 30°25' E 122°27'65832464.1
2014-Oct-17 00:32N 22°51' E 113°34'66319092.0
2014-Oct-17 00:29N 32°02' E 120°29'286614.2
2014-Oct-17 00:29N 31°47' E 120°55'65644543.7
2014-Oct-17 00:28N 23°04' E 113°29'417054.8
2014-Oct-17 00:28N 22°27' E 113°48'67217792.0
2014-Oct-17 00:26N 32°01' E 120°22'6644672.1
2014-Oct-17 00:17N 22°53' E 113°18'169517.7
2014-Oct-17 00:17N 22°55' E 113°35'940187997.1
2014-Oct-17 00:17N 36°40' E 122°15'5317456.6
2014-Oct-17 00:17N 37°31' E 121°57'3353041.8
2014-Oct-17 00:10N 32°02' E 120°45'915.2
2014-Oct-16 23:33N 32°01' E 120°34'136245684.1
2014-Oct-16 23:33N 30°25' E 122°27'652469516.2
2014-Oct-16 23:33N 23°04' E 113°29'975319226.2
2014-Oct-16 23:33N 37°34' E 121°59'34314361.2
2014-Oct-16 23:32N 32°01' E 120°22'65827237.3
2014-Oct-16 23:30N 22°51' E 113°34'97579774.5
2014-Oct-16 23:30N 37°43' E 121°11'96513725.9
2014-Oct-16 23:25N 23°04' E 113°29'27048611.8
2014-Oct-16 23:25N 23°56' E 118°18'2641709.6
2014-Oct-16 23:16N 22°27' E 113°48'68314204.5
2014-Oct-16 23:13N 32°07' E 120°34'6601002.5
2014-Oct-16 22:33N 23°04' E 113°29'27335128.7
2014-Oct-16 22:33N 23°59' E 118°21'26814639.3
2014-Oct-16 22:32N 22°56' E 113°37'65337293.8
2014-Oct-16 22:31N 32°01' E 120°22'65018269.2
2014-Oct-16 22:29N 23°04' E 113°29'976100391.3
2014-Oct-16 22:28N 37°35' E 122°00'35233348.8
2014-Oct-16 22:27N 31°47' E 120°55'183008.3
2014-Oct-16 22:27N 32°02' E 120°45'3473840.0
2014-Oct-16 22:22N 37°47' E 121°18'36114759.5
2014-Oct-16 22:20N 31°47' E 121°00'331887.0
2014-Oct-16 22:19N 32°01' E 120°25'6562796.8
2014-Oct-16 22:05N 22°55' E 113°35'1121.0
2014-Oct-16 21:33N 23°04' E 113°29'971233150.4
2014-Oct-16 21:33N 37°47' E 121°20'98282212.5
2014-Oct-16 21:32N 22°51' E 113°35'151127.6
2014-Oct-16 21:32N 23°04' E 113°29'66076648.0
2014-Oct-16 21:31N 31°45' E 121°05'406890.0
2014-Oct-16 21:31N 32°01' E 120°22'67623183.1
2014-Oct-16 21:29N 22°24' E 113°45'68116347.4
2014-Oct-16 21:26N 32°02' E 120°30'1401784.4
2014-Oct-16 21:22N 30°25' E 122°27'4303136.1
2014-Oct-16 21:14N 37°35' E 122°03'9771459.0
2014-Oct-16 20:33N 23°04' E 113°29'66059408.2
2014-Oct-16 20:33N 31°42' E 121°10'365164220.3
2014-Oct-16 20:33N 37°47' E 121°25'301358.8
2014-Oct-16 20:31N 37°35' E 122°00'34439957.6
2014-Oct-16 20:31N 32°01' E 120°22'68411623.0
2014-Oct-16 20:27N 22°17' E 113°40'67928761.8
2014-Oct-16 20:26N 30°25' E 122°27'1301623.1
2014-Oct-16 20:21N 32°02' E 120°45'6629095.3
2014-Oct-16 20:17N 23°04' E 113°29'6564355.8
2014-Oct-16 20:08N 31°47' E 120°55'66014853.8
2014-Oct-16 20:05N 22°55' E 113°35'4381.9
2014-Oct-16 19:33N 22°12' E 113°36'1020203983.2
2014-Oct-16 19:33N 37°46' E 121°29'974876411.2
2014-Oct-16 19:33N 23°04' E 113°29'97785769.4
2014-Oct-16 19:32N 37°37' E 121°57'97779921.8
2014-Oct-16 19:32N 23°04' E 113°29'66225083.5
2014-Oct-16 19:30N 32°02' E 120°45'6705718.0
2014-Oct-16 19:23N 22°53' E 113°31'65831587.7
2014-Oct-16 19:22N 32°01' E 120°22'4064740.3
2014-Oct-16 19:17N 38°43' E 121°30'5003678.1
2014-Oct-16 19:08N 30°25' E 122°27'65510962.1
2014-Oct-16 19:05N 22°55' E 113°35'9811853.1
2014-Oct-16 18:33N 37°45' E 121°30'974701377.4
2014-Oct-16 18:33N 23°04' E 113°29'662794276.5
2014-Oct-16 18:33N 32°02' E 120°45'70326100.6
2014-Oct-16 18:31N 22°12' E 113°34'69263839.8
2014-Oct-16 18:31N 32°01' E 120°22'755779.0
2014-Oct-16 18:30N 31°13' E 121°30'38741009.6
2014-Oct-16 18:29N 37°40' E 121°55'988169412.1
2014-Oct-16 18:29N 22°55' E 113°27'82112.8
2014-Oct-16 18:29N 22°55' E 113°35'113378.5
2014-Oct-16 18:29N 23°04' E 113°29'65233539.5
2014-Oct-16 18:27N 30°25' E 122°27'6903134.3
2014-Oct-16 18:14N 22°10' E 113°32'107628071.2
2014-Oct-16 18:12N 38°43' E 121°34'1265227.3
2014-Oct-16 18:10N 36°40' E 122°14'9351510.7
2014-Oct-16 17:33N 23°04' E 113°29'975195020.7
2014-Oct-16 17:33N 37°48' E 121°27'216790.0
2014-Oct-16 17:33N 37°42' E 121°52'102894865.4
2014-Oct-16 17:32N 22°10' E 113°32'69427472.4
2014-Oct-16 17:31N 32°01' E 120°22'65419470.2
2014-Oct-16 17:29N 22°55' E 113°35'439023.0
2014-Oct-16 17:28N 22°12' E 113°34'68717782.4
2014-Oct-16 17:26N 30°25' E 122°27'692686.3
2014-Oct-16 17:25N 31°16' E 121°33'6537893.2
2014-Oct-16 17:20N 23°04' E 113°29'102813164.6
2014-Oct-16 17:15N 38°43' E 121°37'4032212.9
2014-Oct-16 17:04N 32°02' E 120°45'6621297.1
2014-Oct-16 16:33N 23°04' E 113°29'65242681.6
2014-Oct-16 16:32N 30°25' E 122°27'690190950.4
2014-Oct-16 16:32N 22°10' E 113°32'69427472.4
2014-Oct-16 16:31N 32°01' E 120°22'7488562.3
2014-Oct-16 16:31N 31°20' E 121°33'6705386.9
2014-Oct-16 16:23N 22°38' E 113°41'29479.8
2014-Oct-16 16:20N 23°04' E 113°29'97921753.4
2014-Oct-16 16:17N 37°44' E 121°48'985236455.2
2014-Oct-16 16:17N 22°55' E 113°35'66759990.7
2014-Oct-16 16:16N 32°02' E 120°45'68460094.4
2014-Oct-16 16:15N 22°27' E 113°47'19402.4
2014-Oct-16 16:12N 22°12' E 113°34'70412607.0
2014-Oct-16 16:09N 31°59' E 120°51'124209.0
2014-Oct-16 15:33N 30°25' E 122°27'7530043.4
2014-Oct-16 15:33N 31°22' E 121°30'656147656.6
2014-Oct-16 15:33N 23°04' E 113°29'978880446.9
2014-Oct-16 15:33N 37°44' E 121°45'998513312.5
2014-Oct-16 15:33N 22°38' E 113°41'292747.7
2014-Oct-16 15:32N 22°10' E 113°32'69428408.8
2014-Oct-16 15:31N 32°01' E 120°22'20431.8
2014-Oct-16 15:28N 32°02' E 120°45'6460.3
2014-Oct-16 15:27N 31°59' E 120°51'70436223.2
2014-Oct-16 15:26N 22°11' E 113°35'19245.2
2014-Oct-16 15:21N 22°27' E 113°47'411416.7
2014-Oct-16 15:20N 23°04' E 113°29'652847.9
2014-Oct-16 14:33N 30°25' E 122°27'652469492.1
2014-Oct-16 14:33N 23°04' E 113°29'4173419.3
2014-Oct-16 14:33N 22°27' E 113°47'221144.0
2014-Oct-16 14:32N 22°10' E 113°32'1026194429.3
2014-Oct-16 14:32N 37°45' E 121°40'977206953.4
2014-Oct-16 14:32N 23°04' E 113°29'65044967.2
2014-Oct-16 14:31N 32°01' E 120°22'66612620.8
2014-Oct-16 14:28N 22°38' E 113°41'27442.1
2014-Oct-16 14:24N 22°12' E 113°35'7047154.6
2014-Oct-16 14:18N 32°02' E 120°45'4357.3
2014-Oct-16 13:33N 32°07' E 119°55'3481254035.6
2014-Oct-16 13:33N 37°44' E 121°43'998276242.7
2014-Oct-16 13:33N 22°38' E 113°41'2910313.8
2014-Oct-16 13:33N 23°04' E 113°29'543743.8
2014-Oct-16 13:32N 22°10' E 113°32'276992620.7
2014-Oct-16 13:32N 23°50' E 118°11'26327804.5
2014-Oct-16 13:32N 23°04' E 113°29'65044118.7
2014-Oct-16 13:31N 32°01' E 120°22'1444498.9
2014-Oct-16 13:29N 30°25' E 122°27'190210265.6
2014-Oct-16 13:18N 00°01' E 113°11'138277760.6
2014-Oct-16 13:17N 23°03' E 113°25'66524691.4
2014-Oct-16 13:15N 32°02' E 120°45'68417230.7
2014-Oct-16 13:13N 22°27' E 113°47'191252.5
2014-Oct-16 13:12N 22°12' E 113°35'432163.0
2014-Oct-16 13:10N 22°55' E 113°35'1118.0
2014-Oct-16 12:33N 23°04' E 113°29'977219837.7
2014-Oct-16 12:33N 37°44' E 121°42'102667149.9
2014-Oct-16 12:32N 22°10' E 113°32'69057728.8
2014-Oct-16 12:31N 30°25' E 122°27'14411497.3
2014-Oct-16 12:31N 32°01' E 120°22'673201841.0
2014-Oct-16 12:30N 22°27' E 113°47'68476994.6
2014-Oct-16 12:30N 32°02' E 120°45'50749290.3
2014-Oct-16 12:29N 23°53' E 118°15'50641408.5
2014-Oct-16 12:29N 32°04' E 120°31'299475.8
2014-Oct-16 12:28N 32°02' E 119°57'523955.0
2014-Oct-16 12:28N 31°47' E 120°55'41723450.0
2014-Oct-16 12:27N 38°43' E 121°30'58177.0
2014-Oct-16 12:07N 37°47' E 121°48'712.3
2014-Oct-16 11:33N 37°44' E 121°40'977703116.3
2014-Oct-16 11:33N 23°04' E 113°29'654168126.6
2014-Oct-16 11:33N 32°03' E 120°26'35039366.3
2014-Oct-16 11:33N 37°47' E 121°45'1030148326.0
2014-Oct-16 11:32N 22°10' E 113°32'69428735.3
2014-Oct-16 11:31N 32°01' E 120°22'49981641.1
2014-Oct-16 11:30N 23°54' E 118°16'50564880.4
2014-Oct-16 11:30N 32°02' E 120°45'66282168.8
2014-Oct-16 11:29N 23°04' E 113°29'532330.1
2014-Oct-16 11:28N 22°12' E 113°35'68714289.1
2014-Oct-16 11:25N 30°25' E 122°27'1554246.5
2014-Oct-16 11:23N 31°58' E 120°03'6435949.8
2014-Oct-16 11:16N 22°55' E 113°35'1115.5
2014-Oct-16 10:33N 23°04' E 113°29'644165696.0
2014-Oct-16 10:33N 31°57' E 120°17'687824169.0
2014-Oct-16 10:33N 22°11' E 113°35'695312600.8
2014-Oct-16 10:33N 31°22' E 121°29'38353037.0
2014-Oct-16 10:32N 37°45' E 121°37'35060067.0
2014-Oct-16 10:32N 32°00' E 120°22'139.0
2014-Oct-16 10:31N 32°01' E 120°22'132690.3
2014-Oct-16 10:30N 31°57' E 120°08'15028478.8
2014-Oct-16 10:30N 30°25' E 122°27'66814834.9
2014-Oct-16 10:27N 22°27' E 113°47'203820.3
2014-Oct-16 10:27N 22°11' E 113°34'54250.3
2014-Oct-16 10:14N 23°04' E 113°29'5580.1
2014-Oct-16 09:33N 22°10' E 113°36'5517891.1
2014-Oct-16 09:33N 23°04' E 113°29'6412307041.5
2014-Oct-16 09:33N 31°56' E 120°12'646101105.0
2014-Oct-16 09:33N 23°02' E 113°22'256346.8
2014-Oct-16 09:32N 22°43' E 113°40'65632793.0
2014-Oct-16 09:31N 31°57' E 120°16'35785747.3
2014-Oct-16 09:31N 37°47' E 121°43'35290578.5
2014-Oct-16 09:31N 32°01' E 120°22'65026877.4
2014-Oct-16 09:29N 23°04' E 113°29'65221538.7
2014-Oct-16 09:27N 30°25' E 122°27'44151197.3
2014-Oct-16 09:27N 37°44' E 121°38'38226454.8
2014-Oct-16 09:26N 31°22' E 121°29'55231.5
2014-Oct-16 09:12N 32°02' E 120°45'2919513.0
2014-Oct-16 09:10N 36°41' E 122°22'98530298.1
2014-Oct-16 09:08N 22°10' E 113°34'5494.1
2014-Oct-16 08:33N 23°04' E 113°29'975389965.2
2014-Oct-16 08:33N 37°44' E 121°35'97590011.5
2014-Oct-16 08:33N 23°05' E 113°27'552566.5
2014-Oct-16 08:31N 22°10' E 113°31'1028127568.6
2014-Oct-16 08:31N 37°47' E 121°38'352105565.4
2014-Oct-16 08:31N 32°01' E 120°22'1449076.8
2014-Oct-16 08:30N 30°25' E 122°27'11333960.3
2014-Oct-16 08:30N 31°47' E 120°55'371612.6
2014-Oct-16 08:28N 31°56' E 120°14'741.1
2014-Oct-16 08:18N 31°58' E 120°21'65117767.7
2014-Oct-16 08:16N 22°55' E 113°35'6679158.8
2014-Oct-16 08:12N 32°02' E 120°45'67740617.6
2014-Oct-16 08:11N 22°45' E 113°31'20209.3
2014-Oct-16 08:05N 23°04' E 113°29'0 0.3
2014-Oct-16 07:33N 23°04' E 113°29'64780267.0
2014-Oct-16 07:33N 31°58' E 120°21'35190334.3
2014-Oct-16 07:32N 37°44' E 121°33'35816131.6
2014-Oct-16 07:31N 31°47' E 120°55'361162551.3
2014-Oct-16 07:31N 37°47' E 121°27'347124861.7
2014-Oct-16 07:31N 32°02' E 120°45'2017649.0
2014-Oct-16 07:31N 32°01' E 120°22'65026273.8
2014-Oct-16 07:29N 23°04' E 113°29'977103481.4
2014-Oct-16 07:29N 38°54' E 117°56'4286214.8
2014-Oct-16 07:25N 31°59' E 120°01'1155.8
2014-Oct-16 07:13N 31°56' E 120°13'64756779.4
2014-Oct-16 07:12N 22°55' E 113°35'631567639.3
2014-Oct-16 07:12N 29°53' E 122°22'629967.8
2014-Oct-16 06:33N 23°04' E 113°29'973700626.3
2014-Oct-16 06:33N 37°42' E 121°36'99677915.6
2014-Oct-16 06:33N 22°31' E 113°51'664108670.3
2014-Oct-16 06:32N 31°58' E 120°21'3130.6
2014-Oct-16 06:31N 32°01' E 120°22'65026571.9
2014-Oct-16 06:29N 23°04' E 113°29'639209172.2
2014-Oct-16 06:29N 31°58' E 120°06'64440683.7
2014-Oct-16 06:28N 22°55' E 113°35'973291941.1
2014-Oct-16 06:28N 37°44' E 121°14'35718369.0
2014-Oct-16 06:27N 31°47' E 120°55'6747632.3
2014-Oct-16 06:21N 22°48' E 113°19'67550648.4
2014-Oct-16 06:21N 31°60' E 120°38'2329.6
2014-Oct-16 05:33N 31°57' E 120°11'6411153500.5
2014-Oct-16 05:33N 23°04' E 113°29'324166390.0
2014-Oct-16 05:33N 24°48' E 119°04'43920275.7
2014-Oct-16 05:32N 32°01' E 120°32'345138105.2
2014-Oct-16 05:32N 37°42' E 121°39'34717580.8
2014-Oct-16 05:31N 32°01' E 120°22'1734398.0
2014-Oct-16 05:28N 29°47' E 122°30'1715549.5
2014-Oct-16 05:26N 31°58' E 120°21'786.3
2014-Oct-16 05:22N 31°56' E 120°13'6428370.3
2014-Oct-16 05:17N 23°04' E 113°29'1193.7
2014-Oct-16 05:10N 22°55' E 113°35'66060913.9
2014-Oct-16 05:09N 31°21' E 121°31'57747.8
2014-Oct-16 05:05N 32°02' E 120°45'2547.2
2014-Oct-16 04:34N 31°57' E 120°16'644772390.7
2014-Oct-16 04:33N 23°04' E 113°29'642330013.7
2014-Oct-16 04:33N 31°56' E 120°13'73463.8
2014-Oct-16 04:33N 31°58' E 120°21'350114428.8
2014-Oct-16 04:33N 37°42' E 121°35'974233842.0
2014-Oct-16 04:33N 23°01' E 113°31'65381052.1
2014-Oct-16 04:32N 32°01' E 120°25'3120.7
2014-Oct-16 04:31N 32°01' E 120°22'672127253.9
2014-Oct-16 04:30N 22°25' E 113°54'462315.3
2014-Oct-16 04:29N 23°04' E 113°29'6627446.6
2014-Oct-16 04:24N 32°02' E 120°45'66720866.5
2014-Oct-16 04:22N 22°55' E 113°35'6627791.0
2014-Oct-16 04:17N 31°24' E 121°31'67214235.2
2014-Oct-16 04:14N 22°31' E 113°52'26186.2
2014-Oct-16 04:06N 22°51' E 113°34'6551223.1
2014-Oct-16 03:33N 31°58' E 120°20'35054791.1
2014-Oct-16 03:33N 37°43' E 121°33'348626976.1
2014-Oct-16 03:33N 31°59' E 120°21'65862324.1
2014-Oct-16 03:32N 22°55' E 113°25'101815.6
2014-Oct-16 03:32N 23°04' E 113°29'65027837.1
2014-Oct-16 03:31N 32°01' E 120°22'69473477.9
2014-Oct-16 03:30N 22°11' E 113°32'68631675.7
2014-Oct-16 03:29N 31°56' E 120°14'64742328.0
2014-Oct-16 03:28N 22°55' E 113°35'651167525.8
2014-Oct-16 03:28N 31°58' E 120°21'64726156.0
2014-Oct-16 03:26N 23°04' E 113°29'9404059.0
2014-Oct-16 03:12N 36°43' E 122°23'96113511.6
2014-Oct-16 03:08N 22°31' E 113°52'3967.9
2014-Oct-16 02:33N 23°04' E 113°29'103105.2
2014-Oct-16 02:33N 22°54' E 113°29'983589663.9
2014-Oct-16 02:33N 37°42' E 121°37'345207094.9
2014-Oct-16 02:33N 32°02' E 120°26'2934219.1
2014-Oct-16 02:33N 31°47' E 120°55'361885.9
2014-Oct-16 02:32N 31°56' E 120°14'68482062.9
2014-Oct-16 02:31N 22°10' E 113°38'68888519.9
2014-Oct-16 02:31N 31°58' E 120°21'31214.6
2014-Oct-16 02:31N 32°01' E 120°22'66812784.2
2014-Oct-16 02:28N 22°30' E 113°51'40229.5
2014-Oct-16 02:17N 23°04' E 113°29'6526050.8
2014-Oct-16 02:11N 30°25' E 122°27'65717511.5
2014-Oct-16 02:08N 22°57' E 113°30'569.6
2014-Oct-16 02:04N 22°55' E 113°35'1121.9
2014-Oct-16 01:33N 23°04' E 113°29'311453.7
2014-Oct-16 01:33N 23°02' E 113°31'65354650.4
2014-Oct-16 01:33N 30°25' E 122°27'1469921.3
2014-Oct-16 01:32N 31°56' E 120°13'161144.2
2014-Oct-16 01:31N 32°02' E 120°31'81790.6
2014-Oct-16 01:31N 32°01' E 120°22'685205487.8
2014-Oct-16 01:31N 22°15' E 113°43'68219331.4
2014-Oct-16 01:28N 31°58' E 120°21'3492033.5
2014-Oct-16 01:18N 37°40' E 121°42'97463735.3
2014-Oct-16 01:17N 23°04' E 113°29'65616502.3
2014-Oct-16 01:15N 31°47' E 120°55'111.1
2014-Oct-16 01:11N 31°47' E 120°55'2134.2
2014-Oct-16 00:34N 32°01' E 120°36'2138584.9
2014-Oct-16 00:33N 31°47' E 120°55'656786936.8
2014-Oct-16 00:33N 23°04' E 113°29'649212558.4
2014-Oct-16 00:33N 32°01' E 120°22'3246.7
2014-Oct-16 00:32N 31°58' E 120°21'794.4
2014-Oct-16 00:28N 31°56' E 120°14'36278.0
2014-Oct-16 00:20N 31°47' E 120°55'3240.1
2014-Oct-15 23:33N 32°00' E 120°21'322269.5
2014-Oct-15 23:32N 31°47' E 120°55'6601187387.8
2014-Oct-15 23:32N 22°57' E 113°33'651146497.2
2014-Oct-15 23:32N 31°58' E 120°21'15819.6
2014-Oct-15 23:31N 32°00' E 120°39'65871758.7
2014-Oct-15 23:30N 23°04' E 113°29'066.6
2014-Oct-15 23:30N 23°04' E 113°29'65645405.0
2014-Oct-15 23:30N 31°47' E 120°55'37507.8
2014-Oct-15 23:25N 31°56' E 120°14'306862.7
2014-Oct-15 23:04N 36°43' E 122°21'296577.2
2014-Oct-15 22:33N 32°02' E 120°30'9339.9
2014-Oct-15 22:32N 32°00' E 120°40'161693.4
2014-Oct-15 22:31N 31°58' E 120°21'64722383.9
2014-Oct-15 22:29N 23°04' E 113°29'111328.4
2014-Oct-15 22:29N 22°55' E 113°36'659182614.4
2014-Oct-15 22:28N 31°47' E 120°55'377352.6
2014-Oct-15 22:28N 31°56' E 120°14'642288958.6
2014-Oct-15 22:28N 23°03' E 113°30'163.0
2014-Oct-15 22:27N 23°04' E 113°29'65643738.1
2014-Oct-15 22:26N 32°00' E 120°36'13453797.7
2014-Oct-15 22:26N 30°25' E 122°27'762132.0
2014-Oct-15 22:24N 31°22' E 121°28'385081.5
2014-Oct-15 22:23N 31°47' E 120°55'3036.3
2014-Oct-15 21:34N 31°58' E 120°21'647465570.5
2014-Oct-15 21:33N 23°04' E 113°29'6561180389.3
2014-Oct-15 21:33N 31°47' E 120°55'30619352.9
2014-Oct-15 21:32N 36°43' E 122°28'3084001.7
2014-Oct-15 21:28N 31°56' E 120°14'191319.5
2014-Oct-15 21:27N 32°01' E 120°35'22103.3
2014-Oct-15 21:14N 31°47' E 120°55'114168.0
2014-Oct-15 20:33N 30°25' E 122°27'387174099.1
2014-Oct-15 20:33N 36°52' E 122°28'950311029.6
2014-Oct-15 20:33N 23°04' E 113°29'647775932.6
2014-Oct-15 20:33N 31°58' E 120°21'206655.5
2014-Oct-15 20:33N 32°02' E 120°45'171303.8
2014-Oct-15 20:32N 31°47' E 120°55'160.6
2014-Oct-15 20:31N 31°47' E 120°55'37619.5
2014-Oct-15 20:28N 31°56' E 120°14'64223575.3
2014-Oct-15 20:26N 23°04' E 113°29'65720202.9
2014-Oct-15 20:24N 32°01' E 120°35'14569.4
2014-Oct-15 20:23N 31°59' E 120°51'66311098.4
2014-Oct-15 20:19N 23°04' E 113°30'646842.0
2014-Oct-15 19:33N 31°58' E 120°21'78024.8
2014-Oct-15 19:33N 31°56' E 120°14'3339657.3
2014-Oct-15 19:33N 31°56' E 120°53'9652.1
2014-Oct-15 19:32N 31°47' E 120°55'1149097.3
2014-Oct-15 19:31N 30°25' E 122°27'1138853.9
2014-Oct-15 19:31N 31°47' E 120°55'65627452.1
2014-Oct-15 19:29N 23°04' E 113°29'0126.8
2014-Oct-15 19:29N 23°04' E 113°29'65739392.5
2014-Oct-15 19:28N 32°01' E 120°35'989.8
2014-Oct-15 19:22N 32°02' E 120°45'66324604.2
2014-Oct-15 19:21N 23°05' E 113°27'13910.4
2014-Oct-15 19:20N 22°59' E 113°39'646833.4
2014-Oct-15 18:33N 31°58' E 120°21'64729465.3
2014-Oct-15 18:32N 23°04' E 113°29'659474806.6
2014-Oct-15 18:32N 31°53' E 120°54'185495.4
2014-Oct-15 18:32N 32°01' E 120°35'2341226.0
2014-Oct-15 18:32N 31°47' E 120°55'37468.5
2014-Oct-15 18:27N 31°56' E 120°14'35274470.6
2014-Oct-15 18:27N 37°40' E 121°42'34210520.0
2014-Oct-15 18:25N 32°02' E 120°45'6189.8
2014-Oct-15 18:23N 31°59' E 120°51'663170591.2
2014-Oct-15 18:23N 23°05' E 113°27'13906.8
2014-Oct-15 18:22N 22°59' E 113°39'65434637.6
2014-Oct-15 18:21N 31°47' E 120°55'68613135.2
2014-Oct-15 18:18N 22°19' E 113°42'47838.8
2014-Oct-15 18:14N 23°04' E 113°29'66270114.3
2014-Oct-15 18:14N 32°02' E 120°45'1304992.0
2014-Oct-15 18:12N 30°25' E 122°27'6525024.2
2014-Oct-15 18:04N 23°04' E 113°30'6461246.5
2014-Oct-15 17:33N 31°58' E 120°21'647775920.5
2014-Oct-15 17:33N 23°04' E 113°29'66333149.7
2014-Oct-15 17:32N 31°59' E 120°51'141024.8
2014-Oct-15 17:31N 32°01' E 120°35'69429752.6
2014-Oct-15 17:30N 22°14' E 113°39'6948084.9
2014-Oct-15 17:25N 31°49' E 120°55'298.0
2014-Oct-15 17:23N 31°47' E 120°55'1145686.1
2014-Oct-15 17:22N 30°25' E 122°27'6496229.9
2014-Oct-15 17:16N 22°59' E 113°39'13612.7
2014-Oct-15 17:15N 23°05' E 113°27'34693.6
2014-Oct-15 17:12N 22°37' E 113°06'100714923.8
2014-Oct-15 17:08N 37°41' E 121°42'974159388.8
2014-Oct-15 17:07N 23°04' E 113°30'122.0
2014-Oct-15 17:05N 23°04' E 113°29'0 0.3
2014-Oct-15 16:33N 23°04' E 113°29'657196961.2
2014-Oct-15 16:33N 32°01' E 120°35'124819.8
2014-Oct-15 16:33N 31°58' E 120°21'64768502.2
2014-Oct-15 16:33N 23°05' E 113°27'656196772.6
2014-Oct-15 16:32N 31°47' E 120°55'122005.1
2014-Oct-15 16:32N 31°59' E 120°51'132589.8
2014-Oct-15 16:32N 31°47' E 120°57'65776276.0
2014-Oct-15 16:31N 23°04' E 113°30'662125386.5
2014-Oct-15 16:31N 32°02' E 120°45'2316435.8
2014-Oct-15 16:31N 31°57' E 120°18'68729088.9
2014-Oct-15 16:29N 22°12' E 113°34'696278520.4
2014-Oct-15 16:29N 31°47' E 120°55'1135989.2
2014-Oct-15 16:28N 30°25' E 122°27'649111247.8
2014-Oct-15 16:28N 22°59' E 113°39'97528082.8
2014-Oct-15 16:26N 37°41' E 121°42'3615057.1
2014-Oct-15 16:21N 31°41' E 121°11'6592452.4
2014-Oct-15 16:05N 23°04' E 113°29'1 2.8
2014-Oct-15 15:33N 23°05' E 113°27'43770.7
2014-Oct-15 15:33N 23°02' E 113°24'6512343940.6
2014-Oct-15 15:33N 31°58' E 120°21'35089964.9
2014-Oct-15 15:33N 37°41' E 121°41'35820782.8
2014-Oct-15 15:32N 31°44' E 121°05'315561.8
2014-Oct-15 15:31N 32°01' E 120°35'272339.6
2014-Oct-15 15:31N 31°47' E 121°02'65926363.0
2014-Oct-15 15:29N 23°04' E 113°29'139.4
2014-Oct-15 15:28N 23°04' E 113°30'6526428.2
2014-Oct-15 15:22N 30°25' E 122°27'68735829.7
2014-Oct-15 15:21N 22°12' E 113°34'69678347.7
2014-Oct-15 15:20N 31°47' E 120°55'65417192.4
2014-Oct-15 15:18N 22°59' E 113°39'64455207.1
2014-Oct-15 15:17N 31°57' E 120°18'33953.0
2014-Oct-15 15:15N 31°47' E 120°55'3144.4
2014-Oct-15 14:33N 31°58' E 120°21'14220410.9
2014-Oct-15 14:33N 30°25' E 122°27'687176535.7
2014-Oct-15 14:33N 22°11' E 113°35'5448239.3
2014-Oct-15 14:33N 23°03' E 113°19'66291601.2
2014-Oct-15 14:32N 31°47' E 120°55'228024.1
2014-Oct-15 14:32N 32°01' E 120°35'315291.7
2014-Oct-15 14:32N 31°45' E 121°06'91599.4
2014-Oct-15 14:31N 31°47' E 120°55'35818659.9
2014-Oct-15 14:30N 37°42' E 121°43'35222635.3
2014-Oct-15 14:29N 31°57' E 120°18'5003542.3
2014-Oct-15 14:21N 23°50' E 118°10'2624304.2
2014-Oct-15 14:17N 23°04' E 113°29'137.3
2014-Oct-15 14:16N 23°04' E 113°30'9741360.1
2014-Oct-15 13:33N 37°42' E 121°39'36186659.8
2014-Oct-15 13:33N 31°42' E 121°09'131545.2
2014-Oct-15 13:32N 31°47' E 120°55'32116491.5
2014-Oct-15 13:32N 31°57' E 120°18'2231.1
2014-Oct-15 13:32N 31°58' E 120°21'64666491.6
2014-Oct-15 13:31N 23°04' E 113°30'120.8
2014-Oct-15 13:29N 23°04' E 113°29'53745.0
2014-Oct-15 13:25N 22°11' E 113°35'69792870.1
2014-Oct-15 13:24N 31°47' E 120°55'4954604.8
2014-Oct-15 13:18N 23°53' E 118°14'4654427.2
2014-Oct-15 13:12N 30°44' E 122°17'419651.7
2014-Oct-15 12:33N 37°42' E 121°38'345207155.1
2014-Oct-15 12:33N 32°02' E 120°30'44159177.8
2014-Oct-15 12:33N 31°39' E 121°14'192153.2
2014-Oct-15 12:32N 31°47' E 120°55'301555.6
2014-Oct-15 12:31N 31°58' E 120°21'689103329.1
2014-Oct-15 12:31N 22°11' E 113°35'53674.3
2014-Oct-15 12:26N 23°04' E 113°29'6526765.5
2014-Oct-15 12:20N 30°25' E 122°27'1432866.8
2014-Oct-15 12:17N 31°57' E 120°18'64531371.8
2014-Oct-15 12:16N 23°04' E 113°29'652914.9
2014-Oct-15 11:33N 30°25' E 122°27'439526890.3
2014-Oct-15 11:33N 37°42' E 121°39'35157354.6
2014-Oct-15 11:33N 31°58' E 120°20'1214.1
2014-Oct-15 11:33N 31°58' E 120°21'3012079.0
2014-Oct-15 11:33N 31°47' E 120°55'65611624.7
2014-Oct-15 11:29N 23°04' E 113°29'66221477.3
2014-Oct-15 11:27N 31°59' E 120°49'66217791.3
2014-Oct-15 11:25N 23°04' E 113°29'5319127.4
2014-Oct-15 11:25N 22°11' E 113°35'6997858.3
2014-Oct-15 11:20N 31°33' E 121°20'52602.0
2014-Oct-15 11:14N 32°02' E 120°30'346481.3
2014-Oct-15 10:31N 37°43' E 121°36'35871521.9
2014-Oct-15 10:31N 31°47' E 120°56'65620904.7
2014-Oct-15 10:29N 23°04' E 113°29'64722822.2
2014-Oct-15 10:28N 31°58' E 120°21'623763.5
2014-Oct-15 10:27N 31°30' E 121°26'43608.5
2014-Oct-15 10:22N 31°59' E 120°49'12615150.3
2014-Oct-15 10:22N 30°25' E 122°27'6864153.3
2014-Oct-15 10:12N 22°11' E 113°35'10201592.3
2014-Oct-15 09:33N 37°43' E 121°36'354254875.3
2014-Oct-15 09:33N 31°57' E 120°06'3616285.6
2014-Oct-15 09:33N 31°60' E 120°49'2417317.2
2014-Oct-15 09:33N 31°58' E 120°20'195.2
2014-Oct-15 09:32N 31°58' E 120°21'378432.6
2014-Oct-15 09:32N 31°46' E 121°03'10843251.2
2014-Oct-15 09:32N 30°25' E 122°27'763005.2
2014-Oct-15 09:31N 31°25' E 121°32'661125211.0
2014-Oct-15 09:30N 23°02' E 113°31'507871.0
2014-Oct-15 09:30N 22°11' E 113°35'53673.2
2014-Oct-15 09:25N 23°04' E 113°29'65430580.3
2014-Oct-15 09:24N 32°02' E 120°30'6542106.1
2014-Oct-15 09:05N 23°04' E 113°29'6461202.1
2014-Oct-15 08:33N 31°58' E 120°20'351180501.7
2014-Oct-15 08:33N 37°43' E 121°36'3621303593.3
2014-Oct-15 08:33N 31°42' E 121°10'4419732.6
2014-Oct-15 08:33N 31°58' E 120°21'772195.6
2014-Oct-15 08:31N 31°20' E 121°41'6834811.4
2014-Oct-15 08:30N 30°25' E 122°27'653213659.1
2014-Oct-15 08:30N 23°02' E 113°31'65246055.8
2014-Oct-15 08:29N 32°01' E 120°25'651585902.5
2014-Oct-15 08:29N 23°04' E 113°29'0 2.9
2014-Oct-15 08:26N 23°04' E 113°29'53384.8
2014-Oct-15 08:18N 22°11' E 113°35'10201376.9
2014-Oct-15 07:33N 37°43' E 121°35'365438304.5
2014-Oct-15 07:33N 31°38' E 121°16'517364.8
2014-Oct-15 07:33N 31°58' E 120°20'646332465.2
2014-Oct-15 07:33N 23°04' E 113°29'642144498.4
2014-Oct-15 07:33N 31°56' E 120°15'1433961.1
2014-Oct-15 07:30N 30°24' E 122°23'65731971.8
2014-Oct-15 07:29N 22°55' E 113°27'66513145.3
2014-Oct-15 07:26N 31°47' E 120°55'69618709.4
2014-Oct-15 07:24N 22°11' E 113°35'45343.4
2014-Oct-15 07:16N 22°57' E 113°37'11357.9
2014-Oct-15 07:14N 23°04' E 113°29'647952.9
2014-Oct-15 06:33N 31°58' E 120°21'35136110.0
2014-Oct-15 06:33N 37°43' E 121°39'35223474.2
2014-Oct-15 06:32N 31°57' E 120°18'5841595.7
2014-Oct-15 06:32N 31°34' E 121°20'69996751.9
2014-Oct-15 06:31N 22°11' E 113°35'27932366.1
2014-Oct-15 06:31N 23°55' E 118°16'50115291.1
2014-Oct-15 06:29N 32°02' E 120°31'6557652.3
2014-Oct-15 06:24N 23°04' E 113°29'64512342.2
2014-Oct-15 06:21N 30°23' E 122°17'721412.3
2014-Oct-15 06:18N 31°21' E 121°26'847197.5
2014-Oct-15 06:17N 30°02' E 121°59'61813412.9
2014-Oct-15 06:14N 23°04' E 113°29'9859284.7
2014-Oct-15 06:08N 39°05' E 117°46'10331802.0
2014-Oct-15 05:33N 22°13' E 113°40'650111426.9
2014-Oct-15 05:33N 30°00' E 122°04'621159615.6
2014-Oct-15 05:33N 23°04' E 113°29'977502388.0
2014-Oct-15 05:33N 37°44' E 121°41'34918757.4
2014-Oct-15 05:32N 32°01' E 120°25'4347.0
2014-Oct-15 05:31N 31°58' E 120°21'64824305.0
2014-Oct-15 05:29N 23°02' E 113°31'64611630.4
2014-Oct-15 05:26N 31°57' E 120°18'44523920.7
2014-Oct-15 05:25N 39°05' E 117°47'99625256.8
2014-Oct-15 05:22N 22°53' E 113°31'66670511.6
2014-Oct-15 05:22N 31°29' E 121°24'891.1
2014-Oct-15 05:17N 31°23' E 121°30'4762530.6
2014-Oct-15 05:05N 23°58' E 118°19'8451528.6
2014-Oct-15 04:32N 37°45' E 121°38'843189676.1
2014-Oct-15 04:32N 23°59' E 118°21'489879815.9
2014-Oct-15 04:32N 31°57' E 120°18'677121797.5
2014-Oct-15 04:32N 22°18' E 113°44'679128569.8
2014-Oct-15 04:31N 31°58' E 120°21'65119379.8
2014-Oct-15 04:29N 23°02' E 113°24'53295.4
2014-Oct-15 04:29N 23°04' E 113°29'62334506.5
2014-Oct-15 04:28N 29°59' E 122°08'1519364.3
2014-Oct-15 04:27N 31°57' E 120°18'68945.0
2014-Oct-15 04:23N 31°26' E 121°29'4104.6
2014-Oct-15 04:20N 31°22' E 121°30'6574365.3
2014-Oct-15 04:11N 23°01' E 113°31'6421016.1
2014-Oct-15 03:33N 31°56' E 120°12'35616854.0
2014-Oct-15 03:32N 37°44' E 121°42'353115659.1
2014-Oct-15 03:32N 31°57' E 120°18'3319.4
2014-Oct-15 03:31N 31°58' E 120°21'64817811.0
2014-Oct-15 03:29N 23°01' E 113°31'395458.9
2014-Oct-15 03:29N 22°25' E 113°46'421218.4
2014-Oct-15 03:27N 23°04' E 113°30'656124272.1
2014-Oct-15 03:26N 31°47' E 120°56'656147577.9
2014-Oct-15 03:26N 23°04' E 113°29'62333983.7
2014-Oct-15 03:25N 29°59' E 122°08'6537577.8
2014-Oct-15 03:20N 22°17' E 113°35'693155833.2
2014-Oct-15 03:20N 31°30' E 121°24'6777295.1
2014-Oct-15 03:14N 22°24' E 113°54'338.8
2014-Oct-15 03:09N 22°28' E 113°54'6819044.4
2014-Oct-15 03:05N 32°02' E 120°45'511831.0
2014-Oct-15 03:03N 31°26' E 121°29'67132.4
2014-Oct-15 02:33N 31°57' E 120°18'3191.7
2014-Oct-15 02:32N 31°58' E 120°21'14918545.8
2014-Oct-15 02:31N 29°59' E 122°08'623131870.9
2014-Oct-15 02:31N 23°04' E 113°30'5010498.2
2014-Oct-15 02:31N 22°15' E 113°36'47383.4
2014-Oct-15 02:23N 23°01' E 113°31'331.9
2014-Oct-15 02:17N 23°04' E 113°29'97714064.3
2014-Oct-15 02:13N 37°42' E 121°47'3472055.7
2014-Oct-15 02:03N 31°60' E 120°35'6751354.5
2014-Oct-15 01:33N 22°28' E 113°54'10001199753.0
2014-Oct-15 01:33N 37°39' E 121°48'34966143.3
2014-Oct-15 01:33N 31°58' E 120°21'10334.5
2014-Oct-15 01:31N 32°01' E 120°32'157655.9
2014-Oct-15 01:31N 31°57' E 120°15'2179.7
2014-Oct-15 01:30N 31°57' E 120°18'1517039.3
2014-Oct-15 01:29N 29°59' E 122°08'62314106.5
2014-Oct-15 01:26N 23°04' E 113°29'1 9.9
2014-Oct-15 01:22N 23°04' E 113°30'64111892.9
2014-Oct-15 01:19N 31°57' E 120°11'2399.9
2014-Oct-15 01:05N 31°60' E 120°39'1833.5
2014-Oct-15 00:33N 31°57' E 120°18'2377.0
2014-Oct-15 00:33N 31°57' E 120°16'161723.3
2014-Oct-15 00:32N 32°00' E 120°35'34319315.3
2014-Oct-15 00:31N 37°38' E 121°50'34818427.3
2014-Oct-15 00:30N 31°58' E 120°21'81352.5
2014-Oct-15 00:30N 31°57' E 120°12'8312.7
2014-Oct-15 00:28N 31°60' E 120°21'20540.8
2014-Oct-15 00:26N 32°02' E 120°45'6802715.1
2014-Oct-15 00:11N 22°28' E 113°54'67319084.8
2014-Oct-15 00:09N 31°47' E 120°56'2745.8
2014-Oct-14 23:34N 32°02' E 120°29'71001.4
2014-Oct-14 23:33N 31°60' E 120°22'41074.5
2014-Oct-14 23:33N 32°03' E 120°25'829157.7
2014-Oct-14 23:33N 31°58' E 120°18'3124.2
2014-Oct-14 23:31N 31°58' E 120°21'349139517.1
2014-Oct-14 23:31N 37°44' E 121°13'357428704.9
2014-Oct-14 23:31N 31°47' E 120°56'3310914.2
2014-Oct-14 23:31N 31°57' E 120°18'1513097.5
2014-Oct-14 23:28N 29°59' E 122°08'45911727.7
2014-Oct-14 23:26N 37°39' E 121°52'346396.7
2014-Oct-14 22:33N 32°00' E 120°24'312028.3
2014-Oct-14 22:33N 32°02' E 120°27'4287.5
2014-Oct-14 22:33N 32°00' E 120°24'3353.2
2014-Oct-14 22:32N 31°58' E 120°21'11345.3
2014-Oct-14 22:30N 32°04' E 120°31'33915060.8
2014-Oct-14 22:29N 37°36' E 121°54'34822391.9
2014-Oct-14 22:28N 31°57' E 120°18'32312788.3
2014-Oct-14 22:26N 36°59' E 122°38'96145502.0
2014-Oct-14 22:25N 23°04' E 113°29'6232243148.1
2014-Oct-14 22:25N 29°59' E 122°08'6232814.5
2014-Oct-14 22:12N 23°04' E 113°29'6551024.7
2014-Oct-14 21:33N 32°02' E 120°30'41707.9
2014-Oct-14 21:33N 32°01' E 120°34'141884.2
2014-Oct-14 21:33N 31°57' E 120°18'3453.4
2014-Oct-14 21:32N 31°58' E 120°21'14521738.5
2014-Oct-14 21:32N 29°59' E 121°59'6201116356.4
2014-Oct-14 21:32N 23°03' E 113°25'9775670.5
2014-Oct-14 21:22N 37°36' E 121°52'22108.6
2014-Oct-14 21:10N 37°47' E 121°28'72689.2
2014-Oct-14 21:03N 36°52' E 122°28'306601.0
2014-Oct-14 20:33N 32°01' E 120°35'121181.8
2014-Oct-14 20:32N 31°58' E 120°21'6489179.7
2014-Oct-14 20:28N 23°02' E 113°31'97512228.4
2014-Oct-14 20:23N 37°37' E 121°49'33913418.8
2014-Oct-14 20:22N 32°02' E 120°45'6622395.2
2014-Oct-14 20:05N 23°04' E 113°29'6471225.9
2014-Oct-14 19:34N 31°58' E 120°21'3249.4
2014-Oct-14 19:33N 31°57' E 120°18'181762.3
2014-Oct-14 19:32N 32°00' E 120°39'34187754.7
2014-Oct-14 19:32N 37°37' E 121°47'97310004.1
2014-Oct-14 19:26N 23°04' E 113°29'9775909.1
2014-Oct-14 19:16N 37°48' E 121°32'355496.8
2014-Oct-14 18:33N 31°58' E 120°21'34746229.9
2014-Oct-14 18:33N 37°36' E 121°51'974292120.0
2014-Oct-14 18:33N 23°04' E 113°29'5409.3
2014-Oct-14 18:32N 22°60' E 113°31'6476716.8
2014-Oct-14 18:26N 31°57' E 120°18'331252.7
2014-Oct-14 18:25N 31°47' E 120°56'65610178.9
2014-Oct-14 18:21N 23°04' E 113°29'0 1.4
2014-Oct-14 18:14N 23°04' E 113°29'0 3.7
2014-Oct-14 18:13N 23°04' E 113°29'522991.0
2014-Oct-14 18:12N 22°12' E 113°34'1023216569.3
2014-Oct-14 18:12N 37°47' E 121°32'100212273.0
2014-Oct-14 18:07N 22°27' E 113°53'6671173.4
2014-Oct-14 17:33N 31°58' E 120°21'34759506.0
2014-Oct-14 17:32N 37°37' E 121°48'348139311.5
2014-Oct-14 17:32N 31°57' E 120°18'182851.8
2014-Oct-14 17:32N 32°00' E 120°39'19142.2
2014-Oct-14 17:24N 31°47' E 120°56'17213.4
2014-Oct-14 17:19N 32°02' E 120°45'66224823.8
2014-Oct-14 17:17N 23°04' E 113°29'6384521.4
2014-Oct-14 17:09N 31°58' E 120°03'1626.3
2014-Oct-14 16:33N 31°58' E 120°21'15475.4
2014-Oct-14 16:31N 32°00' E 120°39'34114633.5
2014-Oct-14 16:29N 37°37' E 121°50'348139220.2
2014-Oct-14 16:29N 31°57' E 120°18'64533147.4
2014-Oct-14 16:28N 23°04' E 113°29'5416080.9
2014-Oct-14 16:28N 22°11' E 113°36'5181.5
2014-Oct-14 16:26N 22°10' E 113°32'5419493.1
2014-Oct-14 16:26N 23°04' E 113°29'66228036.5
2014-Oct-14 16:25N 32°02' E 120°45'181071.9
2014-Oct-14 16:24N 31°47' E 120°56'65613047.6
2014-Oct-14 16:21N 23°04' E 113°29'9751236.4
2014-Oct-14 15:33N 37°37' E 121°53'35078780.7
2014-Oct-14 15:33N 31°57' E 120°12'64192327.1
2014-Oct-14 15:33N 23°04' E 113°29'978270882.3
2014-Oct-14 15:33N 37°46' E 121°41'34726578.7
2014-Oct-14 15:32N 32°02' E 120°45'2036686.0
2014-Oct-14 15:32N 31°58' E 120°21'155563.3
2014-Oct-14 15:32N 32°00' E 120°39'69483266.9
2014-Oct-14 15:31N 22°15' E 113°41'68124521.9
2014-Oct-14 15:29N 31°57' E 120°18'645178486.2
2014-Oct-14 15:29N 23°04' E 113°29'0 1.7
2014-Oct-14 15:25N 23°04' E 113°29'073.4
2014-Oct-14 15:25N 23°04' E 113°29'54694.4
2014-Oct-14 15:20N 22°10' E 113°32'689877.2
2014-Oct-14 14:33N 31°57' E 120°17'349251344.3
2014-Oct-14 14:33N 37°37' E 121°55'1003601883.2
2014-Oct-14 14:33N 22°25' E 113°53'669481394.4
2014-Oct-14 14:33N 31°58' E 120°21'647290995.2
2014-Oct-14 14:33N 23°04' E 113°29'65884587.8
2014-Oct-14 14:32N 32°00' E 120°39'18374.9
2014-Oct-14 14:29N 31°57' E 120°18'645178479.3
2014-Oct-14 14:29N 23°04' E 113°29'0 3.4
2014-Oct-14 14:28N 23°04' E 113°29'46408.2
2014-Oct-14 14:21N 22°20' E 113°44'10143857.6
2014-Oct-14 14:06N 37°47' E 121°40'350654.9
2014-Oct-14 13:33N 32°00' E 120°39'153285.7
2014-Oct-14 13:33N 32°00' E 120°22'35231654.5
2014-Oct-14 13:33N 37°46' E 121°39'35544015.7
2014-Oct-14 13:32N 31°58' E 120°21'205644.3
2014-Oct-14 13:32N 32°02' E 120°45'340122490.1
2014-Oct-14 13:32N 37°37' E 121°53'97516722.1
2014-Oct-14 13:28N 23°04' E 113°29'64421888.6
2014-Oct-14 13:26N 31°57' E 120°18'65019189.0
2014-Oct-14 13:24N 23°03' E 113°19'91092.8
2014-Oct-14 13:24N 23°04' E 113°29'42467.0
2014-Oct-14 13:18N 22°25' E 113°46'421914.9
2014-Oct-14 13:17N 23°04' E 113°29'0 5.2
2014-Oct-14 13:16N 23°04' E 113°29'66227711.7
2014-Oct-14 13:15N 32°01' E 120°47'3043965.8
2014-Oct-14 13:10N 36°53' E 122°26'67110.3
2014-Oct-14 12:34N 37°46' E 121°34'348626898.5
2014-Oct-14 12:33N 32°02' E 120°28'7817.8
2014-Oct-14 12:33N 31°58' E 120°21'65265189.9
2014-Oct-14 12:32N 23°02' E 113°22'66421349.3
2014-Oct-14 12:30N 32°00' E 120°41'6802448278.2
2014-Oct-14 12:30N 22°28' E 113°48'412154.6
2014-Oct-14 12:29N 23°04' E 113°29'6598122.6
2014-Oct-14 12:24N 31°60' E 120°41'65960817.1
2014-Oct-14 12:24N 23°04' E 113°29'951190248.9
2014-Oct-14 12:24N 36°53' E 122°28'52830.6
2014-Oct-14 12:20N 37°38' E 121°54'34121513.8
2014-Oct-14 12:19N 32°02' E 120°45'6622695.8
2014-Oct-14 12:04N 23°04' E 113°29'4 7.7
2014-Oct-14 11:33N 23°03' E 113°25'659593422.0
2014-Oct-14 11:33N 31°60' E 120°37'24067.7
2014-Oct-14 11:33N 32°01' E 120°35'34962751.3
2014-Oct-14 11:33N 37°47' E 121°29'35450932.8
2014-Oct-14 11:33N 31°58' E 120°21'314161244.6
2014-Oct-14 11:33N 36°53' E 122°30'95385770.7
2014-Oct-14 11:32N 23°02' E 113°31'65839476.4
2014-Oct-14 11:31N 32°03' E 120°33'1011657.3
2014-Oct-14 11:31N 32°02' E 120°45'34132260.2
2014-Oct-14 11:30N 37°38' E 121°52'34926767.8
2014-Oct-14 11:29N 31°57' E 120°18'65313518.9
2014-Oct-14 11:26N 22°50' E 113°35'153893.1
2014-Oct-14 11:26N 23°04' E 113°29'0 4.0
2014-Oct-14 11:25N 23°04' E 113°29'013.9
2014-Oct-14 11:25N 23°04' E 113°29'0 0.8
2014-Oct-14 11:21N 23°04' E 113°29'57205.1
2014-Oct-14 11:04N 22°11' E 113°52'9891903.8
2014-Oct-14 10:33N 36°54' E 122°26'7387190.9
2014-Oct-14 10:33N 37°47' E 121°24'347312205.1
2014-Oct-14 10:33N 32°03' E 120°34'690206988.7
2014-Oct-14 10:33N 22°14' E 113°49'5448746.8
2014-Oct-14 10:33N 23°04' E 113°25'132743.4
2014-Oct-14 10:32N 22°56' E 113°37'112193.5
2014-Oct-14 10:32N 23°04' E 113°29'64728744.9
2014-Oct-14 10:31N 31°58' E 120°21'34910475.6
2014-Oct-14 10:29N 37°38' E 121°56'97781809.3
2014-Oct-14 10:28N 23°04' E 113°29'6448286.3
2014-Oct-14 10:23N 31°57' E 120°18'68521456.2
2014-Oct-14 10:21N 22°13' E 113°35'52718.8
2014-Oct-14 10:17N 23°04' E 113°29'0 5.8
2014-Oct-14 10:16N 23°04' E 113°29'662140195.0
2014-Oct-14 10:16N 32°02' E 120°45'67947949.6
2014-Oct-14 10:15N 22°49' E 113°20'17168.2
2014-Oct-14 10:09N 23°04' E 113°29'9711654.6
2014-Oct-14 09:34N 37°47' E 121°19'34568949.1
2014-Oct-14 09:33N 32°04' E 120°30'656102737.1
2014-Oct-14 09:33N 23°04' E 113°29'64793119.2
2014-Oct-14 09:32N 31°58' E 120°21'25466.1
2014-Oct-14 09:29N 31°59' E 120°50'663340936.1
2014-Oct-14 09:29N 23°04' E 113°29'152780.1
2014-Oct-14 09:29N 22°53' E 113°18'67089308.0
2014-Oct-14 09:28N 32°01' E 120°31'6922490319.9
2014-Oct-14 09:28N 22°16' E 113°36'489662.7
2014-Oct-14 09:28N 23°04' E 113°29'4114717.1
2014-Oct-14 09:28N 22°28' E 113°48'452515.6
2014-Oct-14 09:27N 23°03' E 113°19'9293.8
2014-Oct-14 09:25N 23°04' E 113°29'9778666.4
2014-Oct-14 09:18N 37°38' E 121°56'691486.5
2014-Oct-14 09:15N 38°43' E 121°29'403574.5
2014-Oct-14 08:33N 32°03' E 120°25'203663.3
2014-Oct-14 08:33N 31°59' E 120°49'66785742.1
2014-Oct-14 08:33N 22°56' E 113°33'65110805.8
2014-Oct-14 08:29N 31°58' E 120°21'65991248.9
2014-Oct-14 08:28N 22°57' E 113°16'667400161.7
2014-Oct-14 08:28N 32°01' E 120°31'12363.0
2014-Oct-14 08:26N 31°57' E 120°18'645178486.1
2014-Oct-14 08:26N 23°04' E 113°29'0 5.0
2014-Oct-14 08:25N 23°04' E 113°29'66218055.0
2014-Oct-14 08:23N 32°02' E 120°45'4033128.1
2014-Oct-14 08:15N 38°43' E 121°31'102630774.3
2014-Oct-14 08:13N 23°04' E 113°29'0 0.8
2014-Oct-14 08:09N 23°04' E 113°29'6471098.1
2014-Oct-14 07:33N 31°58' E 120°21'26478.4
2014-Oct-14 07:33N 31°59' E 120°22'8250.0
2014-Oct-14 07:31N 32°01' E 120°31'65411424.5
2014-Oct-14 07:28N 22°59' E 113°39'64424923.3
2014-Oct-14 07:26N 31°57' E 120°18'645178487.4
2014-Oct-14 07:26N 23°04' E 113°29'0 3.6
2014-Oct-14 07:24N 23°04' E 113°29'97462640.9
2014-Oct-14 07:23N 37°37' E 121°52'10017618.2
2014-Oct-14 07:15N 22°27' E 113°48'66916272.4
2014-Oct-14 07:12N 31°58' E 120°21'46382.3
2014-Oct-14 07:05N 31°41' E 121°11'4890.9
2014-Oct-14 06:33N 31°57' E 120°17'1506.2
2014-Oct-14 06:33N 31°56' E 120°16'5363479.7
2014-Oct-14 06:33N 31°39' E 121°14'499258.8
2014-Oct-14 06:33N 31°58' E 120°21'647290997.3
2014-Oct-14 06:33N 23°04' E 113°29'97524721.2
2014-Oct-14 06:30N 37°36' E 121°54'97547435.9
2014-Oct-14 06:29N 23°04' E 113°29'66114872.8
2014-Oct-14 06:26N 31°47' E 121°05'4124742.5
2014-Oct-14 06:26N 31°57' E 120°18'59628983.3
2014-Oct-14 06:25N 23°04' E 115°17'1001027.8
2014-Oct-14 06:19N 23°04' E 113°29'41170.2
2014-Oct-14 06:05N 22°27' E 113°48'6781291.3
2014-Oct-14 05:33N 31°60' E 120°37'161096.1
2014-Oct-14 05:32N 31°57' E 120°18'64536264.8
2014-Oct-14 05:31N 23°04' E 113°29'6551178381.0
2014-Oct-14 05:31N 32°01' E 120°31'933295.5
2014-Oct-14 05:31N 31°58' E 120°21'1395619.3
2014-Oct-14 05:30N 30°45' E 122°40'67363774.8
2014-Oct-14 05:29N 23°04' E 113°29'0 3.0
2014-Oct-14 05:26N 23°04' E 113°29'0 3.6
2014-Oct-14 05:25N 23°04' E 113°29'61422113.0
2014-Oct-14 05:23N 29°59' E 121°55'1491410.1
2014-Oct-14 05:17N 31°56' E 120°07'2 2.8
2014-Oct-14 04:33N 31°56' E 120°09'1922574.8
2014-Oct-14 04:33N 32°02' E 120°30'91490.1
2014-Oct-14 04:33N 31°58' E 120°21'31513328.2
2014-Oct-14 04:32N 36°52' E 122°35'954312101.1
2014-Oct-14 04:31N 23°04' E 113°29'6551178308.5
2014-Oct-14 04:31N 32°01' E 120°31'65518554.8
2014-Oct-14 04:29N 23°04' E 113°29'63722936.0
2014-Oct-14 04:28N 31°58' E 120°01'127.2
2014-Oct-14 04:26N 31°58' E 120°02'772748.7
2014-Oct-14 04:24N 31°30' E 121°26'66026992.3
2014-Oct-14 04:22N 23°04' E 113°29'0 1.0
2014-Oct-14 04:17N 23°04' E 113°29'9724735.7
2014-Oct-14 04:05N 37°32' E 121°57'365693.3
2014-Oct-14 03:33N 31°27' E 121°29'6525884.4
2014-Oct-14 03:33N 31°60' E 120°23'3403.5
2014-Oct-14 03:33N 31°58' E 120°21'65350016.8
2014-Oct-14 03:32N 23°03' E 113°18'10932.0
2014-Oct-14 03:31N 23°04' E 113°29'024.3
2014-Oct-14 03:31N 23°04' E 113°29'951155564.8
2014-Oct-14 03:31N 36°53' E 122°26'95131396.8
2014-Oct-14 03:29N 23°04' E 113°29'65545316.5
2014-Oct-14 03:28N 32°01' E 120°31'2267.3
2014-Oct-14 03:09N 31°57' E 120°06'4134938.3
2014-Oct-14 03:04N 38°44' E 121°38'10332036.2
2014-Oct-14 02:33N 23°02' E 113°24'648233250.5
2014-Oct-14 02:33N 31°56' E 120°16'4168.4
2014-Oct-14 02:32N 31°58' E 120°21'647258654.2
2014-Oct-14 02:32N 23°04' E 113°29'95195062.1
2014-Oct-14 02:31N 36°53' E 122°26'955156319.4
2014-Oct-14 02:31N 23°02' E 113°22'423313.1
2014-Oct-14 02:30N 22°27' E 113°48'66328072.1
2014-Oct-14 02:28N 31°57' E 120°09'208890.2
2014-Oct-14 02:28N 32°01' E 120°31'65522442.9
2014-Oct-14 02:27N 23°04' E 113°29'1197.5
2014-Oct-14 02:20N 22°55' E 113°35'11259.7
2014-Oct-14 02:17N 23°04' E 113°29'102810820.8
2014-Oct-14 02:11N 38°44' E 121°36'411645.9
2014-Oct-14 01:33N 31°58' E 120°21'647166313.7
2014-Oct-14 01:33N 23°04' E 113°28'642144362.4
2014-Oct-14 01:33N 31°57' E 120°12'17645.8
2014-Oct-14 01:31N 32°01' E 120°31'30761409.2
2014-Oct-14 01:31N 36°53' E 122°26'97646851.5
2014-Oct-14 01:30N 22°27' E 113°48'417786.1
2014-Oct-14 01:29N 23°04' E 113°29'65642943.9
2014-Oct-14 01:28N 31°21' E 121°30'65616870.8
2014-Oct-14 01:26N 23°04' E 113°29'63833780.5
2014-Oct-14 01:25N 31°58' E 120°03'63815013.6
2014-Oct-14 01:22N 23°04' E 113°29'647792.3
2014-Oct-14 00:34N 31°58' E 120°21'647775992.7
2014-Oct-14 00:33N 23°04' E 113°29'644289999.5
2014-Oct-14 00:33N 31°57' E 120°17'64422523.5
2014-Oct-14 00:32N 23°04' E 113°29'655112211.3
2014-Oct-14 00:31N 32°01' E 120°31'30765021.5
2014-Oct-14 00:31N 36°53' E 122°26'97642335.9
2014-Oct-14 00:30N 22°27' E 113°48'4113450.5
2014-Oct-14 00:29N 23°04' E 113°29'064.1
2014-Oct-14 00:29N 23°04' E 113°29'657112698.6
2014-Oct-14 00:29N 31°60' E 120°39'4066773.8
2014-Oct-14 00:25N 38°44' E 121°31'013.2
2014-Oct-14 00:24N 38°44' E 121°31'73391.6
2014-Oct-14 00:13N 37°34' E 121°58'34996669.4
2014-Oct-14 00:12N 31°57' E 120°10'2031.2
2014-Oct-13 23:34N 32°03' E 120°33'657788135.2
2014-Oct-13 23:33N 23°04' E 113°30'648137329.0
2014-Oct-13 23:33N 31°60' E 120°22'71213.4
2014-Oct-13 23:33N 31°57' E 120°15'61399.3
2014-Oct-13 23:33N 31°58' E 120°21'64734744.9
2014-Oct-13 23:31N 23°04' E 113°29'4237926.1
2014-Oct-13 23:31N 22°25' E 113°46'97683624.2
2014-Oct-13 23:31N 36°48' E 122°29'33929801.7
2014-Oct-13 23:30N 31°12' E 121°30'64964938.5
2014-Oct-13 23:29N 23°04' E 113°29'033.3
2014-Oct-13 23:29N 23°04' E 113°29'65543637.7
2014-Oct-13 23:28N 32°01' E 120°31'654716.5
2014-Oct-13 22:33N 23°04' E 113°30'654392247.7
2014-Oct-13 22:33N 32°02' E 120°28'30933733.2
2014-Oct-13 22:33N 36°55' E 122°28'4828669.7
2014-Oct-13 22:33N 37°37' E 121°58'34846411.6
2014-Oct-13 22:32N 31°58' E 120°21'64749529.9
2014-Oct-13 22:31N 23°04' E 113°29'655168309.1
2014-Oct-13 22:31N 32°01' E 120°31'65518850.6
2014-Oct-13 22:29N 23°04' E 113°29'46499.3
2014-Oct-13 22:24N 22°20' E 113°42'35128.0
2014-Oct-13 22:07N 22°55' E 113°35'11413.9
2014-Oct-13 22:05N 23°04' E 113°29'6471213.1
2014-Oct-13 21:33N 31°58' E 120°21'12849.7
2014-Oct-13 21:33N 32°01' E 120°35'65684350.5
2014-Oct-13 21:32N 23°04' E 113°30'499706.6
2014-Oct-13 21:32N 22°16' E 113°39'392893.8
2014-Oct-13 21:31N 22°55' E 113°35'11413.7
2014-Oct-13 21:29N 23°04' E 113°29'032.0
2014-Oct-13 21:29N 23°04' E 113°29'105938905.6
2014-Oct-13 21:28N 39°53' E 119°48'1675039.2
2014-Oct-13 21:26N 37°39' E 121°56'97819140.3
2014-Oct-13 21:22N 23°04' E 113°29'6603210.5
2014-Oct-13 21:10N 31°45' E 121°05'33293.5
2014-Oct-13 21:03N 32°02' E 120°31'1 2.6
2014-Oct-13 20:33N 32°01' E 120°31'6542352885.2
2014-Oct-13 20:33N 23°04' E 113°30'527268.0
2014-Oct-13 20:33N 22°12' E 113°36'688123773.1
2014-Oct-13 20:33N 31°58' E 120°21'34833847.4
2014-Oct-13 20:32N 37°37' E 121°56'98298212.3
2014-Oct-13 20:31N 22°55' E 113°35'1140038.4
2014-Oct-13 20:31N 23°04' E 113°29'0 1.3
2014-Oct-13 20:26N 23°04' E 113°29'66019792.2
2014-Oct-13 20:24N 31°42' E 121°10'5006434.9
2014-Oct-13 20:19N 39°58' E 119°50'106530910.7
2014-Oct-13 20:17N 23°04' E 113°29'654892.3
2014-Oct-13 19:33N 32°01' E 120°31'143572.2
2014-Oct-13 19:33N 32°01' E 120°47'221341.7
2014-Oct-13 19:32N 31°58' E 120°21'48137665.6
2014-Oct-13 19:31N 39°58' E 119°50'1072107210.6
2014-Oct-13 19:31N 22°55' E 113°35'66780055.3
2014-Oct-13 19:30N 32°00' E 120°48'66341848.5
2014-Oct-13 19:29N 23°04' E 113°29'062.4
2014-Oct-13 19:29N 23°04' E 113°29'52617.4
2014-Oct-13 19:24N 22°12' E 113°34'52662.6
2014-Oct-13 19:19N 23°04' E 113°29'647843.8
2014-Oct-13 18:33N 31°58' E 120°21'174685.0
2014-Oct-13 18:33N 31°60' E 120°41'65948391.9
2014-Oct-13 18:32N 23°04' E 113°29'106562836.6
2014-Oct-13 18:31N 39°58' E 119°50'17018033.5
2014-Oct-13 18:31N 37°39' E 121°57'97934204.9
2014-Oct-13 18:29N 23°04' E 113°29'11153.6
2014-Oct-13 18:25N 22°55' E 113°35'11291.2
2014-Oct-13 18:22N 23°04' E 113°29'0 0.9
2014-Oct-13 18:17N 23°04' E 113°29'521898.0
2014-Oct-13 18:16N 22°12' E 113°34'1 1.6
2014-Oct-13 17:33N 22°11' E 113°35'699359489.7
2014-Oct-13 17:33N 32°02' E 120°34'657788461.6
2014-Oct-13 17:33N 23°04' E 113°29'64756781.3
2014-Oct-13 17:32N 31°58' E 120°21'34830548.7
2014-Oct-13 17:32N 37°37' E 121°57'17329587.3
2014-Oct-13 17:31N 39°58' E 119°50'106531676.4
2014-Oct-13 17:29N 23°04' E 113°29'0 0.7
2014-Oct-13 17:22N 23°04' E 113°29'0 0.7
2014-Oct-13 17:17N 23°04' E 113°29'66026681.4
2014-Oct-13 17:16N 31°29' E 121°27'47389.0
2014-Oct-13 17:08N 32°01' E 120°48'6631128.8
2014-Oct-13 16:33N 23°04' E 113°29'6471164016.6
2014-Oct-13 16:33N 31°58' E 120°21'84664.3
2014-Oct-13 16:33N 32°04' E 120°27'69618436.0
2014-Oct-13 16:31N 22°11' E 113°35'4319558.8
2014-Oct-13 16:31N 22°55' E 113°35'11511.7
2014-Oct-13 16:29N 23°04' E 113°29'663183549.9
2014-Oct-13 16:29N 32°01' E 120°48'6631193043.7
2014-Oct-13 16:29N 23°04' E 113°29'106585169.4
2014-Oct-13 16:28N 39°58' E 119°50'5195897.6
2014-Oct-13 16:23N 31°25' E 121°31'65960856.4
2014-Oct-13 16:22N 23°04' E 113°29'649795.3
2014-Oct-13 15:34N 31°60' E 120°22'2592.1
2014-Oct-13 15:33N 31°58' E 120°21'6472328051.3
2014-Oct-13 15:33N 23°04' E 113°29'66325118.0
2014-Oct-13 15:32N 32°01' E 120°48'663198843.2
2014-Oct-13 15:31N 23°04' E 113°29'10653832773.4
2014-Oct-13 15:31N 39°58' E 119°50'106532209.3
2014-Oct-13 15:29N 23°04' E 113°29'517076.7
2014-Oct-13 15:29N 22°14' E 113°41'42472.9
2014-Oct-13 15:24N 22°56' E 113°36'1198.6
2014-Oct-13 15:17N 23°04' E 113°29'643883.0
2014-Oct-13 14:33N 31°57' E 120°16'4779.7
2014-Oct-13 14:33N 31°58' E 120°21'48116501.7
2014-Oct-13 14:31N 39°58' E 119°50'106558077.6
2014-Oct-13 14:30N 23°04' E 113°29'0 1.2
2014-Oct-13 14:26N 23°04' E 113°29'66329827.2
2014-Oct-13 14:25N 32°01' E 120°48'6637341.9
2014-Oct-13 14:20N 23°04' E 113°29'0 0.3
2014-Oct-13 14:05N 23°04' E 113°29'0 0.4
2014-Oct-13 13:33N 23°04' E 113°29'647232805.2
2014-Oct-13 13:33N 31°58' E 120°21'64734234.2
2014-Oct-13 13:32N 23°04' E 113°29'1065225462.5
2014-Oct-13 13:31N 39°58' E 119°50'48319746.8
2014-Oct-13 13:30N 31°56' E 120°10'6403095.6
2014-Oct-13 13:17N 23°04' E 113°29'0 2.7
2014-Oct-13 13:14N 23°04' E 113°29'0 0.3
2014-Oct-13 12:32N 23°04' E 113°29'011.4
2014-Oct-13 12:32N 23°04' E 113°29'1065294837.1
2014-Oct-13 12:31N 39°58' E 119°50'481123766.1
2014-Oct-13 12:31N 31°58' E 120°21'64721162.9
2014-Oct-13 12:29N 23°04' E 113°29'0 3.0
2014-Oct-13 12:26N 23°04' E 113°29'11317.9
2014-Oct-13 12:24N 22°55' E 113°35'6432149.0
2014-Oct-13 12:06N 31°57' E 120°04'1526.5
2014-Oct-13 11:33N 31°58' E 120°21'64768472.1
2014-Oct-13 11:33N 23°04' E 113°29'106554759.5
2014-Oct-13 11:32N 39°58' E 119°50'1072296900.3
2014-Oct-13 11:32N 22°55' E 113°35'64213603.4
2014-Oct-13 11:29N 31°58' E 120°02'63715195.0
2014-Oct-13 11:26N 23°04' E 113°29'0 0.6
2014-Oct-13 11:19N 23°04' E 113°29'0 2.3
2014-Oct-13 11:17N 23°04' E 113°29'0 0.1
2014-Oct-13 10:33N 23°04' E 113°29'647776023.1
2014-Oct-13 10:33N 31°58' E 120°21'64722383.9
2014-Oct-13 10:31N 23°04' E 113°29'63743281.2
2014-Oct-13 10:31N 31°59' E 119°59'644178306.7
2014-Oct-13 10:30N 23°03' E 113°17'12714.1
2014-Oct-13 10:29N 23°04' E 113°29'106555550.0
2014-Oct-13 10:28N 39°58' E 119°50'10949206.0
2014-Oct-13 10:21N 22°29' E 113°47'663198814.4
2014-Oct-13 10:21N 30°30' E 122°16'65116612.6
2014-Oct-13 10:19N 22°55' E 113°35'11151.8
2014-Oct-13 10:14N 23°04' E 113°29'647952.1
2014-Oct-13 09:33N 31°58' E 120°21'651586248.0
2014-Oct-13 09:33N 23°02' E 113°24'65017.5
2014-Oct-13 09:33N 23°04' E 113°29'65329028.7
2014-Oct-13 09:32N 30°36' E 122°18'57550516.4
2014-Oct-13 09:31N 39°58' E 119°50'107259379.1
2014-Oct-13 09:30N 22°55' E 113°35'11886.5
2014-Oct-13 09:29N 23°04' E 113°29'079.1
2014-Oct-13 09:29N 23°04' E 113°29'41105.9
2014-Oct-13 09:06N 22°27' E 113°47'6701229.4
2014-Oct-13 08:33N 31°58' E 120°21'647122575.5
2014-Oct-13 08:33N 23°03' E 113°30'1597.9
2014-Oct-13 08:33N 23°04' E 113°29'416396.3
2014-Oct-13 08:33N 22°27' E 113°47'67335094.0
2014-Oct-13 08:31N 32°00' E 120°22'478172211.2
2014-Oct-13 08:31N 39°58' E 119°50'568113545.1
2014-Oct-13 08:31N 30°44' E 122°19'12233690.9
2014-Oct-13 08:31N 31°56' E 120°25'64724788.9
2014-Oct-13 08:29N 23°04' E 113°29'1163.1
2014-Oct-13 08:18N 22°55' E 113°35'11165.4
2014-Oct-13 08:14N 23°04' E 113°29'654958.4
2014-Oct-13 07:33N 32°01' E 120°31'654181073.7
2014-Oct-13 07:33N 23°04' E 113°29'22364.4
2014-Oct-13 07:33N 23°05' E 113°27'10786.4
2014-Oct-13 07:32N 22°56' E 113°33'22616979.3
2014-Oct-13 07:32N 23°39' E 117°35'22299809.9
2014-Oct-13 07:31N 22°27' E 113°47'675151950.2
2014-Oct-13 07:31N 31°22' E 121°29'5221880162.1
2014-Oct-13 07:31N 39°58' E 119°50'48123413.3
2014-Oct-13 07:30N 31°58' E 120°21'3912793.2
2014-Oct-13 07:30N 31°47' E 121°06'661170069.9
2014-Oct-13 07:30N 23°04' E 113°29'6634734.4
2014-Oct-13 07:21N 32°01' E 120°48'1032804.5
2014-Oct-13 07:19N 30°54' E 122°19'66623742.0
2014-Oct-13 07:17N 23°04' E 113°29'2 2.3
2014-Oct-13 06:33N 23°05' E 113°27'6472329746.3
2014-Oct-13 06:33N 31°58' E 120°21'194.9
2014-Oct-13 06:32N 31°58' E 120°23'64812274.0
2014-Oct-13 06:29N 23°04' E 113°29'106564959.4
2014-Oct-13 06:28N 39°58' E 119°50'1069137393.1
2014-Oct-13 06:28N 23°02' E 113°21'66258102.6
2014-Oct-13 06:27N 31°22' E 121°29'50078233.5
2014-Oct-13 06:27N 23°44' E 117°42'2326533.8
2014-Oct-13 06:24N 22°48' E 113°37'23540.7
2014-Oct-13 06:22N 22°27' E 113°47'667825.6
2014-Oct-13 05:33N 31°57' E 120°17'644165493.9
2014-Oct-13 05:33N 23°04' E 113°29'64751735.3
2014-Oct-13 05:33N 31°58' E 120°21'664103958.2
2014-Oct-13 05:32N 22°31' E 113°52'109166575.4
2014-Oct-13 05:31N 39°58' E 119°50'106871221.1
2014-Oct-13 05:30N 23°03' E 113°20'24924236.2
2014-Oct-13 05:30N 23°49' E 117°47'4948230.0
2014-Oct-13 05:26N 31°22' E 121°29'6561883.7
2014-Oct-13 05:05N 23°04' E 113°29'0 0.4
2014-Oct-13 04:33N 23°04' E 113°29'64724000.5
2014-Oct-13 04:32N 31°58' E 120°21'50266973.2
2014-Oct-13 04:31N 23°54' E 117°49'4891759901.4
2014-Oct-13 04:31N 31°22' E 121°29'52210274.1
2014-Oct-13 04:28N 39°58' E 119°50'109111034.8
2014-Oct-13 04:22N 22°31' E 113°52'39453.8
2014-Oct-13 04:17N 23°04' E 113°29'0 0.4
2014-Oct-13 03:33N 23°04' E 113°29'647582008.4
2014-Oct-13 03:33N 31°58' E 120°21'6740452.6
2014-Oct-13 03:33N 31°22' E 121°29'52214688.6
2014-Oct-13 03:31N 39°58' E 119°50'10729017.5
2014-Oct-13 03:24N 22°55' E 113°35'65911235.8
2014-Oct-13 03:20N 32°01' E 120°31'50813168.4
2014-Oct-13 03:18N 23°53' E 117°50'24412721.9
2014-Oct-13 03:17N 23°04' E 113°29'647892.6
2014-Oct-13 02:33N 31°58' E 120°21'647332573.7
2014-Oct-13 02:33N 23°04' E 113°29'65630259.8
2014-Oct-13 02:32N 31°22' E 121°29'4859648.8
2014-Oct-13 02:29N 23°57' E 117°52'2474777.1
2014-Oct-13 02:26N 23°04' E 113°29'106570974.3
2014-Oct-13 02:25N 39°58' E 119°50'11033492.3
2014-Oct-13 02:06N 22°20' E 113°46'4784.1
2014-Oct-13 01:33N 23°04' E 113°29'64755429.4
2014-Oct-13 01:32N 31°58' E 120°21'67837554.7
2014-Oct-13 01:31N 22°17' E 113°48'1106796039.2
2014-Oct-13 01:31N 39°58' E 119°50'106530660.9
2014-Oct-13 01:29N 23°04' E 113°29'11129.8
2014-Oct-13 01:24N 22°55' E 113°35'651777.6
2014-Oct-13 00:34N 31°58' E 120°21'66763213.6
2014-Oct-13 00:33N 22°18' E 114°09'5910560.3
2014-Oct-13 00:33N 23°04' E 113°29'12508.3
2014-Oct-13 00:31N 22°53' E 113°34'1074429520.2
2014-Oct-13 00:31N 39°58' E 119°50'106512648.9
2014-Oct-13 00:26N 23°04' E 113°29'25630723.1
2014-Oct-13 00:25N 24°07' E 117°60'2531963.0
2014-Oct-13 00:18N 22°55' E 113°35'1114.8
2014-Oct-12 23:33N 23°04' E 113°29'11182.7
2014-Oct-12 23:30N 22°55' E 113°35'25866463.4
2014-Oct-12 23:29N 24°12' E 118°04'481115435.2
2014-Oct-12 23:29N 31°58' E 120°21'647166280.2
2014-Oct-12 23:29N 23°04' E 113°29'10659169.0
2014-Oct-12 23:22N 39°58' E 119°50'10651310.9
2014-Oct-12 22:33N 23°04' E 113°29'595708.3
2014-Oct-12 22:33N 22°18' E 114°09'66740714.2
2014-Oct-12 22:32N 31°58' E 120°21'476131686.8
2014-Oct-12 22:31N 24°16' E 118°09'946121566.0
2014-Oct-12 22:31N 39°58' E 119°50'107255935.2
2014-Oct-12 22:30N 22°55' E 113°35'1158.1
2014-Oct-12 22:18N 23°04' E 113°29'0 0.3
2014-Oct-12 21:33N 23°04' E 113°29'64724000.5
2014-Oct-12 21:32N 31°58' E 120°21'64728739.8
2014-Oct-12 21:30N 23°04' E 113°29'11893.3
2014-Oct-12 21:30N 22°55' E 113°35'107239788.7
2014-Oct-12 21:28N 39°58' E 119°50'10651168.6
2014-Oct-12 20:33N 23°04' E 113°29'64786224.1
2014-Oct-12 20:33N 31°58' E 120°21'48115198.3
2014-Oct-12 20:31N 39°58' E 119°50'1065103585.3
2014-Oct-12 20:30N 23°04' E 113°29'1127.2
2014-Oct-12 20:06N 22°55' E 113°35'6511208.9
2014-Oct-12 19:33N 31°58' E 120°21'647388008.7
2014-Oct-12 19:33N 23°04' E 113°29'0 4.5
2014-Oct-12 19:30N 23°04' E 113°29'1198.0
2014-Oct-12 19:23N 22°55' E 113°35'10726078.0
2014-Oct-12 19:13N 39°58' E 119°50'481730.4
2014-Oct-12 18:33N 31°58' E 120°21'647465614.0
2014-Oct-12 18:33N 23°04' E 113°29'106526617.8
2014-Oct-12 18:31N 39°58' E 119°50'106517909.3
2014-Oct-12 18:27N 23°04' E 113°29'0 0.2
2014-Oct-12 17:33N 23°04' E 113°29'647332578.8
2014-Oct-12 17:33N 31°58' E 120°21'48112646.8
2014-Oct-12 17:31N 39°58' E 119°50'1065116137.8
2014-Oct-12 17:30N 23°04' E 113°29'11710.9
2014-Oct-12 17:29N 22°55' E 113°35'1111.8
2014-Oct-12 16:33N 23°04' E 113°29'647232805.1
2014-Oct-12 16:33N 31°58' E 120°21'647129362.0
2014-Oct-12 16:33N 22°58' E 113°39'12261.9
2014-Oct-12 16:30N 23°04' E 113°29'10657529.6
2014-Oct-12 16:22N 39°58' E 119°50'110940732.4
2014-Oct-12 16:20N 22°17' E 113°35'684879.8
2014-Oct-12 15:33N 31°58' E 120°21'45871723.0
2014-Oct-12 15:33N 24°24' E 119°08'321288458.7
2014-Oct-12 15:33N 23°04' E 113°29'12778.1
2014-Oct-12 15:32N 22°53' E 113°34'12392.2
2014-Oct-12 15:30N 23°04' E 113°29'10657500.0
2014-Oct-12 15:22N 39°58' E 119°50'10681323.7
2014-Oct-12 14:33N 23°02' E 113°24'6512342416.8
2014-Oct-12 14:33N 31°58' E 120°21'686176323.7
2014-Oct-12 14:33N 22°08' E 113°47'32238666.4
2014-Oct-12 14:33N 24°21' E 119°07'93830155.3
2014-Oct-12 14:31N 39°58' E 119°50'1065136879.6
2014-Oct-12 14:30N 23°04' E 113°29'647651.5
2014-Oct-12 13:31N 31°58' E 120°21'64786218.7
2014-Oct-12 13:30N 23°04' E 113°29'106511372.7
2014-Oct-12 13:25N 39°58' E 119°50'4762862.9
2014-Oct-12 13:15N 32°03' E 120°25'5494345.5
2014-Oct-12 13:07N 23°14' E 117°38'548955.0
2014-Oct-12 12:33N 32°02' E 120°25'6272.7
2014-Oct-12 12:31N 31°58' E 120°21'64734233.9
2014-Oct-12 12:30N 23°04' E 113°29'106511339.3
2014-Oct-12 12:25N 39°58' E 119°50'10998419.5
2014-Oct-12 12:17N 22°18' E 114°09'32157.0
2014-Oct-12 12:04N 22°38' E 113°41'6631269.7
2014-Oct-12 11:33N 31°59' E 120°20'663341168.9
2014-Oct-12 11:33N 22°38' E 113°41'66327439.6
2014-Oct-12 11:32N 31°58' E 120°21'64729844.9
2014-Oct-12 11:30N 23°04' E 113°29'106524411.9
2014-Oct-12 11:28N 39°58' E 119°50'10871204.8
2014-Oct-12 10:34N 22°38' E 113°41'663341039.8
2014-Oct-12 10:33N 31°58' E 120°21'48110252.0
2014-Oct-12 10:31N 39°58' E 119°50'1065191634.6
2014-Oct-12 10:30N 23°04' E 113°29'11284.1
2014-Oct-12 10:28N 22°55' E 113°35'64714199.3
2014-Oct-12 10:25N 31°56' E 120°15'6633195.0
2014-Oct-12 10:13N 22°18' E 114°09'6671018.3
2014-Oct-12 09:33N 31°58' E 120°21'45616918.5
2014-Oct-12 09:32N 24°28' E 118°58'45310310.9
2014-Oct-12 09:29N 31°56' E 120°10'66140323.5
2014-Oct-12 09:28N 22°18' E 114°09'593925.9
2014-Oct-12 09:27N 23°04' E 113°29'106523658.5
2014-Oct-12 09:25N 39°58' E 119°50'9286948.5
2014-Oct-12 09:17N 24°31' E 118°59'457635.0
2014-Oct-12 08:33N 32°01' E 120°31'453325953.3
2014-Oct-12 08:33N 24°36' E 118°56'29932570.1
2014-Oct-12 08:33N 22°19' E 114°06'57623.8
2014-Oct-12 08:27N 23°04' E 113°29'30910035.7
2014-Oct-12 08:25N 24°24' E 118°55'93514445.8
2014-Oct-12 08:22N 39°58' E 119°50'48112201.4
2014-Oct-12 08:19N 31°58' E 120°21'6518031.4
2014-Oct-12 08:14N 22°55' E 113°35'659951.7
2014-Oct-12 07:33N 32°01' E 120°31'44655385.6
2014-Oct-12 07:32N 24°43' E 118°51'44237902.7
2014-Oct-12 07:32N 31°58' E 120°21'3059989.5
2014-Oct-12 07:30N 36°47' E 122°20'2245979.5
2014-Oct-12 07:28N 39°58' E 119°50'1065273757.7
2014-Oct-12 07:27N 23°04' E 113°29'65629902.3
2014-Oct-12 07:26N 31°22' E 121°30'6758024.3
2014-Oct-12 07:21N 22°22' E 113°55'373347.4
2014-Oct-12 07:20N 22°55' E 113°35'10721374.9
2014-Oct-12 06:33N 39°58' E 119°50'48166539.6
2014-Oct-12 06:33N 31°58' E 120°21'859.3
2014-Oct-12 06:25N 32°01' E 120°31'6748086.5
2014-Oct-12 06:20N 22°19' E 114°09'592750.7
2014-Oct-12 06:18N 23°04' E 113°29'6552819.2
2014-Oct-12 06:04N 32°04' E 120°28'2 3.2
2014-Oct-12 05:33N 32°03' E 120°26'476570767.0
2014-Oct-12 05:33N 39°58' E 119°50'481216250.9
2014-Oct-12 05:33N 31°58' E 120°21'64712872.5
2014-Oct-12 05:30N 23°04' E 113°29'10138.5
2014-Oct-12 05:26N 23°03' E 113°18'2763539.5
2014-Oct-12 05:21N 24°19' E 118°08'88615413.2
2014-Oct-12 05:18N 39°05' E 117°47'109147.8
2014-Oct-12 04:33N 39°58' E 119°50'48182422.5
2014-Oct-12 04:33N 31°58' E 120°19'293.5
2014-Oct-12 04:32N 31°58' E 120°21'652167732.1
2014-Oct-12 04:32N 23°02' E 113°22'10681097.6
2014-Oct-12 03:33N 39°58' E 119°50'481108125.4
2014-Oct-12 03:33N 31°58' E 120°21'381910.7
2014-Oct-12 03:32N 31°47' E 121°04'662238296.8
2014-Oct-12 03:32N 23°05' E 113°26'98521113.7
2014-Oct-12 03:29N 39°04' E 117°49'497255714.6
2014-Oct-12 03:29N 31°21' E 121°31'656214793.2
2014-Oct-12 03:29N 23°04' E 113°29'6562684.4
2014-Oct-12 03:14N 31°22' E 121°30'66418380.7
2014-Oct-12 03:12N 22°50' E 113°35'10771678.7
2014-Oct-12 02:33N 39°58' E 119°50'48125821.3
2014-Oct-12 02:32N 31°58' E 120°21'683819086.8
2014-Oct-12 02:32N 22°10' E 113°52'581851.3
2014-Oct-12 02:30N 23°04' E 113°29'65628795.3
2014-Oct-12 02:29N 31°21' E 121°31'656118135.0
2014-Oct-12 02:29N 23°04' E 113°29'6567093.6
2014-Oct-12 02:23N 31°22' E 121°30'67212530.4
2014-Oct-12 02:20N 22°20' E 114°05'6603799.3
2014-Oct-12 02:09N 31°59' E 119°59'223622.0
2014-Oct-12 02:09N 31°55' E 120°25'31212066.3
2014-Oct-12 02:07N 36°49' E 122°28'3147342.1
2014-Oct-12 02:05N 31°57' E 120°10'1324.5
2014-Oct-12 01:33N 31°57' E 120°25'107332.0
2014-Oct-12 01:33N 31°57' E 120°13'726866.7
2014-Oct-12 01:33N 31°58' E 120°21'481288338.1
2014-Oct-12 01:33N 39°58' E 119°50'111052565.9
2014-Oct-12 01:32N 22°13' E 113°45'531835.3
2014-Oct-12 01:30N 23°04' E 113°29'65630271.8
2014-Oct-12 01:29N 31°21' E 121°31'65611581.7
2014-Oct-12 01:26N 23°04' E 113°29'6563394.0
2014-Oct-12 01:14N 31°22' E 121°30'69102.0
2014-Oct-12 00:33N 31°58' E 120°21'2542.7
2014-Oct-12 00:33N 31°59' E 120°19'65141848.9
2014-Oct-12 00:32N 22°55' E 113°35'66757160.5
2014-Oct-12 00:31N 32°00' E 120°48'66237823.3
2014-Oct-12 00:30N 23°04' E 113°29'65631908.1
2014-Oct-12 00:29N 31°21' E 121°31'68931418.0
2014-Oct-12 00:28N 22°17' E 113°37'68923635.0
2014-Oct-12 00:26N 31°22' E 121°30'65698424.9
2014-Oct-12 00:26N 23°04' E 113°29'106514740.8
2014-Oct-12 00:21N 39°58' E 119°50'4729234.5
2014-Oct-12 00:18N 32°06' E 119°51'343458.5
2014-Oct-11 23:33N 37°42' E 121°14'34751988.9
2014-Oct-11 23:33N 31°58' E 120°21'42355.7
2014-Oct-11 23:33N 32°01' E 120°25'668141360.5
2014-Oct-11 23:33N 22°38' E 113°41'29767.4
2014-Oct-11 23:30N 23°04' E 113°29'015.5
2014-Oct-11 23:29N 23°04' E 113°29'106547316.2
2014-Oct-11 23:27N 39°58' E 119°50'52325103.7
2014-Oct-11 23:26N 31°22' E 121°30'3739465.7
2014-Oct-11 23:24N 37°35' E 121°52'37446394.8
2014-Oct-11 23:23N 31°21' E 121°31'60431.3
2014-Oct-11 23:15N 31°60' E 120°37'34248.8
2014-Oct-11 23:07N 32°02' E 119°57'3053.8
2014-Oct-11 22:33N 32°01' E 120°33'21477.8
2014-Oct-11 22:33N 32°02' E 120°31'6722417602.2
2014-Oct-11 22:33N 22°38' E 113°41'655102534.2
2014-Oct-11 22:33N 31°60' E 120°00'35137128.8
2014-Oct-11 22:32N 37°38' E 121°53'34835790.5
2014-Oct-11 22:32N 31°58' E 120°21'34824106.0
2014-Oct-11 22:31N 37°42' E 121°28'1562587.3
2014-Oct-11 22:27N 39°58' E 119°50'1064255430.2
2014-Oct-11 22:27N 23°04' E 113°29'65610494.1
2014-Oct-11 22:23N 31°21' E 121°31'6642185.5
2014-Oct-11 22:05N 22°49' E 113°36'9851866.9
2014-Oct-11 21:33N 37°42' E 121°37'137757.7
2014-Oct-11 21:33N 37°38' E 121°52'169304546.0
2014-Oct-11 21:33N 39°58' E 119°50'481123586.7
2014-Oct-11 21:33N 31°58' E 120°21'7753.9
2014-Oct-11 21:32N 32°02' E 120°28'185844.2
2014-Oct-11 21:32N 31°57' E 120°08'646290618.0
2014-Oct-11 21:32N 22°54' E 113°35'101938.2
2014-Oct-11 21:32N 23°03' E 113°31'65715654.1
2014-Oct-11 21:29N 31°21' E 121°31'1 3.4
2014-Oct-11 21:13N 31°22' E 121°30'6496.6
2014-Oct-11 20:33N 32°03' E 120°33'1119718.9
2014-Oct-11 20:33N 31°58' E 120°21'349418496.0
2014-Oct-11 20:33N 37°39' E 121°53'351157993.3
2014-Oct-11 20:33N 31°57' E 120°16'35370523.9
2014-Oct-11 20:33N 37°43' E 121°40'34649802.4
2014-Oct-11 20:32N 32°02' E 120°28'671011.9
2014-Oct-11 20:28N 31°21' E 121°31'1251.8
2014-Oct-11 20:28N 31°22' E 121°30'5237843.1
2014-Oct-11 20:24N 39°58' E 119°50'48012350.1
2014-Oct-11 20:22N 32°00' E 120°49'6632480.8
2014-Oct-11 20:06N 23°04' E 113°29'6880.3
2014-Oct-11 20:05N 23°02' E 113°23'3 4.9
2014-Oct-11 19:33N 23°04' E 113°25'6552358474.1
2014-Oct-11 19:33N 32°02' E 120°27'62313.8
2014-Oct-11 19:33N 31°58' E 120°21'481216264.4
2014-Oct-11 19:33N 39°58' E 119°50'16128983.9
2014-Oct-11 19:33N 37°42' E 121°41'3814913.5
2014-Oct-11 19:28N 31°22' E 121°30'641211.7
2014-Oct-11 19:25N 32°03' E 120°33'652521.7
2014-Oct-11 19:23N 31°21' E 121°31'6567011.2
2014-Oct-11 19:18N 23°04' E 113°29'648875.4
2014-Oct-11 18:33N 31°59' E 120°21'1440.3
2014-Oct-11 18:33N 31°58' E 120°21'703190.7
2014-Oct-11 18:32N 31°21' E 121°31'383106157.2
2014-Oct-11 18:32N 37°44' E 121°38'97745085.9
2014-Oct-11 18:30N 23°03' E 113°30'1066182696.5
2014-Oct-11 18:30N 39°58' E 119°50'52317429.8
2014-Oct-11 18:28N 31°22' E 121°30'44047963.4
2014-Oct-11 18:28N 38°41' E 121°32'102562520.6
2014-Oct-11 18:27N 23°04' E 113°29'97821080.6
2014-Oct-11 18:24N 37°39' E 121°57'353419.8
2014-Oct-11 17:33N 31°56' E 120°13'84574.4
2014-Oct-11 17:33N 31°58' E 120°21'4111369.6
2014-Oct-11 17:33N 31°44' E 121°07'66414839.7
2014-Oct-11 17:30N 22°57' E 113°33'1071154155.4
2014-Oct-11 17:30N 39°58' E 119°50'1065225448.4
2014-Oct-11 17:30N 23°04' E 113°29'65628813.1
2014-Oct-11 17:28N 31°21' E 121°31'3842749.3
2014-Oct-11 17:20N 37°45' E 121°42'159203.2
2014-Oct-11 16:33N 39°58' E 119°50'481108131.6
2014-Oct-11 16:33N 31°58' E 120°21'35326473.1
2014-Oct-11 16:32N 37°45' E 121°39'35744296.0
2014-Oct-11 16:31N 31°57' E 120°03'35423151.9
2014-Oct-11 16:31N 37°39' E 121°53'37910565.2
2014-Oct-11 16:28N 31°21' E 121°31'24187.2
2014-Oct-11 16:21N 31°40' E 121°14'66012852.2
2014-Oct-11 16:18N 23°04' E 113°29'65634237.4
2014-Oct-11 16:17N 31°22' E 121°30'6995.9
2014-Oct-11 15:33N 31°58' E 120°21'48196120.1
2014-Oct-11 15:33N 39°58' E 119°50'52439266.4
2014-Oct-11 15:32N 31°21' E 121°31'385125934.4
2014-Oct-11 15:32N 37°46' E 121°35'36729991.4
2014-Oct-11 15:31N 31°40' E 121°14'35917719.7
2014-Oct-11 15:30N 37°38' E 121°51'975219364.5
2014-Oct-11 15:30N 23°04' E 113°29'484299.8
2014-Oct-11 15:29N 22°17' E 113°36'2245.4
2014-Oct-11 15:29N 22°17' E 113°38'683738.4
2014-Oct-11 14:33N 31°58' E 120°21'3441239308.2
2014-Oct-11 14:33N 37°35' E 121°51'3721337754.4
2014-Oct-11 14:33N 31°23' E 121°30'521144345.3
2014-Oct-11 14:33N 39°58' E 119°50'11103996800.0
2014-Oct-11 14:33N 22°13' E 113°44'69411679.5
2014-Oct-11 14:29N 31°40' E 121°14'6983918.1
2014-Oct-11 14:19N 22°15' E 113°35'504096.8
2014-Oct-11 14:18N 23°04' E 113°29'6563013.3
2014-Oct-11 14:05N 31°22' E 121°30'68129.8
2014-Oct-11 13:33N 31°58' E 120°23'101937.2
2014-Oct-11 13:33N 32°03' E 120°32'613832.6
2014-Oct-11 13:32N 31°26' E 121°29'663041.1
2014-Oct-11 13:31N 31°58' E 120°21'687137323.8
2014-Oct-11 13:30N 22°15' E 113°35'1111105254.8
2014-Oct-11 13:30N 39°58' E 119°50'50315091.4
2014-Oct-11 13:28N 31°40' E 121°14'6931247570.6
2014-Oct-11 13:28N 22°09' E 113°53'603987.5
2014-Oct-11 13:27N 23°04' E 113°29'97769000.0
2014-Oct-11 13:26N 37°44' E 121°43'352401.8
2014-Oct-11 12:33N 31°58' E 120°21'81438.5
2014-Oct-11 12:33N 32°04' E 120°28'1210600.4
2014-Oct-11 12:33N 31°57' E 120°17'349114242.8
2014-Oct-11 12:33N 37°38' E 121°49'36855250.4
2014-Oct-11 12:32N 31°30' E 121°23'13382.2
2014-Oct-11 12:30N 31°40' E 121°14'66076698.6
2014-Oct-11 12:30N 23°04' E 113°29'1065225461.7
2014-Oct-11 12:30N 39°58' E 119°50'11115420.4
2014-Oct-11 12:17N 22°14' E 113°35'10151384.7
2014-Oct-11 11:33N 37°36' E 121°45'34238500.5
2014-Oct-11 11:33N 32°01' E 120°23'3352.9
2014-Oct-11 11:32N 31°58' E 120°21'34969746.0
2014-Oct-11 11:32N 37°41' E 121°38'36222861.1
2014-Oct-11 11:31N 31°40' E 121°14'66611.0
2014-Oct-11 11:25N 31°60' E 120°00'67824916.0
2014-Oct-11 11:23N 22°14' E 113°35'69655685.6
2014-Oct-11 11:22N 31°35' E 121°17'430129111.7
2014-Oct-11 11:22N 38°45' E 121°41'10313835.6
2014-Oct-11 11:06N 23°04' E 113°29'6391182.6
2014-Oct-11 10:33N 31°58' E 120°05'348104407.5
2014-Oct-11 10:33N 37°36' E 121°46'34516110.9
2014-Oct-11 10:32N 31°58' E 120°21'11040.6
2014-Oct-11 10:32N 31°58' E 120°21'488202.4
2014-Oct-11 10:32N 31°40' E 121°12'65921196.5
2014-Oct-11 10:30N 23°04' E 113°29'655102492.9
2014-Oct-11 10:29N 32°01' E 120°32'3446099.7
2014-Oct-11 10:26N 37°41' E 121°33'3803578.1
2014-Oct-11 10:20N 31°22' E 121°30'4593108.7
2014-Oct-11 10:11N 24°19' E 118°08'2631975.3
2014-Oct-11 10:03N 22°42' E 113°41'6601340.4
2014-Oct-11 09:33N 31°58' E 120°21'34669272.2
2014-Oct-11 09:33N 37°37' E 121°48'35617795.3
2014-Oct-11 09:32N 31°43' E 121°07'3597934.7
2014-Oct-11 09:29N 37°42' E 121°23'3472077.8
2014-Oct-11 09:19N 31°58' E 120°21'6479246.2
2014-Oct-11 09:15N 23°04' E 113°29'103124411.6
2014-Oct-11 09:12N 38°46' E 121°36'107561429.5
2014-Oct-11 09:11N 22°15' E 113°35'30268.0
2014-Oct-11 09:04N 22°44' E 113°33'10041941.4
2014-Oct-11 08:33N 39°05' E 117°46'210378654.1
2014-Oct-11 08:33N 37°38' E 121°51'791135666.2
2014-Oct-11 08:33N 24°39' E 119°05'444532778.3
2014-Oct-11 08:33N 31°58' E 120°21'93605.8
2014-Oct-11 08:33N 31°57' E 120°11'73059.5
2014-Oct-11 08:33N 31°58' E 120°19'34729066.7
2014-Oct-11 08:32N 37°42' E 121°11'96425709.6
2014-Oct-11 08:30N 23°04' E 113°29'504871.2
2014-Oct-11 08:29N 22°15' E 113°35'107214836.4
2014-Oct-11 08:25N 38°44' E 121°32'4423857.1
2014-Oct-11 08:18N 31°22' E 121°30'4583467.6
2014-Oct-11 08:10N 24°20' E 118°08'8201348.3
2014-Oct-11 07:33N 37°38' E 121°48'347138920.9
2014-Oct-11 07:33N 31°58' E 120°18'21283.5
2014-Oct-11 07:33N 31°58' E 120°21'71245.6
2014-Oct-11 07:33N 32°02' E 120°28'445266837.9
2014-Oct-11 07:33N 24°43' E 119°04'43735746.2
2014-Oct-11 07:32N 31°56' E 120°14'44594136.0
2014-Oct-11 07:32N 39°04' E 117°49'103323392.9
2014-Oct-11 07:29N 22°15' E 113°35'50264.4
2014-Oct-11 07:18N 23°04' E 113°29'18148.5
2014-Oct-11 07:10N 22°48' E 113°21'6651080.1
2014-Oct-11 06:33N 31°58' E 120°21'4401582699.8
2014-Oct-11 06:33N 24°45' E 118°55'442198824.1
2014-Oct-11 06:33N 32°00' E 120°24'189.8
2014-Oct-11 06:32N 32°01' E 120°25'17532.8
2014-Oct-11 06:31N 32°02' E 120°45'556544.3
2014-Oct-11 06:30N 31°21' E 121°27'69146038.9
2014-Oct-11 06:29N 22°15' E 113°35'103310273.5
2014-Oct-11 06:23N 39°04' E 117°51'4965755.5
2014-Oct-11 06:18N 31°22' E 121°30'6563236.3
2014-Oct-11 06:06N 23°04' E 113°29'6531210.3
2014-Oct-11 05:33N 32°02' E 120°27'444159761.1
2014-Oct-11 05:33N 24°47' E 118°46'439395190.8
2014-Oct-11 05:33N 31°58' E 120°21'34510611.4
2014-Oct-11 05:31N 37°35' E 121°52'38120490.7
2014-Oct-11 05:30N 31°14' E 121°29'68639835.9
2014-Oct-11 05:29N 22°15' E 113°35'6932496495.9
2014-Oct-11 05:29N 32°00' E 120°32'65484121.0
2014-Oct-11 05:29N 23°04' E 113°29'64572549.9
2014-Oct-11 05:28N 31°57' E 120°18'47211716.6
2014-Oct-11 05:26N 24°20' E 118°08'885102806.1
2014-Oct-11 05:25N 39°05' E 117°45'4987176.4
2014-Oct-11 05:21N 31°22' E 121°30'6582.0
2014-Oct-11 04:33N 32°02' E 120°31'6512315.4
2014-Oct-11 04:33N 31°22' E 121°30'68243857.9
2014-Oct-11 04:33N 32°02' E 120°26'5396.6
2014-Oct-11 04:32N 31°58' E 120°21'34528205.4
2014-Oct-11 04:31N 37°35' E 121°53'97320487.6
2014-Oct-11 04:29N 23°04' E 113°29'3143396.2
2014-Oct-11 04:23N 24°40' E 118°56'8671047.8
2014-Oct-11 03:33N 39°05' E 117°46'445320074.4
2014-Oct-11 03:33N 32°01' E 120°33'6311321.2
2014-Oct-11 03:33N 31°22' E 121°30'7111072.3
2014-Oct-11 03:33N 31°58' E 120°19'21983.4
2014-Oct-11 03:33N 31°58' E 120°21'343205997.9
2014-Oct-11 03:32N 37°34' E 121°50'101334717.5
2014-Oct-11 03:31N 22°10' E 113°53'2683179.2
2014-Oct-11 03:26N 24°20' E 118°08'2675427.6
2014-Oct-11 03:23N 23°05' E 113°28'11141.1
2014-Oct-11 03:18N 22°54' E 113°30'656883.3
2014-Oct-11 02:33N 31°58' E 120°21'34214490.4
2014-Oct-11 02:32N 37°33' E 121°49'97573104.9
2014-Oct-11 02:31N 23°02' E 113°22'542192.0
2014-Oct-11 02:30N 22°13' E 113°46'6874677.9
2014-Oct-11 02:21N 31°22' E 121°30'45813098.7
2014-Oct-11 02:19N 24°20' E 118°08'2801479.8
2014-Oct-11 02:07N 22°14' E 113°35'6871210.4
2014-Oct-11 01:33N 31°58' E 120°21'68458597.0
2014-Oct-11 01:33N 22°15' E 113°40'10131823656.0
2014-Oct-11 01:33N 37°34' E 121°52'81846002.6
2014-Oct-11 01:32N 24°20' E 118°08'26418974.9
2014-Oct-11 01:31N 22°55' E 113°35'66045693.4
2014-Oct-11 01:30N 31°22' E 121°30'772.7
2014-Oct-11 01:24N 31°28' E 121°27'81806.7
2014-Oct-11 01:18N 30°24' E 122°25'435575.4
2014-Oct-11 00:33N 24°14' E 118°07'43792617.7
2014-Oct-11 00:32N 30°25' E 122°27'14218952.8
2014-Oct-11 00:32N 31°58' E 120°21'7113462.2
2014-Oct-11 00:32N 31°23' E 121°34'3719140.8
2014-Oct-11 00:29N 37°34' E 121°51'101516457.2
2014-Oct-11 00:25N 22°14' E 113°35'7027018.2
2014-Oct-11 00:19N 32°01' E 120°48'30977.9
2014-Oct-11 00:18N 31°56' E 120°13'72647.5
2014-Oct-11 00:11N 31°21' E 121°27'377.4
2014-Oct-11 00:09N 31°22' E 121°30'14192.2
2014-Oct-11 00:05N 31°32' E 121°20'88169.6
2014-Oct-10 23:33N 30°25' E 122°27'14827972.8
2014-Oct-10 23:33N 31°56' E 120°11'48121397.2
2014-Oct-10 23:32N 24°08' E 118°01'27053987.3
2014-Oct-10 23:31N 22°14' E 113°35'69550055.6
2014-Oct-10 23:31N 31°28' E 121°27'6495.3
2014-Oct-10 23:30N 31°21' E 121°27'6724224.1
2014-Oct-10 23:30N 31°58' E 120°21'18175.6
2014-Oct-10 23:23N 32°00' E 120°42'561328.2
2014-Oct-10 23:21N 31°22' E 121°30'37417943.0
2014-Oct-10 23:20N 37°35' E 121°52'345448.1
2014-Oct-10 22:33N 31°58' E 120°21'1324031.2
2014-Oct-10 22:33N 31°60' E 120°37'34172106.3
2014-Oct-10 22:33N 37°35' E 121°52'37470797.3
2014-Oct-10 22:33N 31°21' E 121°27'477171580.0
2014-Oct-10 22:33N 24°03' E 117°57'451812516.5
2014-Oct-10 22:33N 30°25' E 122°27'442176904.2
2014-Oct-10 22:33N 37°43' E 121°12'37147663.5
2014-Oct-10 22:32N 31°32' E 121°20'6911833.3
2014-Oct-10 22:32N 31°57' E 120°05'812737.0
2014-Oct-10 22:30N 31°22' E 121°30'4222021.1
2014-Oct-10 22:17N 24°40' E 119°02'3337543.6
2014-Oct-10 22:15N 22°14' E 113°36'687999.4
2014-Oct-10 21:33N 31°58' E 120°21'107293.2
2014-Oct-10 21:33N 32°01' E 120°33'136163676.2
2014-Oct-10 21:33N 30°25' E 122°27'430258003.5
2014-Oct-10 21:33N 37°34' E 121°49'35732971.1
2014-Oct-10 21:33N 31°38' E 121°15'431110880.9
2014-Oct-10 21:32N 24°42' E 119°04'43920283.4
2014-Oct-10 21:31N 31°59' E 119°60'864406.3
2014-Oct-10 21:30N 31°22' E 121°30'360.8
2014-Oct-10 21:27N 31°21' E 121°27'6699830.2
2014-Oct-10 21:23N 22°28' E 113°54'22487.5
2014-Oct-10 21:21N 22°14' E 113°36'10151293.8
2014-Oct-10 20:34N 37°45' E 121°22'347178586.5
2014-Oct-10 20:33N 32°01' E 120°33'136163681.2
2014-Oct-10 20:33N 30°25' E 122°27'432310877.8
2014-Oct-10 20:33N 37°36' E 121°47'37461242.1
2014-Oct-10 20:33N 31°22' E 121°30'282241.8
2014-Oct-10 20:32N 31°42' E 121°08'69311387.9
2014-Oct-10 20:29N 22°17' E 113°38'24912122.7
2014-Oct-10 20:27N 23°54' E 117°48'48827425.0
2014-Oct-10 20:26N 31°21' E 121°27'7686.2
2014-Oct-10 19:33N 30°25' E 122°27'433778569.7
2014-Oct-10 19:33N 37°36' E 121°47'850510232.4
2014-Oct-10 19:33N 23°52' E 117°43'247147909.0
2014-Oct-10 19:33N 23°03' E 113°20'653106827.6
2014-Oct-10 19:33N 31°58' E 120°21'35128118.0
2014-Oct-10 19:32N 37°46' E 121°26'384461148.4
2014-Oct-10 19:32N 31°21' E 121°27'331096.8
2014-Oct-10 19:30N 31°46' E 121°02'347694.5
2014-Oct-10 19:30N 31°22' E 121°30'632530.3
2014-Oct-10 19:28N 32°01' E 120°33'348380.1
2014-Oct-10 18:33N 37°46' E 121°27'348313117.7
2014-Oct-10 18:33N 32°01' E 120°33'61109840.1
2014-Oct-10 18:33N 31°21' E 121°27'3751351275.2
2014-Oct-10 18:33N 37°36' E 121°47'37548226.7
2014-Oct-10 18:33N 31°22' E 121°30'7420602.6
2014-Oct-10 18:33N 30°25' E 122°27'14234119.0
2014-Oct-10 18:32N 31°58' E 120°21'322991.4
2014-Oct-10 18:32N 31°47' E 120°57'658147959.4
2014-Oct-10 18:32N 23°05' E 113°26'2366348.6
2014-Oct-10 18:29N 23°49' E 117°39'2612597.5
2014-Oct-10 18:23N 22°37' E 113°06'6812369.5
2014-Oct-10 18:06N 31°58' E 120°21'712.7
2014-Oct-10 17:33N 32°02' E 120°28'7751.3
2014-Oct-10 17:33N 31°58' E 120°21'34546046.8
2014-Oct-10 17:32N 37°36' E 121°47'43333139.6
2014-Oct-10 17:32N 30°25' E 122°27'767389.6
2014-Oct-10 17:31N 31°21' E 121°27'6562362684.4
2014-Oct-10 17:31N 23°00' E 113°31'97639481.1
2014-Oct-10 17:30N 37°46' E 121°26'973140137.6
2014-Oct-10 17:29N 23°04' E 113°30'6591978.7
2014-Oct-10 17:09N 31°53' E 120°53'66414657.5
2014-Oct-10 17:06N 22°55' E 113°35'9791786.5
2014-Oct-10 16:34N 37°46' E 121°26'350139979.7
2014-Oct-10 16:33N 31°60' E 120°22'1163.3
2014-Oct-10 16:33N 31°58' E 120°21'685308094.0
2014-Oct-10 16:33N 22°17' E 113°35'1014114041.4
2014-Oct-10 16:32N 37°37' E 121°47'43350279.6
2014-Oct-10 16:32N 30°25' E 122°27'65765749.4
2014-Oct-10 16:31N 22°55' E 113°30'5409.4
2014-Oct-10 16:30N 22°55' E 113°35'66087998.3
2014-Oct-10 16:30N 31°22' E 121°30'3258.7
2014-Oct-10 16:29N 31°21' E 121°27'68285.6
2014-Oct-10 16:15N 31°58' E 120°21'6473812.1
2014-Oct-10 16:05N 23°04' E 113°30'6471232.0
2014-Oct-10 15:33N 31°58' E 120°21'55770.0
2014-Oct-10 15:33N 31°56' E 120°16'34883477.5
2014-Oct-10 15:33N 37°36' E 121°47'186021.1
2014-Oct-10 15:33N 37°46' E 121°27'384276454.2
2014-Oct-10 15:33N 31°22' E 121°30'690124257.6
2014-Oct-10 15:33N 22°13' E 113°41'68146281.9
2014-Oct-10 15:32N 30°25' E 122°27'660158283.8
2014-Oct-10 15:31N 22°54' E 113°28'10243.8
2014-Oct-10 15:29N 23°04' E 113°30'65415494.3
2014-Oct-10 15:26N 31°21' E 121°27'567442.3
2014-Oct-10 15:26N 31°60' E 120°40'69292244.5
2014-Oct-10 15:26N 22°37' E 113°06'68110092.1
2014-Oct-10 15:22N 31°58' E 120°21'911.0
2014-Oct-10 14:34N 32°02' E 120°31'349418685.7
2014-Oct-10 14:33N 37°48' E 121°25'446178220.4
2014-Oct-10 14:33N 30°25' E 122°27'142170631.6
2014-Oct-10 14:33N 31°58' E 120°21'68758909.2
2014-Oct-10 14:33N 22°07' E 113°49'606163.8
2014-Oct-10 14:32N 23°04' E 113°30'97246041.0
2014-Oct-10 14:31N 37°36' E 121°47'3452308.8
2014-Oct-10 14:22N 31°58' E 120°21'704908.6
2014-Oct-10 14:21N 31°22' E 121°30'6686948.6
2014-Oct-10 14:15N 22°54' E 113°22'9851419.2
2014-Oct-10 13:33N 37°48' E 121°22'234348.8
2014-Oct-10 13:33N 37°35' E 121°46'344112679.2
2014-Oct-10 13:33N 31°58' E 120°21'64743955.8
2014-Oct-10 13:32N 23°04' E 113°30'65252137.1
2014-Oct-10 13:31N 30°25' E 122°27'1427220.2
2014-Oct-10 13:30N 31°58' E 120°21'6526706.5
2014-Oct-10 13:24N 22°55' E 113°35'66011534.3
2014-Oct-10 13:21N 31°22' E 121°30'312.7
2014-Oct-10 13:09N 31°21' E 121°27'67113.6
2014-Oct-10 12:33N 31°58' E 120°21'81066.7
2014-Oct-10 12:33N 31°56' E 120°12'7544954.7
2014-Oct-10 12:33N 31°22' E 121°30'745055.1
2014-Oct-10 12:32N 30°25' E 122°27'762056.4
2014-Oct-10 12:30N 31°21' E 121°27'66336148.6
2014-Oct-10 12:29N 22°54' E 113°28'98484379.9
2014-Oct-10 12:28N 37°48' E 121°27'9757119.8
2014-Oct-10 12:20N 23°04' E 113°29'1162.7
2014-Oct-10 12:09N 22°55' E 113°35'6521095.5
2014-Oct-10 11:33N 31°58' E 120°21'64728076.5
2014-Oct-10 11:32N 23°04' E 113°29'654181238.7
2014-Oct-10 11:32N 31°21' E 121°27'762941.1
2014-Oct-10 11:30N 30°25' E 122°27'7411163.4
2014-Oct-10 11:30N 31°22' E 121°30'6606947.8
2014-Oct-10 11:24N 22°55' E 113°35'642256943.5
2014-Oct-10 11:24N 31°58' E 120°01'3574694.7
2014-Oct-10 11:20N 37°48' E 121°31'354461.4
2014-Oct-10 10:33N 31°58' E 120°21'51276807.3
2014-Oct-10 10:33N 23°47' E 117°39'23410918.9
2014-Oct-10 10:32N 23°04' E 113°29'11410.4
2014-Oct-10 10:30N 22°55' E 113°35'660139779.4
2014-Oct-10 10:30N 31°22' E 121°30'7422319.5
2014-Oct-10 10:30N 30°25' E 122°27'4366132.6
2014-Oct-10 10:25N 37°41' E 122°14'9931130.8
2014-Oct-10 09:33N 22°55' E 113°35'99439340.3
2014-Oct-10 09:31N 37°42' E 122°16'98824205.2
2014-Oct-10 09:29N 23°04' E 113°29'652469425.6
2014-Oct-10 09:29N 30°25' E 122°27'4458620.3
2014-Oct-10 09:26N 37°47' E 121°22'86782102.6
2014-Oct-10 09:25N 23°43' E 117°35'517602.3
2014-Oct-10 08:33N 31°58' E 120°21'14263969.4
2014-Oct-10 08:33N 30°25' E 122°27'65553552.6
2014-Oct-10 08:33N 22°55' E 113°35'2223728.2
2014-Oct-10 08:29N 23°40' E 117°32'22554115.4
2014-Oct-10 08:29N 23°04' E 113°29'63812092.8
2014-Oct-10 08:26N 32°01' E 119°58'348418107.1
2014-Oct-10 08:26N 37°44' E 121°13'471585.5
2014-Oct-10 08:24N 37°42' E 122°12'3828242.5
2014-Oct-10 08:21N 31°22' E 121°30'69010444.2
2014-Oct-10 08:17N 22°38' E 113°06'4002301.4
2014-Oct-10 08:07N 22°33' E 120°19'5651021.4
2014-Oct-10 07:33N 31°58' E 120°21'697561.2
2014-Oct-10 07:33N 31°22' E 121°30'676486608.9
2014-Oct-10 07:33N 22°27' E 113°47'412396.7
2014-Oct-10 07:32N 23°04' E 113°29'373122197.3
2014-Oct-10 07:32N 22°31' E 120°12'567203941.6
2014-Oct-10 07:31N 31°58' E 120°05'15321181.2
2014-Oct-10 07:31N 30°25' E 122°27'68617893.8
2014-Oct-10 07:29N 22°38' E 113°06'69257915.5
2014-Oct-10 07:28N 31°49' E 120°55'66270136.7
2014-Oct-10 07:27N 23°02' E 113°24'99029227.1
2014-Oct-10 07:25N 37°43' E 122°08'360415.3
2014-Oct-10 06:33N 31°56' E 120°10'64071970.2
2014-Oct-10 06:33N 23°04' E 113°30'647388250.4
2014-Oct-10 06:33N 31°58' E 120°21'64740177.8
2014-Oct-10 06:32N 23°04' E 113°29'660339332.3
2014-Oct-10 06:32N 31°46' E 121°03'3603747.6
2014-Oct-10 06:26N 37°43' E 122°03'9913556.0
2014-Oct-10 06:09N 22°55' E 113°35'35688.5
2014-Oct-10 06:06N 22°20' E 113°41'6741234.7
2014-Oct-10 05:33N 31°56' E 120°13'5246931.3
2014-Oct-10 05:33N 31°41' E 121°12'693311893.0
2014-Oct-10 05:33N 22°17' E 113°40'68340291.2
2014-Oct-10 05:32N 31°58' E 120°21'647105926.4
2014-Oct-10 05:32N 23°04' E 113°29'98343673.9
2014-Oct-10 05:30N 37°44' E 121°56'101625754.4
2014-Oct-10 05:28N 22°38' E 113°06'29385.8
2014-Oct-10 05:24N 23°02' E 113°22'3711822.0
2014-Oct-10 05:11N 22°32' E 120°03'566897.8
2014-Oct-10 04:34N 31°58' E 120°21'41234.9
2014-Oct-10 04:33N 31°57' E 120°16'64592898.6
2014-Oct-10 04:33N 23°04' E 113°26'6100.6
2014-Oct-10 04:30N 23°01' E 113°31'66022222.0
2014-Oct-10 04:28N 31°34' E 121°20'69330079.3
2014-Oct-10 04:26N 22°38' E 113°06'386231384.7
2014-Oct-10 04:26N 22°33' E 120°03'9171042.0
2014-Oct-10 03:34N 37°46' E 121°49'  
Track history (hours):
 
Tides and Currents Weather Stations Pressure Air Temp Water Temp Dewpoint Dewpoint Depression Visibility Wind Speed Wind Dir Waves Ship Positions

Callsign 000000 (name unknown)

Last reported at 2014-Oct-20 03:33 UTC. Time now 2014-Oct-20 04:27 UTC.
Position N 32°04' E 120°28'.

Type: Fishing. MMSI: 200007452.

Date/timePositionNaut miles runAvg speedWind from/ knotsBaromVisibWave heightAir tempDewpointWater temp
2014-Oct-20 03:33N 32°04' E 120°28'655393219.6
2014-Oct-20 03:33N 23°04' E 113°30'467821.2
2014-Oct-20 03:33N 22°20' E 113°42'693356195.4
2014-Oct-20 03:33N 32°02' E 120°45'5432415.2
2014-Oct-20 03:33N 31°21' E 121°27'661132222.6
2014-Oct-20 03:33N 22°51' E 113°34'28808.1
2014-Oct-20 03:30N 22°27' E 113°47'66854627.1
2014-Oct-20 03:30N 30°25' E 122°27'1167476.3
2014-Oct-20 03:29N 31°50' E 120°54'201076.8
2014-Oct-20 03:28N 32°01' E 120°35'23293.7
2014-Oct-20 03:23N 31°47' E 120°55'1 9.6
2014-Oct-20 03:17N 31°47' E 120°54'6 8.8
2014-Oct-20 02:33N 31°47' E 121°02'6592372487.5
2014-Oct-20 02:33N 23°04' E 113°29'652782283.9
2014-Oct-20 02:33N 30°25' E 122°27'763188.1
2014-Oct-20 02:32N 31°21' E 121°27'68855003.0
2014-Oct-20 02:31N 22°15' E 113°39'69530533.4
2014-Oct-20 02:30N 31°45' E 121°06'25510.7
2014-Oct-20 02:27N 32°02' E 120°45'182256.0
2014-Oct-20 02:26N 31°47' E 120°55'50528.0
2014-Oct-20 02:21N 32°01' E 119°59'681860.7
2014-Oct-20 01:33N 22°12' E 113°34'698279174.1
2014-Oct-20 01:33N 32°04' E 120°29'14184857.1
2014-Oct-20 01:33N 30°25' E 122°27'652117342.6
2014-Oct-20 01:33N 23°04' E 113°29'660215909.8
2014-Oct-20 01:33N 31°42' E 121°10'66518704.9
2014-Oct-20 01:30N 23°02' E 113°22'66133528.6
2014-Oct-20 01:29N 31°22' E 121°29'82296760.9
2014-Oct-20 01:29N 31°58' E 120°02'25250.2
2014-Oct-20 01:23N 32°01' E 120°32'6639783.5
2014-Oct-20 01:19N 22°51' E 113°34'17223769.9
2014-Oct-20 01:19N 23°09' E 116°39'5653596.9
2014-Oct-20 01:09N 31°47' E 120°54'677187473.4
2014-Oct-20 01:09N 22°27' E 113°46'9921669.0
2014-Oct-20 00:33N 37°42' E 121°10'44179414.0
2014-Oct-20 00:33N 30°25' E 122°27'7533967.0
2014-Oct-20 00:33N 31°22' E 121°29'64231502.7
2014-Oct-20 00:33N 32°04' E 120°32'66333157.7
2014-Oct-20 00:32N 22°56' E 113°30'661264231.0
2014-Oct-20 00:32N 32°01' E 120°32'570513035.5
2014-Oct-20 00:32N 23°09' E 116°39'56478116.4
2014-Oct-20 00:31N 31°37' E 121°17'70033598.3
2014-Oct-20 00:30N 22°11' E 113°34'69719001.3
2014-Oct-20 00:28N 31°47' E 120°55'65628788.4
2014-Oct-20 00:26N 23°04' E 113°29'6553148.7
2014-Oct-20 00:14N 31°47' E 120°54'171213.4
2014-Oct-20 00:13N 32°02' E 120°45'6855563.5
2014-Oct-20 00:06N 22°27' E 113°47'6781266.0
2014-Oct-19 23:33N 32°01' E 120°32'2421723.1
2014-Oct-19 23:33N 31°47' E 120°54'35764233.7
2014-Oct-19 23:33N 37°43' E 121°20'35732106.4
2014-Oct-19 23:32N 31°47' E 120°55'11311000.8
2014-Oct-19 23:32N 30°25' E 122°27'75271752.2
2014-Oct-19 23:32N 31°22' E 121°29'69586242.3
2014-Oct-19 23:31N 22°12' E 113°34'21337.7
2014-Oct-19 23:28N 22°28' E 113°48'40544.2
2014-Oct-19 23:23N 23°04' E 113°29'111523.2
2014-Oct-19 23:23N 22°54' E 113°24'67210570.0
2014-Oct-19 23:19N 32°02' E 120°45'46486.8
2014-Oct-19 23:13N 31°31' E 121°24'56214149.2
2014-Oct-19 23:11N 23°09' E 116°39'561892.3
2014-Oct-19 22:33N 31°28' E 121°28'343823.6
2014-Oct-19 22:33N 31°47' E 120°54'418753238.2
2014-Oct-19 22:33N 38°44' E 121°31'6172748.0
2014-Oct-19 22:33N 37°43' E 121°30'34625915.9
2014-Oct-19 22:32N 32°00' E 120°40'13222604.5
2014-Oct-19 22:31N 30°25' E 122°27'1388394.0
2014-Oct-19 22:30N 32°01' E 120°32'69759710.4
2014-Oct-19 22:30N 22°11' E 113°35'69719140.5
2014-Oct-19 22:28N 31°47' E 120°55'65628442.2
2014-Oct-19 22:26N 23°04' E 113°29'14454.1
2014-Oct-19 22:24N 22°51' E 113°34'9831155.8
2014-Oct-19 21:33N 37°43' E 121°32'358644484.2
2014-Oct-19 21:33N 31°47' E 120°55'1162.3
2014-Oct-19 21:33N 31°47' E 120°54'11425553.0
2014-Oct-19 21:33N 30°25' E 122°27'796281.0
2014-Oct-19 21:32N 31°26' E 121°29'66612624.1
2014-Oct-19 21:29N 22°51' E 113°34'66685618.3
2014-Oct-19 21:28N 31°24' E 121°31'697278820.3
2014-Oct-19 21:28N 22°11' E 113°35'69655717.5
2014-Oct-19 21:27N 32°01' E 120°32'6559099.1
2014-Oct-19 21:23N 23°04' E 113°29'6626406.6
2014-Oct-19 21:17N 32°02' E 120°45'24184.1
2014-Oct-19 21:09N 31°58' E 120°17'3456.4
2014-Oct-19 20:33N 31°47' E 120°54'3581290528.4
2014-Oct-19 20:33N 37°43' E 121°36'985506439.0
2014-Oct-19 20:33N 22°51' E 113°34'670172381.8
2014-Oct-19 20:33N 32°02' E 120°45'13042619.9
2014-Oct-19 20:33N 30°25' E 122°27'1449630.7
2014-Oct-19 20:32N 31°56' E 120°16'141614.0
2014-Oct-19 20:31N 32°01' E 120°32'69616941.3
2014-Oct-19 20:29N 22°11' E 113°35'69619432.8
2014-Oct-19 20:27N 31°47' E 120°55'49659497.7
2014-Oct-19 20:26N 23°52' E 118°14'2665200.1
2014-Oct-19 20:23N 23°04' E 113°29'102715868.5
2014-Oct-19 20:19N 38°43' E 121°35'116451.4
2014-Oct-19 20:04N 36°53' E 122°26'316625.2
2014-Oct-19 19:33N 31°47' E 120°54'359107709.2
2014-Oct-19 19:33N 37°44' E 121°32'442122278.5
2014-Oct-19 19:33N 30°25' E 122°27'13058604.4
2014-Oct-19 19:33N 32°02' E 120°45'3011816.1
2014-Oct-19 19:33N 31°56' E 120°11'3181143781.4
2014-Oct-19 19:33N 36°53' E 122°28'9961194781.8
2014-Oct-19 19:33N 22°11' E 113°35'69627547.6
2014-Oct-19 19:31N 31°47' E 120°55'252884.6
2014-Oct-19 19:31N 32°01' E 120°32'663149202.6
2014-Oct-19 19:30N 22°51' E 113°34'14195.8
2014-Oct-19 19:26N 23°04' E 113°29'655744.6
2014-Oct-19 18:33N 31°47' E 120°54'359143587.2
2014-Oct-19 18:33N 37°45' E 121°27'35944549.6
2014-Oct-19 18:33N 31°47' E 120°55'696835617.0
2014-Oct-19 18:33N 22°11' E 113°35'69696437.7
2014-Oct-19 18:32N 32°01' E 120°32'11281.6
2014-Oct-19 18:30N 32°02' E 120°45'34311.4
2014-Oct-19 18:23N 31°57' E 120°06'638135157.9
2014-Oct-19 18:23N 23°04' E 113°29'2731121.8
2014-Oct-19 18:09N 23°55' E 118°21'2715699.1
2014-Oct-19 18:06N 22°52' E 113°34'6621235.0
2014-Oct-19 17:34N 31°47' E 120°54'35999443.7
2014-Oct-19 17:33N 37°45' E 121°29'35999419.4
2014-Oct-19 17:33N 31°47' E 120°55'696139271.5
2014-Oct-19 17:33N 22°11' E 113°35'4478420.4
2014-Oct-19 17:33N 22°55' E 113°35'187.8
2014-Oct-19 17:32N 22°56' E 113°36'6588970.4
2014-Oct-19 17:27N 32°01' E 120°31'65530212.7
2014-Oct-19 17:26N 23°04' E 113°29'65227614.6
2014-Oct-19 17:25N 30°25' E 122°27'1315955.8
2014-Oct-19 17:23N 32°02' E 120°45'371316.9
2014-Oct-19 17:22N 31°58' E 120°02'581384.7
2014-Oct-19 17:19N 31°42' E 121°08'28124.8
2014-Oct-19 17:06N 32°02' E 120°45'67016875.7
2014-Oct-19 17:04N 22°51' E 113°34'6631320.3
2014-Oct-19 16:33N 32°01' E 120°31'255255.8
2014-Oct-19 16:33N 31°47' E 120°55'696139274.3
2014-Oct-19 16:33N 22°11' E 113°35'69620041.7
2014-Oct-19 16:31N 31°47' E 120°54'35921886.1
2014-Oct-19 16:30N 37°44' E 121°34'36031594.3
2014-Oct-19 16:29N 31°45' E 121°05'6619180.8
2014-Oct-19 16:25N 22°57' E 113°38'103013736.0
2014-Oct-19 16:20N 38°43' E 121°32'5002333.4
2014-Oct-19 16:07N 30°25' E 122°27'1305390.2
2014-Oct-19 16:06N 32°02' E 120°45'1832.1
2014-Oct-19 15:33N 31°47' E 120°55'185739.3
2014-Oct-19 15:33N 32°02' E 120°45'40327393.3
2014-Oct-19 15:32N 38°43' E 121°29'40515682.8
2014-Oct-19 15:31N 32°01' E 120°31'638096.7
2014-Oct-19 15:30N 31°24' E 121°31'697100312.5
2014-Oct-19 15:30N 22°11' E 113°35'421105.8
2014-Oct-19 15:27N 22°54' E 113°31'11552.7
2014-Oct-19 15:26N 23°04' E 113°29'65529483.3
2014-Oct-19 15:25N 31°47' E 120°54'67311825.6
2014-Oct-19 15:21N 22°19' E 114°08'100337237.8
2014-Oct-19 15:20N 37°43' E 121°39'9781264.4
2014-Oct-19 14:33N 22°60' E 113°31'979881135.3
2014-Oct-19 14:33N 37°42' E 121°42'102252559.0
2014-Oct-19 14:32N 22°11' E 113°36'69545516.9
2014-Oct-19 14:31N 31°47' E 120°54'17825.1
2014-Oct-19 14:30N 32°02' E 120°45'542102.0
2014-Oct-19 14:28N 31°22' E 121°28'624550.7
2014-Oct-19 14:28N 32°01' E 120°32'66015953.6
2014-Oct-19 14:25N 23°03' E 113°20'65928929.2
2014-Oct-19 14:24N 30°25' E 122°27'65269037.6
2014-Oct-19 14:23N 23°04' E 113°29'14146.0
2014-Oct-19 14:18N 22°51' E 113°34'6536736.3
2014-Oct-19 14:12N 31°57' E 120°17'64713300.2
2014-Oct-19 14:09N 22°57' E 113°37'9791653.2
2014-Oct-19 13:33N 37°43' E 121°38'354159203.3
2014-Oct-19 13:33N 31°56' E 120°15'68048973.6
2014-Oct-19 13:32N 22°14' E 113°40'69245295.9
2014-Oct-19 13:31N 32°01' E 120°32'627432.9
2014-Oct-19 13:31N 31°22' E 121°28'65678720.3
2014-Oct-19 13:30N 23°05' E 113°26'654117641.3
2014-Oct-19 13:30N 30°25' E 122°27'6529946.0
2014-Oct-19 13:26N 23°04' E 113°29'6559003.0
2014-Oct-19 13:22N 31°47' E 120°54'66313567.6
2014-Oct-19 13:19N 22°51' E 113°34'66470280.4
2014-Oct-19 13:18N 31°47' E 120°55'18447.7
2014-Oct-19 13:16N 32°02' E 120°45'66436766.4
2014-Oct-19 13:15N 22°57' E 113°37'10125.6
2014-Oct-19 13:10N 23°04' E 113°30'4879.2
2014-Oct-19 12:34N 22°17' E 113°44'1012227781.8
2014-Oct-19 12:33N 37°44' E 121°33'3591292359.2
2014-Oct-19 12:33N 31°47' E 120°55'674161852.6
2014-Oct-19 12:33N 22°18' E 114°08'1056253506.5
2014-Oct-19 12:33N 38°44' E 121°29'41339121.5
2014-Oct-19 12:32N 31°56' E 120°07'774061.2
2014-Oct-19 12:31N 31°22' E 121°28'621581.4
2014-Oct-19 12:29N 32°01' E 120°32'69173174.9
2014-Oct-19 12:28N 22°15' E 113°40'511646.8
2014-Oct-19 12:26N 23°04' E 113°29'0 0.8
2014-Oct-19 12:19N 23°04' E 113°29'6525458.2
2014-Oct-19 12:12N 30°25' E 122°27'1141919.3
2014-Oct-19 12:09N 31°47' E 120°54'114194.1
2014-Oct-19 11:33N 30°25' E 122°27'445228779.0
2014-Oct-19 11:33N 37°47' E 121°30'1018229021.2
2014-Oct-19 11:33N 22°11' E 113°48'1913822.9
2014-Oct-19 11:33N 22°18' E 114°08'674242612.9
2014-Oct-19 11:33N 31°47' E 120°54'65865821.0
2014-Oct-19 11:32N 22°56' E 113°36'65751424.6
2014-Oct-19 11:31N 31°22' E 121°28'68054396.6
2014-Oct-19 11:31N 22°22' E 113°44'683204964.4
2014-Oct-19 11:30N 32°01' E 120°32'25255.9
2014-Oct-19 11:25N 31°47' E 120°55'6564047.8
2014-Oct-19 11:15N 23°04' E 113°30'66319721.7
2014-Oct-19 11:13N 31°59' E 120°51'6634589.5
2014-Oct-19 11:04N 23°04' E 113°30'9761872.8
2014-Oct-19 10:33N 37°50' E 121°25'36419292.2
2014-Oct-19 10:32N 31°47' E 120°54'383160.3
2014-Oct-19 10:31N 31°22' E 121°28'662625.8
2014-Oct-19 10:30N 32°02' E 120°27'293444.8
2014-Oct-19 10:29N 31°47' E 120°55'65643701.9
2014-Oct-19 10:28N 23°04' E 113°30'66017595.8
2014-Oct-19 10:26N 32°00' E 120°43'13031190.9
2014-Oct-19 10:26N 30°25' E 122°27'66112330.1
2014-Oct-19 10:23N 22°18' E 114°08'68268198.4
2014-Oct-19 10:22N 32°02' E 120°45'6624774.2
2014-Oct-19 10:14N 23°04' E 113°30'646965.6
2014-Oct-19 09:33N 31°59' E 120°19'310367.7
2014-Oct-19 09:33N 31°60' E 120°22'30822.8
2014-Oct-19 09:31N 31°47' E 120°54'3867945.8
2014-Oct-19 09:31N 31°22' E 121°28'582240.6
2014-Oct-19 09:30N 31°60' E 120°36'2174517.9
2014-Oct-19 09:30N 31°47' E 120°55'65539328.2
2014-Oct-19 09:29N 23°04' E 113°30'66258105.9
2014-Oct-19 09:28N 32°02' E 120°45'68268193.7
2014-Oct-19 09:27N 22°18' E 114°08'10597428.5
2014-Oct-19 09:19N 38°44' E 121°36'6482.4
2014-Oct-19 08:32N 37°43' E 121°13'343137382.9
2014-Oct-19 08:32N 32°01' E 120°31'2514847.3
2014-Oct-19 08:32N 31°47' E 120°54'333653.8
2014-Oct-19 08:32N 31°57' E 120°17'6292.8
2014-Oct-19 08:30N 32°01' E 120°22'64917319.6
2014-Oct-19 08:28N 23°04' E 113°30'65248878.5
2014-Oct-19 08:27N 30°25' E 122°27'65220945.4
2014-Oct-19 08:26N 23°04' E 113°30'654138579.2
2014-Oct-19 08:25N 31°22' E 121°28'54976.8
2014-Oct-19 08:22N 32°02' E 120°45'181150.6
2014-Oct-19 08:21N 31°47' E 120°55'6566483.1
2014-Oct-19 08:15N 23°04' E 113°30'651936.6
2014-Oct-19 07:33N 32°01' E 120°25'295159.8
2014-Oct-19 07:33N 31°47' E 120°54'381461.4
2014-Oct-19 07:31N 31°22' E 121°28'682415.8
2014-Oct-19 07:30N 32°01' E 120°22'64937107.4
2014-Oct-19 07:29N 23°04' E 113°30'029.3
2014-Oct-19 07:28N 23°04' E 113°30'65247881.0
2014-Oct-19 07:27N 30°25' E 122°27'65280897.8
2014-Oct-19 07:27N 23°04' E 113°30'656262203.4
2014-Oct-19 07:27N 31°47' E 120°55'18576.1
2014-Oct-19 07:25N 32°02' E 120°45'6702893.6
2014-Oct-19 07:11N 22°51' E 113°34'6561041.9
2014-Oct-19 06:33N 31°59' E 120°21'3219089.8
2014-Oct-19 06:33N 31°47' E 120°55'11367840.8
2014-Oct-19 06:33N 30°25' E 122°27'114204431.4
2014-Oct-19 06:33N 31°47' E 120°54'663119399.5
2014-Oct-19 06:33N 22°51' E 113°34'658338517.7
2014-Oct-19 06:33N 32°01' E 120°22'683422.4
2014-Oct-19 06:31N 31°22' E 121°28'65412532.9
2014-Oct-19 06:28N 23°04' E 113°30'0 3.7
2014-Oct-19 06:26N 23°04' E 113°30'10276451.6
2014-Oct-19 06:16N 38°44' E 121°31'40336266.5
2014-Oct-19 06:15N 32°04' E 120°29'65633730.3
2014-Oct-19 06:14N 23°04' E 113°30'6625540.4
2014-Oct-19 06:07N 32°02' E 120°45'2545.0
2014-Oct-19 05:33N 31°56' E 120°16'348257.7
2014-Oct-19 05:33N 31°47' E 120°54'314677.6
2014-Oct-19 05:33N 32°01' E 120°22'649212524.1
2014-Oct-19 05:32N 23°04' E 113°30'3413448.6
2014-Oct-19 05:32N 22°34' E 113°46'66376970.9
2014-Oct-19 05:32N 30°25' E 122°27'14218202.3
2014-Oct-19 05:31N 32°04' E 120°29'293122.6
2014-Oct-19 05:31N 31°47' E 120°55'371056.7
2014-Oct-19 05:29N 31°22' E 121°28'49842706.9
2014-Oct-19 05:28N 39°05' E 117°44'177159010.2
2014-Oct-19 05:28N 38°44' E 121°29'105516949.5
2014-Oct-19 05:24N 22°27' E 113°48'41260.7
2014-Oct-19 05:15N 23°04' E 113°30'66221856.8
2014-Oct-19 05:13N 32°02' E 120°45'44821228.5
2014-Oct-19 05:12N 39°05' E 117°44'98641256.2
2014-Oct-19 05:10N 23°04' E 113°30'3861.7
2014-Oct-19 04:33N 22°31' E 113°51'67128431.5
2014-Oct-19 04:32N 31°47' E 120°54'38136186.6
2014-Oct-19 04:32N 31°22' E 121°28'665266.7
2014-Oct-19 04:31N 32°04' E 120°29'181405.4
2014-Oct-19 04:30N 31°56' E 120°10'44369384.3
2014-Oct-19 04:30N 39°04' E 117°50'2107.1
2014-Oct-19 04:29N 39°04' E 117°47'986168962.8
2014-Oct-19 04:28N 23°04' E 113°30'6508411.1
2014-Oct-19 04:24N 32°01' E 120°22'65011188.4
2014-Oct-19 04:20N 23°04' E 113°29'65610217.2
2014-Oct-19 04:16N 31°47' E 120°55'1 1.1
2014-Oct-19 03:33N 31°47' E 120°54'671268258.0
2014-Oct-19 03:33N 22°32' E 113°51'667100012.6
2014-Oct-19 03:33N 32°01' E 120°22'14443075.6
2014-Oct-19 03:32N 30°25' E 122°27'652195580.3
2014-Oct-19 03:32N 23°04' E 113°29'66491968.2
2014-Oct-19 03:32N 32°02' E 120°49'18521.6
2014-Oct-19 03:30N 32°04' E 120°29'4414814.9
2014-Oct-19 03:24N 39°05' E 117°44'99749175.3
2014-Oct-19 03:23N 22°51' E 113°34'99715814.1
2014-Oct-19 03:19N 39°05' E 117°45'44227896.6
2014-Oct-19 03:18N 31°58' E 120°03'46780.4
2014-Oct-19 03:15N 31°47' E 120°55'18272.0
2014-Oct-19 03:11N 32°02' E 120°45'130206.6
2014-Oct-19 02:33N 30°25' E 122°27'14419893.9
2014-Oct-19 02:33N 32°01' E 120°22'191707.9
2014-Oct-19 02:32N 32°02' E 120°45'66214099.9
2014-Oct-19 02:29N 23°04' E 113°29'65653641.7
2014-Oct-19 02:28N 31°47' E 120°55'656294987.8
2014-Oct-19 02:28N 23°04' E 113°30'985141875.8
2014-Oct-19 02:28N 39°04' E 117°48'46326045.6
2014-Oct-19 02:27N 31°47' E 120°54'46214857.1
2014-Oct-19 02:25N 39°04' E 117°51'4384300.6
2014-Oct-19 02:19N 32°06' E 120°32'6763052.5
2014-Oct-19 02:06N 22°32' E 113°51'0 0.0
2014-Oct-19 01:33N 22°31' E 113°51'66753340.9
2014-Oct-19 01:33N 32°01' E 120°22'65077946.7
2014-Oct-19 01:32N 23°04' E 113°29'662183293.4
2014-Oct-19 01:32N 32°02' E 120°45'182628.9
2014-Oct-19 01:32N 31°47' E 120°55'169430.6
2014-Oct-19 01:31N 32°02' E 120°49'12811199.3
2014-Oct-19 01:31N 30°25' E 122°27'65894770.4
2014-Oct-19 01:30N 22°51' E 113°34'66526027.2
2014-Oct-19 01:29N 31°31' E 121°20'48424551.5
2014-Oct-19 01:28N 39°04' E 117°50'1019192985.2
2014-Oct-19 01:27N 22°27' E 113°48'41220.8
2014-Oct-19 01:16N 23°04' E 113°30'58674.5
2014-Oct-19 01:11N 22°19' E 114°09'17452.2
2014-Oct-19 01:09N 22°09' E 113°54'4 6.7
2014-Oct-19 00:33N 22°11' E 113°50'686822832.7
2014-Oct-19 00:33N 32°01' E 120°22'14415668.5
2014-Oct-19 00:32N 30°25' E 122°27'8226933.8
2014-Oct-19 00:32N 31°29' E 121°26'68416875.7
2014-Oct-19 00:29N 22°23' E 113°43'432104.7
2014-Oct-19 00:28N 23°04' E 113°30'66416376.2
2014-Oct-19 00:26N 32°02' E 120°49'6647032.7
2014-Oct-19 00:20N 23°04' E 113°29'6596759.0
2014-Oct-19 00:14N 31°36' E 121°17'21361.1
2014-Oct-19 00:11N 31°47' E 120°55'18221.3
2014-Oct-19 00:06N 32°02' E 120°45'1731.7
2014-Oct-18 23:33N 31°47' E 120°54'689103410.0
2014-Oct-18 23:33N 22°14' E 113°43'697278882.8
2014-Oct-18 23:33N 32°02' E 120°45'193890.1
2014-Oct-18 23:33N 32°01' E 120°22'6927695.7
2014-Oct-18 23:32N 31°24' E 121°31'658107727.4
2014-Oct-18 23:32N 23°04' E 113°29'652102044.2
2014-Oct-18 23:32N 30°25' E 122°27'44179430.1
2014-Oct-18 23:31N 37°42' E 121°09'100348803.0
2014-Oct-18 23:30N 22°17' E 113°40'48361.2
2014-Oct-18 23:22N 23°04' E 113°30'6567023.9
2014-Oct-18 23:17N 31°47' E 120°55'4373605.3
2014-Oct-18 23:09N 24°41' E 119°05'388647.1
2014-Oct-18 22:33N 30°25' E 122°27'44251308.4
2014-Oct-18 22:33N 37°43' E 121°19'96875771.0
2014-Oct-18 22:32N 23°04' E 113°29'65015907.6
2014-Oct-18 22:30N 32°01' E 120°22'692146470.0
2014-Oct-18 22:29N 22°11' E 113°36'532799.9
2014-Oct-18 22:28N 23°04' E 113°30'65859227.9
2014-Oct-18 22:28N 31°24' E 121°31'79449.7
2014-Oct-18 22:17N 31°58' E 120°06'66215688.7
2014-Oct-18 22:15N 22°28' E 113°46'67854225.0
2014-Oct-18 22:14N 31°48' E 120°55'6616466.9
2014-Oct-18 22:08N 22°55' E 113°35'9781713.1
2014-Oct-18 21:33N 37°44' E 121°28'34729767.5
2014-Oct-18 21:33N 32°01' E 120°22'692191574.5
2014-Oct-18 21:32N 22°12' E 113°34'5315755.8
2014-Oct-18 21:32N 23°04' E 113°29'014.5
2014-Oct-18 21:32N 23°04' E 113°29'65224450.8
2014-Oct-18 21:30N 30°25' E 122°27'6558153.3
2014-Oct-18 21:26N 22°55' E 113°35'453.5
2014-Oct-18 21:21N 22°51' E 113°34'66718621.6
2014-Oct-18 21:19N 31°52' E 120°53'12135.8
2014-Oct-18 21:14N 32°02' E 120°45'1781069.1
2014-Oct-18 21:04N 34°49' E 119°31'3 5.0
2014-Oct-18 20:33N 34°50' E 119°28'304365192.7
2014-Oct-18 20:33N 30°25' E 122°27'14513747.7
2014-Oct-18 20:33N 31°57' E 120°15'73091.4
2014-Oct-18 20:33N 32°01' E 120°22'692249049.8
2014-Oct-18 20:32N 22°12' E 113°34'3911808.9
2014-Oct-18 20:32N 22°51' E 113°34'142897.0
2014-Oct-18 20:32N 23°04' E 113°29'97318831.9
2014-Oct-18 20:29N 37°43' E 121°33'3442587.7
2014-Oct-18 20:21N 32°02' E 120°45'66248628.1
2014-Oct-18 20:20N 23°04' E 113°29'9741249.2
2014-Oct-18 19:33N 37°43' E 121°35'350157633.0
2014-Oct-18 19:33N 31°58' E 120°20'214431.4
2014-Oct-18 19:33N 32°02' E 120°45'704361807.6
2014-Oct-18 19:33N 22°12' E 113°34'692276765.3
2014-Oct-18 19:33N 32°01' E 120°22'6581184874.2
2014-Oct-18 19:33N 22°51' E 113°34'141296.6
2014-Oct-18 19:32N 23°04' E 113°29'0 1.2
2014-Oct-18 19:29N 23°04' E 113°29'652335276.7
2014-Oct-18 19:29N 30°25' E 122°27'128846.7
2014-Oct-18 19:20N 32°00' E 120°47'40292.6
2014-Oct-18 19:12N 31°59' E 119°59'1813057.1
2014-Oct-18 19:08N 29°49' E 122°25'3662.3
2014-Oct-18 18:33N 30°25' E 122°27'658338479.0
2014-Oct-18 18:33N 22°51' E 113°34'403987.8
2014-Oct-18 18:32N 22°11' E 113°35'7011261646.8
2014-Oct-18 18:32N 32°00' E 120°42'34544348.7
2014-Oct-18 18:32N 37°42' E 121°38'34796013.7
2014-Oct-18 18:32N 32°01' E 120°22'65016238.7
2014-Oct-18 18:29N 23°04' E 113°29'0 0.2
2014-Oct-18 18:08N 23°04' E 113°29'10478.3
2014-Oct-18 18:07N 22°54' E 113°30'30645.9
2014-Oct-18 18:04N 22°28' E 113°46'6771337.4
2014-Oct-18 17:34N 31°24' E 121°31'587470.4
2014-Oct-18 17:33N 32°00' E 120°37'66599748.1
2014-Oct-18 17:33N 22°51' E 113°34'141296.6
2014-Oct-18 17:32N 23°04' E 113°29'652146692.4
2014-Oct-18 17:32N 30°25' E 122°27'144103412.1
2014-Oct-18 17:32N 32°01' E 120°22'69215006.3
2014-Oct-18 17:29N 22°11' E 113°35'53271.3
2014-Oct-18 17:17N 23°04' E 113°29'657897.6
2014-Oct-18 16:33N 32°03' E 120°33'666149760.7
2014-Oct-18 16:33N 22°51' E 113°34'658182254.4
2014-Oct-18 16:33N 30°25' E 122°27'65261764.5
2014-Oct-18 16:32N 23°04' E 113°29'057.1
2014-Oct-18 16:32N 23°04' E 113°29'64270075.0
2014-Oct-18 16:31N 31°57' E 120°14'68516327.0
2014-Oct-18 16:29N 22°11' E 113°35'68118299.6
2014-Oct-18 16:27N 31°56' E 120°08'13759.5
2014-Oct-18 16:26N 32°01' E 120°22'691381.1
2014-Oct-18 16:23N 31°24' E 121°31'6680.2
2014-Oct-18 15:33N 32°04' E 120°29'6623860.6
2014-Oct-18 15:33N 31°23' E 121°30'702960.9
2014-Oct-18 15:32N 31°59' E 120°20'2515.4
2014-Oct-18 15:32N 32°01' E 120°22'321816.6
2014-Oct-18 15:31N 31°47' E 120°55'422670.6
2014-Oct-18 15:30N 31°56' E 120°08'1502295.3
2014-Oct-18 15:26N 30°25' E 122°27'68629421.4
2014-Oct-18 15:24N 22°11' E 113°35'53753.7
2014-Oct-18 15:20N 23°04' E 113°29'62718644.2
2014-Oct-18 15:18N 29°51' E 122°22'1021738.2
2014-Oct-18 15:15N 31°22' E 121°28'65565460.8
2014-Oct-18 15:14N 23°04' E 113°29'102911910.6
2014-Oct-18 15:09N 38°44' E 121°37'97013850.4
2014-Oct-18 15:05N 22°38' E 120°05'5651090.6
2014-Oct-18 14:34N 32°02' E 120°25'14364219.5
2014-Oct-18 14:33N 30°25' E 122°27'14272821.2
2014-Oct-18 14:33N 32°01' E 120°25'34933923.6
2014-Oct-18 14:33N 37°44' E 121°43'38592438.2
2014-Oct-18 14:32N 31°19' E 121°34'65690860.6
2014-Oct-18 14:32N 23°04' E 113°29'543212.8
2014-Oct-18 14:31N 22°11' E 113°38'69228955.8
2014-Oct-18 14:30N 31°22' E 121°28'684562.5
2014-Oct-18 14:29N 32°01' E 120°22'5637067.7
2014-Oct-18 14:24N 22°38' E 120°10'55114057.8
2014-Oct-18 14:22N 31°47' E 120°55'66017863.0
2014-Oct-18 14:19N 22°55' E 113°35'11309.6
2014-Oct-18 14:17N 23°04' E 113°29'6485472.6
2014-Oct-18 14:10N 31°58' E 120°22'1301318.8
2014-Oct-18 14:04N 30°32' E 122°15'13719026.5
2014-Oct-18 14:04N 31°56' E 120°08'1122.5
2014-Oct-18 13:33N 31°59' E 120°21'91766.8
2014-Oct-18 13:33N 32°02' E 120°31'81425.8
2014-Oct-18 13:33N 31°58' E 120°22'14222208.6
2014-Oct-18 13:32N 30°25' E 122°27'7616098.4
2014-Oct-18 13:32N 31°22' E 121°28'688798.7
2014-Oct-18 13:32N 32°01' E 120°22'3257214.6
2014-Oct-18 13:32N 31°47' E 120°55'4422681.0
2014-Oct-18 13:32N 31°15' E 121°31'65216292.7
2014-Oct-18 13:29N 23°04' E 113°29'3776710.1
2014-Oct-18 13:26N 22°37' E 120°16'3642082.7
2014-Oct-18 13:15N 22°16' E 113°43'50426.4
2014-Oct-18 13:08N 23°04' E 113°29'6481119.4
2014-Oct-18 12:33N 31°58' E 120°22'72723.8
2014-Oct-18 12:33N 31°56' E 120°14'196174.8
2014-Oct-18 12:33N 32°01' E 120°36'12502.6
2014-Oct-18 12:32N 32°01' E 120°22'14432318.1
2014-Oct-18 12:31N 30°25' E 122°27'764702.8
2014-Oct-18 12:30N 31°22' E 121°29'65529492.8
2014-Oct-18 12:29N 23°04' E 113°29'97829590.5
2014-Oct-18 12:27N 37°45' E 121°44'42127556.4
2014-Oct-18 12:26N 30°44' E 122°16'49327.8
2014-Oct-18 12:17N 31°11' E 121°28'6736409.0
2014-Oct-18 12:11N 22°20' E 113°44'32301.9
2014-Oct-18 12:05N 22°51' E 113°34'64627377.9
2014-Oct-18 12:03N 31°59' E 120°01'650779523.9
2014-Oct-18 12:03N 22°54' E 113°22'6641327.8
2014-Oct-18 11:33N 30°25' E 122°27'672604648.4
2014-Oct-18 11:33N 22°23' E 113°44'667218290.9
2014-Oct-18 11:33N 31°56' E 120°07'645193550.2
2014-Oct-18 11:33N 22°54' E 113°35'66792381.7
2014-Oct-18 11:32N 30°51' E 122°17'415497503.2
2014-Oct-18 11:32N 37°45' E 121°39'9771171832.7
2014-Oct-18 11:32N 23°04' E 113°29'65089937.1
2014-Oct-18 11:32N 32°01' E 120°22'65924472.3
2014-Oct-18 11:30N 22°55' E 113°26'1086.7
2014-Oct-18 11:23N 23°04' E 113°29'6394476.2
2014-Oct-18 11:14N 31°58' E 120°06'43389.7
2014-Oct-18 11:08N 31°47' E 120°55'521205.6
2014-Oct-18 11:05N 31°04' E 121°28'6481222.2
2014-Oct-18 10:33N 22°55' E 113°30'658124644.5
2014-Oct-18 10:33N 30°25' E 122°27'1499921.3
2014-Oct-18 10:32N 31°57' E 120°10'640576366.1
2014-Oct-18 10:32N 23°04' E 113°29'975134996.5
2014-Oct-18 10:32N 37°45' E 121°34'3542797.1
2014-Oct-18 10:24N 31°59' E 119°60'17770731.1
2014-Oct-18 10:24N 29°51' E 122°22'62745125.1
2014-Oct-18 10:23N 23°04' E 113°29'65093543.2
2014-Oct-18 10:23N 32°01' E 120°22'191591.4
2014-Oct-18 10:22N 32°02' E 120°45'130161.1
2014-Oct-18 09:33N 30°25' E 122°27'653261255.8
2014-Oct-18 09:33N 23°01' E 113°31'976100348.6
2014-Oct-18 09:33N 37°45' E 121°29'353211930.6
2014-Oct-18 09:33N 31°57' E 120°16'7438.4
2014-Oct-18 09:32N 32°01' E 120°22'23107.5
2014-Oct-18 09:19N 32°02' E 120°49'66426568.0
2014-Oct-18 09:17N 23°04' E 113°29'0418.0
2014-Oct-18 09:17N 23°04' E 113°29'6624873.5
2014-Oct-18 09:09N 32°02' E 120°45'18597.3
2014-Oct-18 09:07N 31°47' E 120°55'383222.9
2014-Oct-18 09:06N 31°24' E 121°31'70126.5
2014-Oct-18 08:33N 31°60' E 120°21'144103491.0
2014-Oct-18 08:33N 30°25' E 122°27'65231703.7
2014-Oct-18 08:32N 23°04' E 113°30'64980619.8
2014-Oct-18 08:32N 32°01' E 120°22'684584.9
2014-Oct-18 08:31N 31°26' E 121°29'523622.9
2014-Oct-18 08:30N 32°02' E 120°45'66250700.1
2014-Oct-18 08:29N 23°04' E 113°29'6386437.8
2014-Oct-18 08:23N 32°02' E 119°57'638383070.9
2014-Oct-18 08:23N 23°04' E 113°29'97419927.2
2014-Oct-18 08:20N 37°46' E 121°29'3491393.6
2014-Oct-18 08:05N 31°59' E 120°51'6631256.6
2014-Oct-18 07:33N 23°04' E 113°30'6912459.7
2014-Oct-18 07:33N 21°58' E 113°08'1045940410.4
2014-Oct-18 07:33N 37°48' E 121°30'379681631.8
2014-Oct-18 07:33N 31°29' E 121°25'79282900.5
2014-Oct-18 07:33N 31°60' E 119°60'639135269.7
2014-Oct-18 07:33N 23°05' E 113°26'653112009.8
2014-Oct-18 07:32N 30°25' E 122°27'14412321.9
2014-Oct-18 07:32N 32°01' E 120°22'2106.5
2014-Oct-18 07:31N 31°59' E 120°23'7170.0
2014-Oct-18 07:28N 31°57' E 120°15'25344.9
2014-Oct-18 07:24N 32°02' E 120°45'6625741.9
2014-Oct-18 07:17N 23°04' E 113°29'51509.8
2014-Oct-18 07:11N 22°14' E 113°36'6881098.8
2014-Oct-18 06:34N 31°60' E 120°21'6482333139.5
2014-Oct-18 06:34N 23°04' E 113°30'652391008.2
2014-Oct-18 06:33N 30°25' E 122°27'714642863.8
2014-Oct-18 06:33N 21°53' E 113°12'1047289837.1
2014-Oct-18 06:33N 37°48' E 121°26'350251762.8
2014-Oct-18 06:33N 32°02' E 120°26'69038823.3
2014-Oct-18 06:32N 22°16' E 113°36'687154641.8
2014-Oct-18 06:32N 32°01' E 120°22'13846.5
2014-Oct-18 06:31N 31°56' E 120°08'663076.1
2014-Oct-18 06:30N 31°32' E 121°20'65887775.7
2014-Oct-18 06:29N 23°04' E 113°29'63910843.0
2014-Oct-18 06:26N 31°58' E 120°05'45547.8
2014-Oct-18 06:21N 31°47' E 120°55'66022847.3
2014-Oct-18 06:19N 22°55' E 113°35'330.7
2014-Oct-18 06:13N 22°57' E 113°37'6598.4
2014-Oct-18 05:34N 21°57' E 113°12'712427137.8
2014-Oct-18 05:33N 30°25' E 122°27'149537180.3
2014-Oct-18 05:33N 31°57' E 120°09'6131131.3
2014-Oct-18 05:33N 31°36' E 121°16'371133461.4
2014-Oct-18 05:33N 37°47' E 121°30'975219445.6
2014-Oct-18 05:33N 23°04' E 113°30'65357371.7
2014-Oct-18 05:32N 32°02' E 120°27'655262172.9
2014-Oct-18 05:32N 22°57' E 113°37'652130303.4
2014-Oct-18 05:32N 32°01' E 120°22'65448084.3
2014-Oct-18 05:31N 22°55' E 113°35'13108.5
2014-Oct-18 05:24N 23°02' E 113°23'10333718629.1
2014-Oct-18 05:23N 38°44' E 121°36'10299594.3
2014-Oct-18 05:17N 23°04' E 113°29'1459.8
2014-Oct-18 05:03N 22°51' E 113°34'1326.7
2014-Oct-18 04:33N 23°04' E 113°30'659395565.2
2014-Oct-18 04:33N 31°40' E 121°12'5246350.7
2014-Oct-18 04:33N 31°57' E 120°15'356106921.2
2014-Oct-18 04:33N 37°48' E 121°29'4451603573.5
2014-Oct-18 04:33N 30°25' E 122°27'13644433.7
2014-Oct-18 04:33N 32°01' E 120°35'66123561.7
2014-Oct-18 04:31N 22°55' E 113°35'65467311.9
2014-Oct-18 04:31N 32°01' E 120°22'67228810.7
2014-Oct-18 04:29N 22°27' E 113°48'4114776.5
2014-Oct-18 04:29N 23°04' E 113°29'6623024.0
2014-Oct-18 04:16N 32°02' E 120°45'4046385.1
2014-Oct-18 04:12N 38°44' E 121°33'10271595.8
2014-Oct-18 03:34N 23°04' E 113°30'652335153.9
2014-Oct-18 03:33N 30°25' E 122°27'10312779.0
2014-Oct-18 03:33N 31°42' E 121°08'4414435.3
2014-Oct-18 03:33N 31°59' E 120°20'71280151.0
2014-Oct-18 03:32N 21°58' E 113°11'7042534807.6
2014-Oct-18 03:32N 31°56' E 120°08'64338607.5
2014-Oct-18 03:31N 22°55' E 113°35'3823063.1
2014-Oct-18 03:31N 22°19' E 113°19'1072160817.0
2014-Oct-18 03:31N 38°44' E 121°31'407733095.1
2014-Oct-18 03:31N 32°01' E 120°22'67226891.1
2014-Oct-18 03:29N 22°27' E 113°48'67814708.0
2014-Oct-18 03:26N 32°00' E 120°36'4474498.6
2014-Oct-18 03:20N 39°05' E 117°44'98517647.7
2014-Oct-18 03:17N 23°04' E 113°29'6626492.9
2014-Oct-18 03:11N 32°02' E 120°45'6689175.9
2014-Oct-18 03:07N 23°03' E 113°19'18413.3
2014-Oct-18 03:04N 22°51' E 113°34'1326.1
2014-Oct-18 02:34N 23°04' E 113°30'649467008.2
2014-Oct-18 02:33N 31°60' E 120°22'443797347.5
2014-Oct-18 02:33N 39°05' E 117°47'441105950.5
2014-Oct-18 02:33N 32°02' E 120°24'143171741.2
2014-Oct-18 02:33N 30°25' E 122°27'442318284.5
2014-Oct-18 02:33N 37°43' E 121°12'34181804.0
2014-Oct-18 02:33N 32°03' E 120°32'237372.7
2014-Oct-18 02:33N 31°56' E 120°07'4929483.4
2014-Oct-18 02:32N 31°45' E 121°04'7505.9
2014-Oct-18 02:32N 31°47' E 120°55'4181506424.8
2014-Oct-18 02:32N 38°44' E 121°30'10303709180.3
2014-Oct-18 02:32N 23°02' E 113°24'131761.2
2014-Oct-18 02:31N 22°55' E 113°35'65478530.6
2014-Oct-18 02:31N 32°01' E 120°22'44038671.0
2014-Oct-18 02:30N 39°04' E 117°50'10188726.2
2014-Oct-18 02:23N 22°27' E 113°48'6842461924.8
2014-Oct-18 02:23N 32°02' E 120°45'6626751.2
2014-Oct-18 02:17N 23°04' E 113°29'14342.7
2014-Oct-18 02:15N 22°51' E 113°34'663966.5
2014-Oct-18 01:34N 32°02' E 120°28'14163335.8
2014-Oct-18 01:33N 30°25' E 122°27'652167644.8
2014-Oct-18 01:33N 23°04' E 113°29'655392944.3
2014-Oct-18 01:33N 32°04' E 120°27'1922.3
2014-Oct-18 01:33N 32°03' E 120°26'362274.0
2014-Oct-18 01:32N 31°45' E 121°03'41962921.3
2014-Oct-18 01:32N 38°44' E 121°30'172310411.1
2014-Oct-18 01:32N 39°05' E 117°50'44227884.8
2014-Oct-18 01:31N 32°01' E 120°22'67223962.2
2014-Oct-18 01:29N 22°27' E 113°48'41830.0
2014-Oct-18 01:26N 23°04' E 113°29'98663376.9
2014-Oct-18 01:25N 39°05' E 117°46'44712680.8
2014-Oct-18 01:23N 32°02' E 120°45'67011070.4
2014-Oct-18 01:19N 22°51' E 113°34'1499.4
2014-Oct-18 01:11N 23°04' E 113°29'6571049.1
2014-Oct-18 00:33N 32°04' E 120°31'140167859.2
2014-Oct-18 00:33N 30°25' E 122°27'13619544.0
2014-Oct-18 00:33N 32°01' E 120°35'656214809.3
2014-Oct-18 00:33N 23°04' E 113°29'65955145.9
2014-Oct-18 00:32N 31°45' E 121°03'4208534.1
2014-Oct-18 00:29N 38°44' E 121°33'1028462496.8
2014-Oct-18 00:29N 23°04' E 113°29'65028173.7
2014-Oct-18 00:28N 32°01' E 120°22'6559706.8
2014-Oct-18 00:24N 22°54' E 113°35'111124.2
2014-Oct-18 00:23N 23°04' E 113°29'41372.8
2014-Oct-18 00:16N 22°27' E 113°48'101929817.1
2014-Oct-18 00:14N 39°04' E 117°50'99435076.9
2014-Oct-18 00:13N 22°55' E 113°35'64617894.6
2014-Oct-18 00:11N 31°56' E 120°13'65011304.2
2014-Oct-18 00:07N 22°51' E 113°34'96014160.3
2014-Oct-18 00:03N 36°51' E 122°29'304615.8
2014-Oct-17 23:33N 32°02' E 120°35'340407444.9
2014-Oct-17 23:33N 37°40' E 121°08'962576960.9
2014-Oct-17 23:33N 23°04' E 113°29'953263780.5
2014-Oct-17 23:33N 36°54' E 122°28'38982448.8
2014-Oct-17 23:33N 30°25' E 122°27'1463631.5
2014-Oct-17 23:30N 31°56' E 120°13'442097.5
2014-Oct-17 23:29N 31°45' E 121°03'381604.0
2014-Oct-17 23:28N 32°01' E 120°22'4062413.6
2014-Oct-17 23:18N 38°42' E 121°32'10269467.6
2014-Oct-17 23:11N 23°04' E 113°29'1220.5
2014-Oct-17 23:11N 23°04' E 113°29'11162.8
2014-Oct-17 23:07N 22°55' E 113°35'6551170.0
2014-Oct-17 22:33N 30°25' E 122°27'133119978.1
2014-Oct-17 22:33N 32°00' E 120°38'2522379.2
2014-Oct-17 22:33N 31°56' E 120°09'639575319.8
2014-Oct-17 22:33N 23°04' E 113°29'4113440.8
2014-Oct-17 22:33N 22°27' E 113°47'68054387.3
2014-Oct-17 22:32N 31°45' E 121°03'36028812.2
2014-Oct-17 22:32N 37°45' E 121°20'3485417.2
2014-Oct-17 22:28N 32°01' E 120°22'662401.9
2014-Oct-17 22:26N 32°15' E 119°05'626375524.8
2014-Oct-17 22:26N 23°04' E 113°29'6563386.8
2014-Oct-17 22:14N 31°47' E 120°55'66023527.0
2014-Oct-17 22:13N 22°55' E 113°35'95910626.2
2014-Oct-17 22:07N 36°56' E 122°28'9531699.3
2014-Oct-17 21:34N 23°04' E 113°29'659139658.8
2014-Oct-17 21:33N 32°01' E 120°42'1316740.7
2014-Oct-17 21:32N 30°25' E 122°27'11225164.8
2014-Oct-17 21:32N 31°47' E 120°58'31830113.6
2014-Oct-17 21:31N 36°56' E 122°28'31337512.6
2014-Oct-17 21:31N 32°01' E 120°22'34720500.3
2014-Oct-17 21:30N 37°45' E 121°19'97015516.0
2014-Oct-17 21:26N 23°04' E 113°29'46599.1
2014-Oct-17 21:21N 22°19' E 113°42'677848.2
2014-Oct-17 20:33N 30°25' E 122°27'652234704.2
2014-Oct-17 20:33N 23°04' E 113°29'9711748028.3
2014-Oct-17 20:33N 37°45' E 121°23'3481251999.5
2014-Oct-17 20:33N 32°01' E 120°22'31039856.7
2014-Oct-17 20:33N 36°53' E 122°28'304547004.6
2014-Oct-17 20:33N 32°01' E 120°45'11530.5
2014-Oct-17 20:31N 31°52' E 120°53'696147467.1
2014-Oct-17 20:31N 22°13' E 113°38'424061.2
2014-Oct-17 20:30N 22°55' E 113°35'66726083.3
2014-Oct-17 20:29N 32°02' E 120°45'6626583.4
2014-Oct-17 20:23N 23°04' E 113°29'640460595.1
2014-Oct-17 20:23N 32°04' E 119°55'65811223.9
2014-Oct-17 20:19N 22°32' E 113°51'520.2
2014-Oct-17 20:04N 22°29' E 113°47'6711315.7
2014-Oct-17 19:33N 32°01' E 120°22'650146144.7
2014-Oct-17 19:33N 23°04' E 113°29'973318342.1
2014-Oct-17 19:33N 37°45' E 121°28'983196598.4
2014-Oct-17 19:32N 22°51' E 113°34'658118467.6
2014-Oct-17 19:32N 30°25' E 122°27'65523801.3
2014-Oct-17 19:30N 22°55' E 113°35'66717647.9
2014-Oct-17 19:28N 31°58' E 120°51'3452.4
2014-Oct-17 19:28N 31°60' E 120°50'494615.1
2014-Oct-17 19:27N 32°10' E 119°53'64330069.9
2014-Oct-17 19:26N 23°04' E 113°29'521871.6
2014-Oct-17 19:24N 22°12' E 113°34'7038012.1
2014-Oct-17 19:19N 32°02' E 120°45'662868.4
2014-Oct-17 18:33N 23°04' E 113°29'14980.0
2014-Oct-17 18:32N 22°51' E 113°34'3917557.2
2014-Oct-17 18:32N 22°12' E 113°34'68647506.4
2014-Oct-17 18:31N 30°25' E 122°27'12923191.5
2014-Oct-17 18:31N 32°01' E 120°46'34423379.4
2014-Oct-17 18:30N 37°43' E 121°31'3476855.8
2014-Oct-17 18:27N 32°01' E 120°22'65031180.1
2014-Oct-17 18:26N 23°04' E 113°29'66220368.1
2014-Oct-17 18:24N 32°02' E 120°45'8338.4
2014-Oct-17 18:23N 31°57' E 120°52'6673882.9
2014-Oct-17 18:12N 22°55' E 113°35'6621022.8
2014-Oct-17 17:33N 31°60' E 120°39'132237784.3
2014-Oct-17 17:33N 30°25' E 122°27'14430432.3
2014-Oct-17 17:33N 32°01' E 120°22'34843217.7
2014-Oct-17 17:33N 37°44' E 121°31'973146014.7
2014-Oct-17 17:32N 23°04' E 113°29'14255.2
2014-Oct-17 17:29N 22°51' E 113°34'13128.8
2014-Oct-17 17:23N 23°04' E 113°29'66018426.2
2014-Oct-17 17:21N 31°54' E 120°53'7957.5
2014-Oct-17 17:20N 31°47' E 120°55'69696433.2
2014-Oct-17 17:20N 22°12' E 113°34'7048673.6
2014-Oct-17 17:15N 32°02' E 120°45'1015.0
2014-Oct-17 16:33N 32°01' E 120°32'655294770.1
2014-Oct-17 16:33N 23°04' E 113°29'144460.4
2014-Oct-17 16:33N 22°51' E 113°34'983121973.3
2014-Oct-17 16:33N 37°43' E 121°32'35314958.2
2014-Oct-17 16:31N 31°51' E 120°54'11716840.8
2014-Oct-17 16:31N 30°25' E 122°27'6877846.2
2014-Oct-17 16:25N 22°12' E 113°34'192846.4
2014-Oct-17 16:25N 22°27' E 113°47'411105.5
2014-Oct-17 16:23N 23°04' E 113°29'65022062.0
2014-Oct-17 16:21N 32°01' E 120°22'6544379.0
2014-Oct-17 16:12N 22°55' E 113°35'28376.7
2014-Oct-17 16:08N 22°32' E 113°51'671115050.8
2014-Oct-17 16:07N 31°47' E 120°55'2950.8
2014-Oct-17 15:33N 32°02' E 120°26'652782855.4
2014-Oct-17 15:33N 23°04' E 113°29'649292269.0
2014-Oct-17 15:33N 32°01' E 120°22'325495.7
2014-Oct-17 15:33N 31°48' E 120°56'113204083.4
2014-Oct-17 15:33N 30°25' E 122°27'438157575.2
2014-Oct-17 15:33N 37°41' E 121°35'35613912.3
2014-Oct-17 15:31N 31°47' E 120°55'6567639.4
2014-Oct-17 15:26N 23°04' E 113°29'538601.9
2014-Oct-17 15:26N 22°12' E 113°34'192273.1
2014-Oct-17 15:25N 22°27' E 113°47'68510142.7
2014-Oct-17 15:21N 32°02' E 120°45'66714033.1
2014-Oct-17 15:18N 22°55' E 113°35'4594.6
2014-Oct-17 15:18N 22°51' E 113°34'1418.3
2014-Oct-17 14:33N 23°04' E 113°29'6481165924.2
2014-Oct-17 14:33N 31°59' E 120°21'21168.1
2014-Oct-17 14:33N 32°01' E 120°22'345248659.6
2014-Oct-17 14:33N 37°41' E 121°38'97342697.2
2014-Oct-17 14:32N 23°04' E 113°29'5327270.3
2014-Oct-17 14:32N 22°12' E 113°35'431944.3
2014-Oct-17 14:30N 22°55' E 113°35'4200.2
2014-Oct-17 14:29N 22°51' E 113°34'27215.6
2014-Oct-17 14:21N 22°27' E 113°47'68582157.7
2014-Oct-17 14:21N 32°02' E 120°45'18212.0
2014-Oct-17 14:16N 31°47' E 120°55'65618734.4
2014-Oct-17 14:14N 23°04' E 113°29'0 0.6
2014-Oct-17 13:33N 23°04' E 113°29'643385712.5
2014-Oct-17 13:33N 31°56' E 120°16'724421.1
2014-Oct-17 13:33N 32°01' E 120°22'650167023.5
2014-Oct-17 13:33N 23°04' E 113°29'97370047.9
2014-Oct-17 13:32N 37°43' E 121°34'100157208.6
2014-Oct-17 13:31N 22°27' E 113°47'302127.9
2014-Oct-17 13:30N 22°55' E 113°35'4109.7
2014-Oct-17 13:28N 22°51' E 113°34'40695.6
2014-Oct-17 13:25N 22°11' E 113°36'5362.5
2014-Oct-17 12:33N 23°04' E 113°29'650194850.4
2014-Oct-17 12:33N 32°01' E 120°22'128471.8
2014-Oct-17 12:33N 31°56' E 120°09'639209219.6
2014-Oct-17 12:33N 23°04' E 113°29'5237187.4
2014-Oct-17 12:33N 22°14' E 113°41'101482939.7
2014-Oct-17 12:32N 37°43' E 121°30'981294220.7
2014-Oct-17 12:32N 22°54' E 113°28'985443385.3
2014-Oct-17 12:32N 37°34' E 122°02'3383000.3
2014-Oct-17 12:25N 32°02' E 120°45'679101797.8
2014-Oct-17 12:25N 22°33' E 113°48'67237195.3
2014-Oct-17 12:23N 31°47' E 120°55'65512226.3
2014-Oct-17 12:20N 23°04' E 113°30'649827.2
2014-Oct-17 11:33N 32°01' E 120°22'649167013.4
2014-Oct-17 11:33N 23°04' E 113°29'63742482.5
2014-Oct-17 11:32N 31°58' E 120°02'35321533.1
2014-Oct-17 11:31N 37°43' E 121°31'97951808.2
2014-Oct-17 11:30N 22°55' E 113°35'1166.2
2014-Oct-17 11:20N 23°04' E 113°30'97640399.8
2014-Oct-17 11:19N 37°35' E 122°02'9765897.5
2014-Oct-17 11:09N 23°04' E 113°29'0 0.3
2014-Oct-17 10:33N 23°04' E 113°29'136.4
2014-Oct-17 10:32N 23°04' E 113°30'971317911.2
2014-Oct-17 10:32N 37°43' E 121°29'34610751.4
2014-Oct-17 10:30N 32°01' E 120°22'65011870.1
2014-Oct-17 10:27N 23°04' E 113°29'97538980.4
2014-Oct-17 10:25N 37°34' E 121°59'9817951.6
2014-Oct-17 10:18N 22°55' E 113°35'66719831.8
2014-Oct-17 10:16N 32°02' E 120°45'1824.8
2014-Oct-17 09:33N 31°47' E 120°55'35747622.1
2014-Oct-17 09:33N 37°43' E 121°23'9693489785.5
2014-Oct-17 09:33N 23°04' E 113°29'27236232.1
2014-Oct-17 09:33N 23°58' E 118°20'49512293.9
2014-Oct-17 09:30N 32°01' E 120°22'650194957.9
2014-Oct-17 09:30N 23°03' E 113°30'8205.9
2014-Oct-17 09:28N 23°02' E 113°22'66714830.4
2014-Oct-17 09:25N 32°02' E 120°45'66223587.7
2014-Oct-17 09:23N 23°04' E 113°30'28365.2
2014-Oct-17 09:19N 22°38' E 113°41'13421.5
2014-Oct-17 09:17N 22°27' E 113°48'461575.9
2014-Oct-17 09:15N 21°58' E 113°11'103937031.6
2014-Oct-17 09:13N 37°31' E 121°57'9711452.9
2014-Oct-17 08:33N 23°05' E 113°27'6920602.7
2014-Oct-17 08:33N 21°58' E 113°11'6910286.7
2014-Oct-17 08:33N 23°04' E 113°29'186.7
2014-Oct-17 08:32N 23°04' E 113°30'64918554.1
2014-Oct-17 08:30N 32°01' E 120°22'65487256.2
2014-Oct-17 08:30N 22°55' E 113°35'96914015.3
2014-Oct-17 08:26N 37°42' E 121°09'355106502.6
2014-Oct-17 08:25N 31°47' E 120°55'67128426.7
2014-Oct-17 08:24N 22°38' E 113°41'1009201864.3
2014-Oct-17 08:24N 39°04' E 117°51'9963581.9
2014-Oct-17 08:07N 22°54' E 113°30'1118.9
2014-Oct-17 07:33N 23°04' E 113°29'52389.9
2014-Oct-17 07:33N 22°59' E 113°31'2328032.2
2014-Oct-17 07:33N 22°38' E 113°41'666479586.2
2014-Oct-17 07:33N 32°01' E 120°22'49511968.1
2014-Oct-17 07:31N 23°57' E 118°20'2653991.1
2014-Oct-17 07:27N 22°27' E 113°48'68491201.0
2014-Oct-17 07:26N 31°59' E 120°51'66313406.1
2014-Oct-17 07:23N 23°04' E 113°30'1153.8
2014-Oct-17 07:11N 22°55' E 113°35'64512422.3
2014-Oct-17 07:08N 31°57' E 120°10'44427548.8
2014-Oct-17 07:07N 39°05' E 117°45'9851745.6
2014-Oct-17 06:33N 23°04' E 113°29'649137539.4
2014-Oct-17 06:33N 32°01' E 120°22'666171279.5
2014-Oct-17 06:33N 22°38' E 113°41'282605.1
2014-Oct-17 06:32N 23°04' E 113°30'111509.4
2014-Oct-17 06:32N 22°54' E 113°35'31027.3
2014-Oct-17 06:32N 22°53' E 113°32'6702561.0
2014-Oct-17 06:16N 32°02' E 120°45'1592550.5
2014-Oct-17 06:12N 29°42' E 122°12'168259.1
2014-Oct-17 05:33N 31°59' E 120°19'663796158.6
2014-Oct-17 05:33N 22°38' E 113°41'625321499.7
2014-Oct-17 05:33N 29°42' E 122°13'169607792.9
2014-Oct-17 05:33N 32°01' E 120°22'650584551.6
2014-Oct-17 05:33N 23°04' E 113°29'98693371.7
2014-Oct-17 05:32N 39°05' E 117°47'91171315.7
2014-Oct-17 05:32N 23°54' E 118°16'40714943.1
2014-Oct-17 05:30N 29°42' E 122°12'1594571.4
2014-Oct-17 05:28N 32°02' E 120°45'684129543.7
2014-Oct-17 05:28N 22°27' E 113°48'41560.8
2014-Oct-17 05:23N 23°04' E 113°30'1351.1
2014-Oct-17 05:08N 22°51' E 113°34'490.5
2014-Oct-17 05:05N 22°55' E 113°35'1120.9
2014-Oct-17 04:33N 23°04' E 113°29'65280904.3
2014-Oct-17 04:33N 32°01' E 120°25'6681202816.2
2014-Oct-17 04:33N 22°38' E 113°41'666141052.6
2014-Oct-17 04:33N 32°01' E 120°22'64997408.4
2014-Oct-17 04:32N 23°04' E 113°30'6629198.3
2014-Oct-17 04:28N 32°02' E 120°45'50126515.7
2014-Oct-17 04:27N 23°58' E 118°20'2665656.1
2014-Oct-17 04:24N 22°27' E 113°48'30177.9
2014-Oct-17 04:14N 22°55' E 113°35'6603748.6
2014-Oct-17 04:03N 31°47' E 120°55'1834.7
2014-Oct-17 03:33N 32°02' E 120°45'113000.5
2014-Oct-17 03:33N 32°02' E 120°32'97874.7
2014-Oct-17 03:33N 32°01' E 120°22'64997409.8
2014-Oct-17 03:32N 23°04' E 113°30'126.9
2014-Oct-17 03:31N 23°04' E 113°29'412141.1
2014-Oct-17 03:30N 22°27' E 113°48'30437.8
2014-Oct-17 03:26N 22°55' E 113°35'9775471.0
2014-Oct-17 03:15N 37°31' E 121°57'3442261.0
2014-Oct-17 03:06N 31°57' E 120°15'6431186.1
2014-Oct-17 02:33N 23°04' E 113°29'66282165.7
2014-Oct-17 02:33N 32°02' E 120°45'204140.6
2014-Oct-17 02:33N 32°01' E 120°22'65832918.2
2014-Oct-17 02:31N 22°54' E 113°28'7172.1
2014-Oct-17 02:29N 22°55' E 113°35'11791.8
2014-Oct-17 02:28N 23°04' E 113°29'4174094.7
2014-Oct-17 02:28N 22°27' E 113°48'66914077.9
2014-Oct-17 02:25N 31°59' E 120°19'1441989.0
2014-Oct-17 02:21N 30°25' E 122°27'142179.2
2014-Oct-17 01:33N 32°00' E 120°23'6501169290.4
2014-Oct-17 01:33N 23°04' E 113°29'662595825.9
2014-Oct-17 01:33N 32°01' E 120°46'67018425.9
2014-Oct-17 01:31N 22°54' E 113°30'32622.7
2014-Oct-17 01:28N 22°27' E 113°48'67227813.0
2014-Oct-17 01:27N 32°01' E 120°22'14414782.2
2014-Oct-17 01:26N 30°25' E 122°27'655102472.7
2014-Oct-17 01:26N 22°55' E 113°35'6675171.7
2014-Oct-17 01:18N 32°02' E 120°45'66224315.6
2014-Oct-17 01:16N 23°04' E 113°29'14170.8
2014-Oct-17 01:12N 22°51' E 113°34'1421.4
2014-Oct-17 00:33N 23°04' E 113°29'65267073.3
2014-Oct-17 00:33N 30°25' E 122°27'65832464.1
2014-Oct-17 00:32N 22°51' E 113°34'66319092.0
2014-Oct-17 00:29N 32°02' E 120°29'286614.2
2014-Oct-17 00:29N 31°47' E 120°55'65644543.7
2014-Oct-17 00:28N 23°04' E 113°29'417054.8
2014-Oct-17 00:28N 22°27' E 113°48'67217792.0
2014-Oct-17 00:26N 32°01' E 120°22'6644672.1
2014-Oct-17 00:17N 22°53' E 113°18'169517.7
2014-Oct-17 00:17N 22°55' E 113°35'940187997.1
2014-Oct-17 00:17N 36°40' E 122°15'5317456.6
2014-Oct-17 00:17N 37°31' E 121°57'3353041.8
2014-Oct-17 00:10N 32°02' E 120°45'915.2
2014-Oct-16 23:33N 32°01' E 120°34'136245684.1
2014-Oct-16 23:33N 30°25' E 122°27'652469516.2
2014-Oct-16 23:33N 23°04' E 113°29'975319226.2
2014-Oct-16 23:33N 37°34' E 121°59'34314361.2
2014-Oct-16 23:32N 32°01' E 120°22'65827237.3
2014-Oct-16 23:30N 22°51' E 113°34'97579774.5
2014-Oct-16 23:30N 37°43' E 121°11'96513725.9
2014-Oct-16 23:25N 23°04' E 113°29'27048611.8
2014-Oct-16 23:25N 23°56' E 118°18'2641709.6
2014-Oct-16 23:16N 22°27' E 113°48'68314204.5
2014-Oct-16 23:13N 32°07' E 120°34'6601002.5
2014-Oct-16 22:33N 23°04' E 113°29'27335128.7
2014-Oct-16 22:33N 23°59' E 118°21'26814639.3
2014-Oct-16 22:32N 22°56' E 113°37'65337293.8
2014-Oct-16 22:31N 32°01' E 120°22'65018269.2
2014-Oct-16 22:29N 23°04' E 113°29'976100391.3
2014-Oct-16 22:28N 37°35' E 122°00'35233348.8
2014-Oct-16 22:27N 31°47' E 120°55'183008.3
2014-Oct-16 22:27N 32°02' E 120°45'3473840.0
2014-Oct-16 22:22N 37°47' E 121°18'36114759.5
2014-Oct-16 22:20N 31°47' E 121°00'331887.0
2014-Oct-16 22:19N 32°01' E 120°25'6562796.8
2014-Oct-16 22:05N 22°55' E 113°35'1121.0
2014-Oct-16 21:33N 23°04' E 113°29'971233150.4
2014-Oct-16 21:33N 37°47' E 121°20'98282212.5
2014-Oct-16 21:32N 22°51' E 113°35'151127.6
2014-Oct-16 21:32N 23°04' E 113°29'66076648.0
2014-Oct-16 21:31N 31°45' E 121°05'406890.0
2014-Oct-16 21:31N 32°01' E 120°22'67623183.1
2014-Oct-16 21:29N 22°24' E 113°45'68116347.4
2014-Oct-16 21:26N 32°02' E 120°30'1401784.4
2014-Oct-16 21:22N 30°25' E 122°27'4303136.1
2014-Oct-16 21:14N 37°35' E 122°03'9771459.0
2014-Oct-16 20:33N 23°04' E 113°29'66059408.2
2014-Oct-16 20:33N 31°42' E 121°10'365164220.3
2014-Oct-16 20:33N 37°47' E 121°25'301358.8
2014-Oct-16 20:31N 37°35' E 122°00'34439957.6
2014-Oct-16 20:31N 32°01' E 120°22'68411623.0
2014-Oct-16 20:27N 22°17' E 113°40'67928761.8
2014-Oct-16 20:26N 30°25' E 122°27'1301623.1
2014-Oct-16 20:21N 32°02' E 120°45'6629095.3
2014-Oct-16 20:17N 23°04' E 113°29'6564355.8
2014-Oct-16 20:08N 31°47' E 120°55'66014853.8
2014-Oct-16 20:05N 22°55' E 113°35'4381.9
2014-Oct-16 19:33N 22°12' E 113°36'1020203983.2
2014-Oct-16 19:33N 37°46' E 121°29'974876411.2
2014-Oct-16 19:33N 23°04' E 113°29'97785769.4
2014-Oct-16 19:32N 37°37' E 121°57'97779921.8
2014-Oct-16 19:32N 23°04' E 113°29'66225083.5
2014-Oct-16 19:30N 32°02' E 120°45'6705718.0
2014-Oct-16 19:23N 22°53' E 113°31'65831587.7
2014-Oct-16 19:22N 32°01' E 120°22'4064740.3
2014-Oct-16 19:17N 38°43' E 121°30'5003678.1
2014-Oct-16 19:08N 30°25' E 122°27'65510962.1
2014-Oct-16 19:05N 22°55' E 113°35'9811853.1
2014-Oct-16 18:33N 37°45' E 121°30'974701377.4
2014-Oct-16 18:33N 23°04' E 113°29'662794276.5
2014-Oct-16 18:33N 32°02' E 120°45'70326100.6
2014-Oct-16 18:31N 22°12' E 113°34'69263839.8
2014-Oct-16 18:31N 32°01' E 120°22'755779.0
2014-Oct-16 18:30N 31°13' E 121°30'38741009.6
2014-Oct-16 18:29N 37°40' E 121°55'988169412.1
2014-Oct-16 18:29N 22°55' E 113°27'82112.8
2014-Oct-16 18:29N 22°55' E 113°35'113378.5
2014-Oct-16 18:29N 23°04' E 113°29'65233539.5
2014-Oct-16 18:27N 30°25' E 122°27'6903134.3
2014-Oct-16 18:14N 22°10' E 113°32'107628071.2
2014-Oct-16 18:12N 38°43' E 121°34'1265227.3
2014-Oct-16 18:10N 36°40' E 122°14'9351510.7
2014-Oct-16 17:33N 23°04' E 113°29'975195020.7
2014-Oct-16 17:33N 37°48' E 121°27'216790.0
2014-Oct-16 17:33N 37°42' E 121°52'102894865.4
2014-Oct-16 17:32N 22°10' E 113°32'69427472.4
2014-Oct-16 17:31N 32°01' E 120°22'65419470.2
2014-Oct-16 17:29N 22°55' E 113°35'439023.0
2014-Oct-16 17:28N 22°12' E 113°34'68717782.4
2014-Oct-16 17:26N 30°25' E 122°27'692686.3
2014-Oct-16 17:25N 31°16' E 121°33'6537893.2
2014-Oct-16 17:20N 23°04' E 113°29'102813164.6
2014-Oct-16 17:15N 38°43' E 121°37'4032212.9
2014-Oct-16 17:04N 32°02' E 120°45'6621297.1
2014-Oct-16 16:33N 23°04' E 113°29'65242681.6
2014-Oct-16 16:32N 30°25' E 122°27'690190950.4
2014-Oct-16 16:32N 22°10' E 113°32'69427472.4
2014-Oct-16 16:31N 32°01' E 120°22'7488562.3
2014-Oct-16 16:31N 31°20' E 121°33'6705386.9
2014-Oct-16 16:23N 22°38' E 113°41'29479.8
2014-Oct-16 16:20N 23°04' E 113°29'97921753.4
2014-Oct-16 16:17N 37°44' E 121°48'985236455.2
2014-Oct-16 16:17N 22°55' E 113°35'66759990.7
2014-Oct-16 16:16N 32°02' E 120°45'68460094.4
2014-Oct-16 16:15N 22°27' E 113°47'19402.4
2014-Oct-16 16:12N 22°12' E 113°34'70412607.0
2014-Oct-16 16:09N 31°59' E 120°51'124209.0
2014-Oct-16 15:33N 30°25' E 122°27'7530043.4
2014-Oct-16 15:33N 31°22' E 121°30'656147656.6
2014-Oct-16 15:33N 23°04' E 113°29'978880446.9
2014-Oct-16 15:33N 37°44' E 121°45'998513312.5
2014-Oct-16 15:33N 22°38' E 113°41'292747.7
2014-Oct-16 15:32N 22°10' E 113°32'69428408.8
2014-Oct-16 15:31N 32°01' E 120°22'20431.8
2014-Oct-16 15:28N 32°02' E 120°45'6460.3
2014-Oct-16 15:27N 31°59' E 120°51'70436223.2
2014-Oct-16 15:26N 22°11' E 113°35'19245.2
2014-Oct-16 15:21N 22°27' E 113°47'411416.7
2014-Oct-16 15:20N 23°04' E 113°29'652847.9
2014-Oct-16 14:33N 30°25' E 122°27'652469492.1
2014-Oct-16 14:33N 23°04' E 113°29'4173419.3
2014-Oct-16 14:33N 22°27' E 113°47'221144.0
2014-Oct-16 14:32N 22°10' E 113°32'1026194429.3
2014-Oct-16 14:32N 37°45' E 121°40'977206953.4
2014-Oct-16 14:32N 23°04' E 113°29'65044967.2
2014-Oct-16 14:31N 32°01' E 120°22'66612620.8
2014-Oct-16 14:28N 22°38' E 113°41'27442.1
2014-Oct-16 14:24N 22°12' E 113°35'7047154.6
2014-Oct-16 14:18N 32°02' E 120°45'4357.3
2014-Oct-16 13:33N 32°07' E 119°55'3481254035.6
2014-Oct-16 13:33N 37°44' E 121°43'998276242.7
2014-Oct-16 13:33N 22°38' E 113°41'2910313.8
2014-Oct-16 13:33N 23°04' E 113°29'543743.8
2014-Oct-16 13:32N 22°10' E 113°32'276992620.7
2014-Oct-16 13:32N 23°50' E 118°11'26327804.5
2014-Oct-16 13:32N 23°04' E 113°29'65044118.7
2014-Oct-16 13:31N 32°01' E 120°22'1444498.9
2014-Oct-16 13:29N 30°25' E 122°27'190210265.6
2014-Oct-16 13:18N 00°01' E 113°11'138277760.6
2014-Oct-16 13:17N 23°03' E 113°25'66524691.4
2014-Oct-16 13:15N 32°02' E 120°45'68417230.7
2014-Oct-16 13:13N 22°27' E 113°47'191252.5
2014-Oct-16 13:12N 22°12' E 113°35'432163.0
2014-Oct-16 13:10N 22°55' E 113°35'1118.0
2014-Oct-16 12:33N 23°04' E 113°29'977219837.7
2014-Oct-16 12:33N 37°44' E 121°42'102667149.9
2014-Oct-16 12:32N 22°10' E 113°32'69057728.8
2014-Oct-16 12:31N 30°25' E 122°27'14411497.3
2014-Oct-16 12:31N 32°01' E 120°22'673201841.0
2014-Oct-16 12:30N 22°27' E 113°47'68476994.6
2014-Oct-16 12:30N 32°02' E 120°45'50749290.3
2014-Oct-16 12:29N 23°53' E 118°15'50641408.5
2014-Oct-16 12:29N 32°04' E 120°31'299475.8
2014-Oct-16 12:28N 32°02' E 119°57'523955.0
2014-Oct-16 12:28N 31°47' E 120°55'41723450.0
2014-Oct-16 12:27N 38°43' E 121°30'58177.0
2014-Oct-16 12:07N 37°47' E 121°48'712.3
2014-Oct-16 11:33N 37°44' E 121°40'977703116.3
2014-Oct-16 11:33N 23°04' E 113°29'654168126.6
2014-Oct-16 11:33N 32°03' E 120°26'35039366.3
2014-Oct-16 11:33N 37°47' E 121°45'1030148326.0
2014-Oct-16 11:32N 22°10' E 113°32'69428735.3
2014-Oct-16 11:31N 32°01' E 120°22'49981641.1
2014-Oct-16 11:30N 23°54' E 118°16'50564880.4
2014-Oct-16 11:30N 32°02' E 120°45'66282168.8
2014-Oct-16 11:29N 23°04' E 113°29'532330.1
2014-Oct-16 11:28N 22°12' E 113°35'68714289.1
2014-Oct-16 11:25N 30°25' E 122°27'1554246.5
2014-Oct-16 11:23N 31°58' E 120°03'6435949.8
2014-Oct-16 11:16N 22°55' E 113°35'1115.5
2014-Oct-16 10:33N 23°04' E 113°29'644165696.0
2014-Oct-16 10:33N 31°57' E 120°17'687824169.0
2014-Oct-16 10:33N 22°11' E 113°35'695312600.8
2014-Oct-16 10:33N 31°22' E 121°29'38353037.0
2014-Oct-16 10:32N 37°45' E 121°37'35060067.0
2014-Oct-16 10:32N 32°00' E 120°22'139.0
2014-Oct-16 10:31N 32°01' E 120°22'132690.3
2014-Oct-16 10:30N 31°57' E 120°08'15028478.8
2014-Oct-16 10:30N 30°25' E 122°27'66814834.9
2014-Oct-16 10:27N 22°27' E 113°47'203820.3
2014-Oct-16 10:27N 22°11' E 113°34'54250.3
2014-Oct-16 10:14N 23°04' E 113°29'5580.1
2014-Oct-16 09:33N 22°10' E 113°36'5517891.1
2014-Oct-16 09:33N 23°04' E 113°29'6412307041.5
2014-Oct-16 09:33N 31°56' E 120°12'646101105.0
2014-Oct-16 09:33N 23°02' E 113°22'256346.8
2014-Oct-16 09:32N 22°43' E 113°40'65632793.0
2014-Oct-16 09:31N 31°57' E 120°16'35785747.3
2014-Oct-16 09:31N 37°47' E 121°43'35290578.5
2014-Oct-16 09:31N 32°01' E 120°22'65026877.4
2014-Oct-16 09:29N 23°04' E 113°29'65221538.7
2014-Oct-16 09:27N 30°25' E 122°27'44151197.3
2014-Oct-16 09:27N 37°44' E 121°38'38226454.8
2014-Oct-16 09:26N 31°22' E 121°29'55231.5
2014-Oct-16 09:12N 32°02' E 120°45'2919513.0
2014-Oct-16 09:10N 36°41' E 122°22'98530298.1
2014-Oct-16 09:08N 22°10' E 113°34'5494.1
2014-Oct-16 08:33N 23°04' E 113°29'975389965.2
2014-Oct-16 08:33N 37°44' E 121°35'97590011.5
2014-Oct-16 08:33N 23°05' E 113°27'552566.5
2014-Oct-16 08:31N 22°10' E 113°31'1028127568.6
2014-Oct-16 08:31N 37°47' E 121°38'352105565.4
2014-Oct-16 08:31N 32°01' E 120°22'1449076.8
2014-Oct-16 08:30N 30°25' E 122°27'11333960.3
2014-Oct-16 08:30N 31°47' E 120°55'371612.6
2014-Oct-16 08:28N 31°56' E 120°14'741.1
2014-Oct-16 08:18N 31°58' E 120°21'65117767.7
2014-Oct-16 08:16N 22°55' E 113°35'6679158.8
2014-Oct-16 08:12N 32°02' E 120°45'67740617.6
2014-Oct-16 08:11N 22°45' E 113°31'20209.3
2014-Oct-16 08:05N 23°04' E 113°29'0 0.3
2014-Oct-16 07:33N 23°04' E 113°29'64780267.0
2014-Oct-16 07:33N 31°58' E 120°21'35190334.3
2014-Oct-16 07:32N 37°44' E 121°33'35816131.6
2014-Oct-16 07:31N 31°47' E 120°55'361162551.3
2014-Oct-16 07:31N 37°47' E 121°27'347124861.7
2014-Oct-16 07:31N 32°02' E 120°45'2017649.0
2014-Oct-16 07:31N 32°01' E 120°22'65026273.8
2014-Oct-16 07:29N 23°04' E 113°29'977103481.4
2014-Oct-16 07:29N 38°54' E 117°56'4286214.8
2014-Oct-16 07:25N 31°59' E 120°01'1155.8
2014-Oct-16 07:13N 31°56' E 120°13'64756779.4
2014-Oct-16 07:12N 22°55' E 113°35'631567639.3
2014-Oct-16 07:12N 29°53' E 122°22'629967.8
2014-Oct-16 06:33N 23°04' E 113°29'973700626.3
2014-Oct-16 06:33N 37°42' E 121°36'99677915.6
2014-Oct-16 06:33N 22°31' E 113°51'664108670.3
2014-Oct-16 06:32N 31°58' E 120°21'3130.6
2014-Oct-16 06:31N 32°01' E 120°22'65026571.9
2014-Oct-16 06:29N 23°04' E 113°29'639209172.2
2014-Oct-16 06:29N 31°58' E 120°06'64440683.7
2014-Oct-16 06:28N 22°55' E 113°35'973291941.1
2014-Oct-16 06:28N 37°44' E 121°14'35718369.0
2014-Oct-16 06:27N 31°47' E 120°55'6747632.3
2014-Oct-16 06:21N 22°48' E 113°19'67550648.4
2014-Oct-16 06:21N 31°60' E 120°38'2329.6
2014-Oct-16 05:33N 31°57' E 120°11'6411153500.5
2014-Oct-16 05:33N 23°04' E 113°29'324166390.0
2014-Oct-16 05:33N 24°48' E 119°04'43920275.7
2014-Oct-16 05:32N 32°01' E 120°32'345138105.2
2014-Oct-16 05:32N 37°42' E 121°39'34717580.8
2014-Oct-16 05:31N 32°01' E 120°22'1734398.0
2014-Oct-16 05:28N 29°47' E 122°30'1715549.5
2014-Oct-16 05:26N 31°58' E 120°21'786.3
2014-Oct-16 05:22N 31°56' E 120°13'6428370.3
2014-Oct-16 05:17N 23°04' E 113°29'1193.7
2014-Oct-16 05:10N 22°55' E 113°35'66060913.9
2014-Oct-16 05:09N 31°21' E 121°31'57747.8
2014-Oct-16 05:05N 32°02' E 120°45'2547.2
2014-Oct-16 04:34N 31°57' E 120°16'644772390.7
2014-Oct-16 04:33N 23°04' E 113°29'642330013.7
2014-Oct-16 04:33N 31°56' E 120°13'73463.8
2014-Oct-16 04:33N 31°58' E 120°21'350114428.8
2014-Oct-16 04:33N 37°42' E 121°35'974233842.0
2014-Oct-16 04:33N 23°01' E 113°31'65381052.1
2014-Oct-16 04:32N 32°01' E 120°25'3120.7
2014-Oct-16 04:31N 32°01' E 120°22'672127253.9
2014-Oct-16 04:30N 22°25' E 113°54'462315.3
2014-Oct-16 04:29N 23°04' E 113°29'6627446.6
2014-Oct-16 04:24N 32°02' E 120°45'66720866.5
2014-Oct-16 04:22N 22°55' E 113°35'6627791.0
2014-Oct-16 04:17N 31°24' E 121°31'67214235.2
2014-Oct-16 04:14N 22°31' E 113°52'26186.2
2014-Oct-16 04:06N 22°51' E 113°34'6551223.1
2014-Oct-16 03:33N 31°58' E 120°20'35054791.1
2014-Oct-16 03:33N 37°43' E 121°33'348626976.1
2014-Oct-16 03:33N 31°59' E 120°21'65862324.1
2014-Oct-16 03:32N 22°55' E 113°25'101815.6
2014-Oct-16 03:32N 23°04' E 113°29'65027837.1
2014-Oct-16 03:31N 32°01' E 120°22'69473477.9
2014-Oct-16 03:30N 22°11' E 113°32'68631675.7
2014-Oct-16 03:29N 31°56' E 120°14'64742328.0
2014-Oct-16 03:28N 22°55' E 113°35'651167525.8
2014-Oct-16 03:28N 31°58' E 120°21'64726156.0
2014-Oct-16 03:26N 23°04' E 113°29'9404059.0
2014-Oct-16 03:12N 36°43' E 122°23'96113511.6
2014-Oct-16 03:08N 22°31' E 113°52'3967.9
2014-Oct-16 02:33N 23°04' E 113°29'103105.2
2014-Oct-16 02:33N 22°54' E 113°29'983589663.9
2014-Oct-16 02:33N 37°42' E 121°37'345207094.9
2014-Oct-16 02:33N 32°02' E 120°26'2934219.1
2014-Oct-16 02:33N 31°47' E 120°55'361885.9
2014-Oct-16 02:32N 31°56' E 120°14'68482062.9
2014-Oct-16 02:31N 22°10' E 113°38'68888519.9
2014-Oct-16 02:31N 31°58' E 120°21'31214.6
2014-Oct-16 02:31N 32°01' E 120°22'66812784.2
2014-Oct-16 02:28N 22°30' E 113°51'40229.5
2014-Oct-16 02:17N 23°04' E 113°29'6526050.8
2014-Oct-16 02:11N 30°25' E 122°27'65717511.5
2014-Oct-16 02:08N 22°57' E 113°30'569.6
2014-Oct-16 02:04N 22°55' E 113°35'1121.9
2014-Oct-16 01:33N 23°04' E 113°29'311453.7
2014-Oct-16 01:33N 23°02' E 113°31'65354650.4
2014-Oct-16 01:33N 30°25' E 122°27'1469921.3
2014-Oct-16 01:32N 31°56' E 120°13'161144.2
2014-Oct-16 01:31N 32°02' E 120°31'81790.6
2014-Oct-16 01:31N 32°01' E 120°22'685205487.8
2014-Oct-16 01:31N 22°15' E 113°43'68219331.4
2014-Oct-16 01:28N 31°58' E 120°21'3492033.5
2014-Oct-16 01:18N 37°40' E 121°42'97463735.3
2014-Oct-16 01:17N 23°04' E 113°29'65616502.3
2014-Oct-16 01:15N 31°47' E 120°55'111.1
2014-Oct-16 01:11N 31°47' E 120°55'2134.2
2014-Oct-16 00:34N 32°01' E 120°36'2138584.9
2014-Oct-16 00:33N 31°47' E 120°55'656786936.8
2014-Oct-16 00:33N 23°04' E 113°29'649212558.4
2014-Oct-16 00:33N 32°01' E 120°22'3246.7
2014-Oct-16 00:32N 31°58' E 120°21'794.4
2014-Oct-16 00:28N 31°56' E 120°14'36278.0
2014-Oct-16 00:20N 31°47' E 120°55'3240.1
2014-Oct-15 23:33N 32°00' E 120°21'322269.5
2014-Oct-15 23:32N 31°47' E 120°55'6601187387.8
2014-Oct-15 23:32N 22°57' E 113°33'651146497.2
2014-Oct-15 23:32N 31°58' E 120°21'15819.6
2014-Oct-15 23:31N 32°00' E 120°39'65871758.7
2014-Oct-15 23:30N 23°04' E 113°29'066.6
2014-Oct-15 23:30N 23°04' E 113°29'65645405.0
2014-Oct-15 23:30N 31°47' E 120°55'37507.8
2014-Oct-15 23:25N 31°56' E 120°14'306862.7
2014-Oct-15 23:04N 36°43' E 122°21'296577.2
2014-Oct-15 22:33N 32°02' E 120°30'9339.9
2014-Oct-15 22:32N 32°00' E 120°40'161693.4
2014-Oct-15 22:31N 31°58' E 120°21'64722383.9
2014-Oct-15 22:29N 23°04' E 113°29'111328.4
2014-Oct-15 22:29N 22°55' E 113°36'659182614.4
2014-Oct-15 22:28N 31°47' E 120°55'377352.6
2014-Oct-15 22:28N 31°56' E 120°14'642288958.6
2014-Oct-15 22:28N 23°03' E 113°30'163.0
2014-Oct-15 22:27N 23°04' E 113°29'65643738.1
2014-Oct-15 22:26N 32°00' E 120°36'13453797.7
2014-Oct-15 22:26N 30°25' E 122°27'762132.0
2014-Oct-15 22:24N 31°22' E 121°28'385081.5
2014-Oct-15 22:23N 31°47' E 120°55'3036.3
2014-Oct-15 21:34N 31°58' E 120°21'647465570.5
2014-Oct-15 21:33N 23°04' E 113°29'6561180389.3
2014-Oct-15 21:33N 31°47' E 120°55'30619352.9
2014-Oct-15 21:32N 36°43' E 122°28'3084001.7
2014-Oct-15 21:28N 31°56' E 120°14'191319.5
2014-Oct-15 21:27N 32°01' E 120°35'22103.3
2014-Oct-15 21:14N 31°47' E 120°55'114168.0
2014-Oct-15 20:33N 30°25' E 122°27'387174099.1
2014-Oct-15 20:33N 36°52' E 122°28'950311029.6
2014-Oct-15 20:33N 23°04' E 113°29'647775932.6
2014-Oct-15 20:33N 31°58' E 120°21'206655.5
2014-Oct-15 20:33N 32°02' E 120°45'171303.8
2014-Oct-15 20:32N 31°47' E 120°55'160.6
2014-Oct-15 20:31N 31°47' E 120°55'37619.5
2014-Oct-15 20:28N 31°56' E 120°14'64223575.3
2014-Oct-15 20:26N 23°04' E 113°29'65720202.9
2014-Oct-15 20:24N 32°01' E 120°35'14569.4
2014-Oct-15 20:23N 31°59' E 120°51'66311098.4
2014-Oct-15 20:19N 23°04' E 113°30'646842.0
2014-Oct-15 19:33N 31°58' E 120°21'78024.8
2014-Oct-15 19:33N 31°56' E 120°14'3339657.3
2014-Oct-15 19:33N 31°56' E 120°53'9652.1
2014-Oct-15 19:32N 31°47' E 120°55'1149097.3
2014-Oct-15 19:31N 30°25' E 122°27'1138853.9
2014-Oct-15 19:31N 31°47' E 120°55'65627452.1
2014-Oct-15 19:29N 23°04' E 113°29'0126.8
2014-Oct-15 19:29N 23°04' E 113°29'65739392.5
2014-Oct-15 19:28N 32°01' E 120°35'989.8
2014-Oct-15 19:22N 32°02' E 120°45'66324604.2
2014-Oct-15 19:21N 23°05' E 113°27'13910.4
2014-Oct-15 19:20N 22°59' E 113°39'646833.4
2014-Oct-15 18:33N 31°58' E 120°21'64729465.3
2014-Oct-15 18:32N 23°04' E 113°29'659474806.6
2014-Oct-15 18:32N 31°53' E 120°54'185495.4
2014-Oct-15 18:32N 32°01' E 120°35'2341226.0
2014-Oct-15 18:32N 31°47' E 120°55'37468.5
2014-Oct-15 18:27N 31°56' E 120°14'35274470.6
2014-Oct-15 18:27N 37°40' E 121°42'34210520.0
2014-Oct-15 18:25N 32°02' E 120°45'6189.8
2014-Oct-15 18:23N 31°59' E 120°51'663170591.2
2014-Oct-15 18:23N 23°05' E 113°27'13906.8
2014-Oct-15 18:22N 22°59' E 113°39'65434637.6
2014-Oct-15 18:21N 31°47' E 120°55'68613135.2
2014-Oct-15 18:18N 22°19' E 113°42'47838.8
2014-Oct-15 18:14N 23°04' E 113°29'66270114.3
2014-Oct-15 18:14N 32°02' E 120°45'1304992.0
2014-Oct-15 18:12N 30°25' E 122°27'6525024.2
2014-Oct-15 18:04N 23°04' E 113°30'6461246.5
2014-Oct-15 17:33N 31°58' E 120°21'647775920.5
2014-Oct-15 17:33N 23°04' E 113°29'66333149.7
2014-Oct-15 17:32N 31°59' E 120°51'141024.8
2014-Oct-15 17:31N 32°01' E 120°35'69429752.6
2014-Oct-15 17:30N 22°14' E 113°39'6948084.9
2014-Oct-15 17:25N 31°49' E 120°55'298.0
2014-Oct-15 17:23N 31°47' E 120°55'1145686.1
2014-Oct-15 17:22N 30°25' E 122°27'6496229.9
2014-Oct-15 17:16N 22°59' E 113°39'13612.7
2014-Oct-15 17:15N 23°05' E 113°27'34693.6
2014-Oct-15 17:12N 22°37' E 113°06'100714923.8
2014-Oct-15 17:08N 37°41' E 121°42'974159388.8
2014-Oct-15 17:07N 23°04' E 113°30'122.0
2014-Oct-15 17:05N 23°04' E 113°29'0 0.3
2014-Oct-15 16:33N 23°04' E 113°29'657196961.2
2014-Oct-15 16:33N 32°01' E 120°35'124819.8
2014-Oct-15 16:33N 31°58' E 120°21'64768502.2
2014-Oct-15 16:33N 23°05' E 113°27'656196772.6
2014-Oct-15 16:32N 31°47' E 120°55'122005.1
2014-Oct-15 16:32N 31°59' E 120°51'132589.8
2014-Oct-15 16:32N 31°47' E 120°57'65776276.0
2014-Oct-15 16:31N 23°04' E 113°30'662125386.5
2014-Oct-15 16:31N 32°02' E 120°45'2316435.8
2014-Oct-15 16:31N 31°57' E 120°18'68729088.9
2014-Oct-15 16:29N 22°12' E 113°34'696278520.4
2014-Oct-15 16:29N 31°47' E 120°55'1135989.2
2014-Oct-15 16:28N 30°25' E 122°27'649111247.8
2014-Oct-15 16:28N 22°59' E 113°39'97528082.8
2014-Oct-15 16:26N 37°41' E 121°42'3615057.1
2014-Oct-15 16:21N 31°41' E 121°11'6592452.4
2014-Oct-15 16:05N 23°04' E 113°29'1 2.8
2014-Oct-15 15:33N 23°05' E 113°27'43770.7
2014-Oct-15 15:33N 23°02' E 113°24'6512343940.6
2014-Oct-15 15:33N 31°58' E 120°21'35089964.9
2014-Oct-15 15:33N 37°41' E 121°41'35820782.8
2014-Oct-15 15:32N 31°44' E 121°05'315561.8
2014-Oct-15 15:31N 32°01' E 120°35'272339.6
2014-Oct-15 15:31N 31°47' E 121°02'65926363.0
2014-Oct-15 15:29N 23°04' E 113°29'139.4
2014-Oct-15 15:28N 23°04' E 113°30'6526428.2
2014-Oct-15 15:22N 30°25' E 122°27'68735829.7
2014-Oct-15 15:21N 22°12' E 113°34'69678347.7
2014-Oct-15 15:20N 31°47' E 120°55'65417192.4
2014-Oct-15 15:18N 22°59' E 113°39'64455207.1
2014-Oct-15 15:17N 31°57' E 120°18'33953.0
2014-Oct-15 15:15N 31°47' E 120°55'3144.4
2014-Oct-15 14:33N 31°58' E 120°21'14220410.9
2014-Oct-15 14:33N 30°25' E 122°27'687176535.7
2014-Oct-15 14:33N 22°11' E 113°35'5448239.3
2014-Oct-15 14:33N 23°03' E 113°19'66291601.2
2014-Oct-15 14:32N 31°47' E 120°55'228024.1
2014-Oct-15 14:32N 32°01' E 120°35'315291.7
2014-Oct-15 14:32N 31°45' E 121°06'91599.4
2014-Oct-15 14:31N 31°47' E 120°55'35818659.9
2014-Oct-15 14:30N 37°42' E 121°43'35222635.3
2014-Oct-15 14:29N 31°57' E 120°18'5003542.3
2014-Oct-15 14:21N 23°50' E 118°10'2624304.2
2014-Oct-15 14:17N 23°04' E 113°29'137.3
2014-Oct-15 14:16N 23°04' E 113°30'9741360.1
2014-Oct-15 13:33N 37°42' E 121°39'36186659.8
2014-Oct-15 13:33N 31°42' E 121°09'131545.2
2014-Oct-15 13:32N 31°47' E 120°55'32116491.5
2014-Oct-15 13:32N 31°57' E 120°18'2231.1
2014-Oct-15 13:32N 31°58' E 120°21'64666491.6
2014-Oct-15 13:31N 23°04' E 113°30'120.8
2014-Oct-15 13:29N 23°04' E 113°29'53745.0
2014-Oct-15 13:25N 22°11' E 113°35'69792870.1
2014-Oct-15 13:24N 31°47' E 120°55'4954604.8
2014-Oct-15 13:18N 23°53' E 118°14'4654427.2
2014-Oct-15 13:12N 30°44' E 122°17'419651.7
2014-Oct-15 12:33N 37°42' E 121°38'345207155.1
2014-Oct-15 12:33N 32°02' E 120°30'44159177.8
2014-Oct-15 12:33N 31°39' E 121°14'192153.2
2014-Oct-15 12:32N 31°47' E 120°55'301555.6
2014-Oct-15 12:31N 31°58' E 120°21'689103329.1
2014-Oct-15 12:31N 22°11' E 113°35'53674.3
2014-Oct-15 12:26N 23°04' E 113°29'6526765.5
2014-Oct-15 12:20N 30°25' E 122°27'1432866.8
2014-Oct-15 12:17N 31°57' E 120°18'64531371.8
2014-Oct-15 12:16N 23°04' E 113°29'652914.9
2014-Oct-15 11:33N 30°25' E 122°27'439526890.3
2014-Oct-15 11:33N 37°42' E 121°39'35157354.6
2014-Oct-15 11:33N 31°58' E 120°20'1214.1
2014-Oct-15 11:33N 31°58' E 120°21'3012079.0
2014-Oct-15 11:33N 31°47' E 120°55'65611624.7
2014-Oct-15 11:29N 23°04' E 113°29'66221477.3
2014-Oct-15 11:27N 31°59' E 120°49'66217791.3
2014-Oct-15 11:25N 23°04' E 113°29'5319127.4
2014-Oct-15 11:25N 22°11' E 113°35'6997858.3
2014-Oct-15 11:20N 31°33' E 121°20'52602.0
2014-Oct-15 11:14N 32°02' E 120°30'346481.3
2014-Oct-15 10:31N 37°43' E 121°36'35871521.9
2014-Oct-15 10:31N 31°47' E 120°56'65620904.7
2014-Oct-15 10:29N 23°04' E 113°29'64722822.2
2014-Oct-15 10:28N 31°58' E 120°21'623763.5
2014-Oct-15 10:27N 31°30' E 121°26'43608.5
2014-Oct-15 10:22N 31°59' E 120°49'12615150.3
2014-Oct-15 10:22N 30°25' E 122°27'6864153.3
2014-Oct-15 10:12N 22°11' E 113°35'10201592.3
2014-Oct-15 09:33N 37°43' E 121°36'354254875.3
2014-Oct-15 09:33N 31°57' E 120°06'3616285.6
2014-Oct-15 09:33N 31°60' E 120°49'2417317.2
2014-Oct-15 09:33N 31°58' E 120°20'195.2
2014-Oct-15 09:32N 31°58' E 120°21'378432.6
2014-Oct-15 09:32N 31°46' E 121°03'10843251.2
2014-Oct-15 09:32N 30°25' E 122°27'763005.2
2014-Oct-15 09:31N 31°25' E 121°32'661125211.0
2014-Oct-15 09:30N 23°02' E 113°31'507871.0
2014-Oct-15 09:30N 22°11' E 113°35'53673.2
2014-Oct-15 09:25N 23°04' E 113°29'65430580.3
2014-Oct-15 09:24N 32°02' E 120°30'6542106.1
2014-Oct-15 09:05N 23°04' E 113°29'6461202.1
2014-Oct-15 08:33N 31°58' E 120°20'351180501.7
2014-Oct-15 08:33N 37°43' E 121°36'3621303593.3
2014-Oct-15 08:33N 31°42' E 121°10'4419732.6
2014-Oct-15 08:33N 31°58' E 120°21'772195.6
2014-Oct-15 08:31N 31°20' E 121°41'6834811.4
2014-Oct-15 08:30N 30°25' E 122°27'653213659.1
2014-Oct-15 08:30N 23°02' E 113°31'65246055.8
2014-Oct-15 08:29N 32°01' E 120°25'651585902.5
2014-Oct-15 08:29N 23°04' E 113°29'0 2.9
2014-Oct-15 08:26N 23°04' E 113°29'53384.8
2014-Oct-15 08:18N 22°11' E 113°35'10201376.9
2014-Oct-15 07:33N 37°43' E 121°35'365438304.5
2014-Oct-15 07:33N 31°38' E 121°16'517364.8
2014-Oct-15 07:33N 31°58' E 120°20'646332465.2
2014-Oct-15 07:33N 23°04' E 113°29'642144498.4
2014-Oct-15 07:33N 31°56' E 120°15'1433961.1
2014-Oct-15 07:30N 30°24' E 122°23'65731971.8
2014-Oct-15 07:29N 22°55' E 113°27'66513145.3
2014-Oct-15 07:26N 31°47' E 120°55'69618709.4
2014-Oct-15 07:24N 22°11' E 113°35'45343.4
2014-Oct-15 07:16N 22°57' E 113°37'11357.9
2014-Oct-15 07:14N 23°04' E 113°29'647952.9
2014-Oct-15 06:33N 31°58' E 120°21'35136110.0
2014-Oct-15 06:33N 37°43' E 121°39'35223474.2
2014-Oct-15 06:32N 31°57' E 120°18'5841595.7
2014-Oct-15 06:32N 31°34' E 121°20'69996751.9
2014-Oct-15 06:31N 22°11' E 113°35'27932366.1
2014-Oct-15 06:31N 23°55' E 118°16'50115291.1
2014-Oct-15 06:29N 32°02' E 120°31'6557652.3
2014-Oct-15 06:24N 23°04' E 113°29'64512342.2
2014-Oct-15 06:21N 30°23' E 122°17'721412.3
2014-Oct-15 06:18N 31°21' E 121°26'847197.5
2014-Oct-15 06:17N 30°02' E 121°59'61813412.9
2014-Oct-15 06:14N 23°04' E 113°29'9859284.7
2014-Oct-15 06:08N 39°05' E 117°46'10331802.0
2014-Oct-15 05:33N 22°13' E 113°40'650111426.9
2014-Oct-15 05:33N 30°00' E 122°04'621159615.6
2014-Oct-15 05:33N 23°04' E 113°29'977502388.0
2014-Oct-15 05:33N 37°44' E 121°41'34918757.4
2014-Oct-15 05:32N 32°01' E 120°25'4347.0
2014-Oct-15 05:31N 31°58' E 120°21'64824305.0
2014-Oct-15 05:29N 23°02' E 113°31'64611630.4
2014-Oct-15 05:26N 31°57' E 120°18'44523920.7
2014-Oct-15 05:25N 39°05' E 117°47'99625256.8
2014-Oct-15 05:22N 22°53' E 113°31'66670511.6
2014-Oct-15 05:22N 31°29' E 121°24'891.1
2014-Oct-15 05:17N 31°23' E 121°30'4762530.6
2014-Oct-15 05:05N 23°58' E 118°19'8451528.6
2014-Oct-15 04:32N 37°45' E 121°38'843189676.1
2014-Oct-15 04:32N 23°59' E 118°21'489879815.9
2014-Oct-15 04:32N 31°57' E 120°18'677121797.5
2014-Oct-15 04:32N 22°18' E 113°44'679128569.8
2014-Oct-15 04:31N 31°58' E 120°21'65119379.8
2014-Oct-15 04:29N 23°02' E 113°24'53295.4
2014-Oct-15 04:29N 23°04' E 113°29'62334506.5
2014-Oct-15 04:28N 29°59' E 122°08'1519364.3
2014-Oct-15 04:27N 31°57' E 120°18'68945.0
2014-Oct-15 04:23N 31°26' E 121°29'4104.6
2014-Oct-15 04:20N 31°22' E 121°30'6574365.3
2014-Oct-15 04:11N 23°01' E 113°31'6421016.1
2014-Oct-15 03:33N 31°56' E 120°12'35616854.0
2014-Oct-15 03:32N 37°44' E 121°42'353115659.1
2014-Oct-15 03:32N 31°57' E 120°18'3319.4
2014-Oct-15 03:31N 31°58' E 120°21'64817811.0
2014-Oct-15 03:29N 23°01' E 113°31'395458.9
2014-Oct-15 03:29N 22°25' E 113°46'421218.4
2014-Oct-15 03:27N 23°04' E 113°30'656124272.1
2014-Oct-15 03:26N 31°47' E 120°56'656147577.9
2014-Oct-15 03:26N 23°04' E 113°29'62333983.7
2014-Oct-15 03:25N 29°59' E 122°08'6537577.8
2014-Oct-15 03:20N 22°17' E 113°35'693155833.2
2014-Oct-15 03:20N 31°30' E 121°24'6777295.1
2014-Oct-15 03:14N 22°24' E 113°54'338.8
2014-Oct-15 03:09N 22°28' E 113°54'6819044.4
2014-Oct-15 03:05N 32°02' E 120°45'511831.0
2014-Oct-15 03:03N 31°26' E 121°29'67132.4
2014-Oct-15 02:33N 31°57' E 120°18'3191.7
2014-Oct-15 02:32N 31°58' E 120°21'14918545.8
2014-Oct-15 02:31N 29°59' E 122°08'623131870.9
2014-Oct-15 02:31N 23°04' E 113°30'5010498.2
2014-Oct-15 02:31N 22°15' E 113°36'47383.4
2014-Oct-15 02:23N 23°01' E 113°31'331.9
2014-Oct-15 02:17N 23°04' E 113°29'97714064.3
2014-Oct-15 02:13N 37°42' E 121°47'3472055.7
2014-Oct-15 02:03N 31°60' E 120°35'6751354.5
2014-Oct-15 01:33N 22°28' E 113°54'10001199753.0
2014-Oct-15 01:33N 37°39' E 121°48'34966143.3
2014-Oct-15 01:33N 31°58' E 120°21'10334.5
2014-Oct-15 01:31N 32°01' E 120°32'157655.9
2014-Oct-15 01:31N 31°57' E 120°15'2179.7
2014-Oct-15 01:30N 31°57' E 120°18'1517039.3
2014-Oct-15 01:29N 29°59' E 122°08'62314106.5
2014-Oct-15 01:26N 23°04' E 113°29'1 9.9
2014-Oct-15 01:22N 23°04' E 113°30'64111892.9
2014-Oct-15 01:19N 31°57' E 120°11'2399.9
2014-Oct-15 01:05N 31°60' E 120°39'1833.5
2014-Oct-15 00:33N 31°57' E 120°18'2377.0
2014-Oct-15 00:33N 31°57' E 120°16'161723.3
2014-Oct-15 00:32N 32°00' E 120°35'34319315.3
2014-Oct-15 00:31N 37°38' E 121°50'34818427.3
2014-Oct-15 00:30N 31°58' E 120°21'81352.5
2014-Oct-15 00:30N 31°57' E 120°12'8312.7
2014-Oct-15 00:28N 31°60' E 120°21'20540.8
2014-Oct-15 00:26N 32°02' E 120°45'6802715.1
2014-Oct-15 00:11N 22°28' E 113°54'67319084.8
2014-Oct-15 00:09N 31°47' E 120°56'2745.8
2014-Oct-14 23:34N 32°02' E 120°29'71001.4
2014-Oct-14 23:33N 31°60' E 120°22'41074.5
2014-Oct-14 23:33N 32°03' E 120°25'829157.7
2014-Oct-14 23:33N 31°58' E 120°18'3124.2
2014-Oct-14 23:31N 31°58' E 120°21'349139517.1
2014-Oct-14 23:31N 37°44' E 121°13'357428704.9
2014-Oct-14 23:31N 31°47' E 120°56'3310914.2
2014-Oct-14 23:31N 31°57' E 120°18'1513097.5
2014-Oct-14 23:28N 29°59' E 122°08'45911727.7
2014-Oct-14 23:26N 37°39' E 121°52'346396.7
2014-Oct-14 22:33N 32°00' E 120°24'312028.3
2014-Oct-14 22:33N 32°02' E 120°27'4287.5
2014-Oct-14 22:33N 32°00' E 120°24'3353.2
2014-Oct-14 22:32N 31°58' E 120°21'11345.3
2014-Oct-14 22:30N 32°04' E 120°31'33915060.8
2014-Oct-14 22:29N 37°36' E 121°54'34822391.9
2014-Oct-14 22:28N 31°57' E 120°18'32312788.3
2014-Oct-14 22:26N 36°59' E 122°38'96145502.0
2014-Oct-14 22:25N 23°04' E 113°29'6232243148.1
2014-Oct-14 22:25N 29°59' E 122°08'6232814.5
2014-Oct-14 22:12N 23°04' E 113°29'6551024.7
2014-Oct-14 21:33N 32°02' E 120°30'41707.9
2014-Oct-14 21:33N 32°01' E 120°34'141884.2
2014-Oct-14 21:33N 31°57' E 120°18'3453.4
2014-Oct-14 21:32N 31°58' E 120°21'14521738.5
2014-Oct-14 21:32N 29°59' E 121°59'6201116356.4
2014-Oct-14 21:32N 23°03' E 113°25'9775670.5
2014-Oct-14 21:22N 37°36' E 121°52'22108.6
2014-Oct-14 21:10N 37°47' E 121°28'72689.2
2014-Oct-14 21:03N 36°52' E 122°28'306601.0
2014-Oct-14 20:33N 32°01' E 120°35'121181.8
2014-Oct-14 20:32N 31°58' E 120°21'6489179.7
2014-Oct-14 20:28N 23°02' E 113°31'97512228.4
2014-Oct-14 20:23N 37°37' E 121°49'33913418.8
2014-Oct-14 20:22N 32°02' E 120°45'6622395.2
2014-Oct-14 20:05N 23°04' E 113°29'6471225.9
2014-Oct-14 19:34N 31°58' E 120°21'3249.4
2014-Oct-14 19:33N 31°57' E 120°18'181762.3
2014-Oct-14 19:32N 32°00' E 120°39'34187754.7
2014-Oct-14 19:32N 37°37' E 121°47'97310004.1
2014-Oct-14 19:26N 23°04' E 113°29'9775909.1
2014-Oct-14 19:16N 37°48' E 121°32'355496.8
2014-Oct-14 18:33N 31°58' E 120°21'34746229.9
2014-Oct-14 18:33N 37°36' E 121°51'974292120.0
2014-Oct-14 18:33N 23°04' E 113°29'5409.3
2014-Oct-14 18:32N 22°60' E 113°31'6476716.8
2014-Oct-14 18:26N 31°57' E 120°18'331252.7
2014-Oct-14 18:25N 31°47' E 120°56'65610178.9
2014-Oct-14 18:21N 23°04' E 113°29'0 1.4
2014-Oct-14 18:14N 23°04' E 113°29'0 3.7
2014-Oct-14 18:13N 23°04' E 113°29'522991.0
2014-Oct-14 18:12N 22°12' E 113°34'1023216569.3
2014-Oct-14 18:12N 37°47' E 121°32'100212273.0
2014-Oct-14 18:07N 22°27' E 113°53'6671173.4
2014-Oct-14 17:33N 31°58' E 120°21'34759506.0
2014-Oct-14 17:32N 37°37' E 121°48'348139311.5
2014-Oct-14 17:32N 31°57' E 120°18'182851.8
2014-Oct-14 17:32N 32°00' E 120°39'19142.2
2014-Oct-14 17:24N 31°47' E 120°56'17213.4
2014-Oct-14 17:19N 32°02' E 120°45'66224823.8
2014-Oct-14 17:17N 23°04' E 113°29'6384521.4
2014-Oct-14 17:09N 31°58' E 120°03'1626.3
2014-Oct-14 16:33N 31°58' E 120°21'15475.4
2014-Oct-14 16:31N 32°00' E 120°39'34114633.5
2014-Oct-14 16:29N 37°37' E 121°50'348139220.2
2014-Oct-14 16:29N 31°57' E 120°18'64533147.4
2014-Oct-14 16:28N 23°04' E 113°29'5416080.9
2014-Oct-14 16:28N 22°11' E 113°36'5181.5
2014-Oct-14 16:26N 22°10' E 113°32'5419493.1
2014-Oct-14 16:26N 23°04' E 113°29'66228036.5
2014-Oct-14 16:25N 32°02' E 120°45'181071.9
2014-Oct-14 16:24N 31°47' E 120°56'65613047.6
2014-Oct-14 16:21N 23°04' E 113°29'9751236.4
2014-Oct-14 15:33N 37°37' E 121°53'35078780.7
2014-Oct-14 15:33N 31°57' E 120°12'64192327.1
2014-Oct-14 15:33N 23°04' E 113°29'978270882.3
2014-Oct-14 15:33N 37°46' E 121°41'34726578.7
2014-Oct-14 15:32N 32°02' E 120°45'2036686.0
2014-Oct-14 15:32N 31°58' E 120°21'155563.3
2014-Oct-14 15:32N 32°00' E 120°39'69483266.9
2014-Oct-14 15:31N 22°15' E 113°41'68124521.9
2014-Oct-14 15:29N 31°57' E 120°18'645178486.2
2014-Oct-14 15:29N 23°04' E 113°29'0 1.7
2014-Oct-14 15:25N 23°04' E 113°29'073.4
2014-Oct-14 15:25N 23°04' E 113°29'54694.4
2014-Oct-14 15:20N 22°10' E 113°32'689877.2
2014-Oct-14 14:33N 31°57' E 120°17'349251344.3
2014-Oct-14 14:33N 37°37' E 121°55'1003601883.2
2014-Oct-14 14:33N 22°25' E 113°53'669481394.4
2014-Oct-14 14:33N 31°58' E 120°21'647290995.2
2014-Oct-14 14:33N 23°04' E 113°29'65884587.8
2014-Oct-14 14:32N 32°00' E 120°39'18374.9
2014-Oct-14 14:29N 31°57' E 120°18'645178479.3
2014-Oct-14 14:29N 23°04' E 113°29'0 3.4
2014-Oct-14 14:28N 23°04' E 113°29'46408.2
2014-Oct-14 14:21N 22°20' E 113°44'10143857.6
2014-Oct-14 14:06N 37°47' E 121°40'350654.9
2014-Oct-14 13:33N 32°00' E 120°39'153285.7
2014-Oct-14 13:33N 32°00' E 120°22'35231654.5
2014-Oct-14 13:33N 37°46' E 121°39'35544015.7
2014-Oct-14 13:32N 31°58' E 120°21'205644.3
2014-Oct-14 13:32N 32°02' E 120°45'340122490.1
2014-Oct-14 13:32N 37°37' E 121°53'97516722.1
2014-Oct-14 13:28N 23°04' E 113°29'64421888.6
2014-Oct-14 13:26N 31°57' E 120°18'65019189.0
2014-Oct-14 13:24N 23°03' E 113°19'91092.8
2014-Oct-14 13:24N 23°04' E 113°29'42467.0
2014-Oct-14 13:18N 22°25' E 113°46'421914.9
2014-Oct-14 13:17N 23°04' E 113°29'0 5.2
2014-Oct-14 13:16N 23°04' E 113°29'66227711.7
2014-Oct-14 13:15N 32°01' E 120°47'3043965.8
2014-Oct-14 13:10N 36°53' E 122°26'67110.3
2014-Oct-14 12:34N 37°46' E 121°34'348626898.5
2014-Oct-14 12:33N 32°02' E 120°28'7817.8
2014-Oct-14 12:33N 31°58' E 120°21'65265189.9
2014-Oct-14 12:32N 23°02' E 113°22'66421349.3
2014-Oct-14 12:30N 32°00' E 120°41'6802448278.2
2014-Oct-14 12:30N 22°28' E 113°48'412154.6
2014-Oct-14 12:29N 23°04' E 113°29'6598122.6
2014-Oct-14 12:24N 31°60' E 120°41'65960817.1
2014-Oct-14 12:24N 23°04' E 113°29'951190248.9
2014-Oct-14 12:24N 36°53' E 122°28'52830.6
2014-Oct-14 12:20N 37°38' E 121°54'34121513.8
2014-Oct-14 12:19N 32°02' E 120°45'6622695.8
2014-Oct-14 12:04N 23°04' E 113°29'4 7.7
2014-Oct-14 11:33N 23°03' E 113°25'659593422.0
2014-Oct-14 11:33N 31°60' E 120°37'24067.7
2014-Oct-14 11:33N 32°01' E 120°35'34962751.3
2014-Oct-14 11:33N 37°47' E 121°29'35450932.8
2014-Oct-14 11:33N 31°58' E 120°21'314161244.6
2014-Oct-14 11:33N 36°53' E 122°30'95385770.7
2014-Oct-14 11:32N 23°02' E 113°31'65839476.4
2014-Oct-14 11:31N 32°03' E 120°33'1011657.3
2014-Oct-14 11:31N 32°02' E 120°45'34132260.2
2014-Oct-14 11:30N 37°38' E 121°52'34926767.8
2014-Oct-14 11:29N 31°57' E 120°18'65313518.9
2014-Oct-14 11:26N 22°50' E 113°35'153893.1
2014-Oct-14 11:26N 23°04' E 113°29'0 4.0
2014-Oct-14 11:25N 23°04' E 113°29'013.9
2014-Oct-14 11:25N 23°04' E 113°29'0 0.8
2014-Oct-14 11:21N 23°04' E 113°29'57205.1
2014-Oct-14 11:04N 22°11' E 113°52'9891903.8
2014-Oct-14 10:33N 36°54' E 122°26'7387190.9
2014-Oct-14 10:33N 37°47' E 121°24'347312205.1
2014-Oct-14 10:33N 32°03' E 120°34'690206988.7
2014-Oct-14 10:33N 22°14' E 113°49'5448746.8
2014-Oct-14 10:33N 23°04' E 113°25'132743.4
2014-Oct-14 10:32N 22°56' E 113°37'112193.5
2014-Oct-14 10:32N 23°04' E 113°29'64728744.9
2014-Oct-14 10:31N 31°58' E 120°21'34910475.6
2014-Oct-14 10:29N 37°38' E 121°56'97781809.3
2014-Oct-14 10:28N 23°04' E 113°29'6448286.3
2014-Oct-14 10:23N 31°57' E 120°18'68521456.2
2014-Oct-14 10:21N 22°13' E 113°35'52718.8
2014-Oct-14 10:17N 23°04' E 113°29'0 5.8
2014-Oct-14 10:16N 23°04' E 113°29'662140195.0
2014-Oct-14 10:16N 32°02' E 120°45'67947949.6
2014-Oct-14 10:15N 22°49' E 113°20'17168.2
2014-Oct-14 10:09N 23°04' E 113°29'9711654.6
2014-Oct-14 09:34N 37°47' E 121°19'34568949.1
2014-Oct-14 09:33N 32°04' E 120°30'656102737.1
2014-Oct-14 09:33N 23°04' E 113°29'64793119.2
2014-Oct-14 09:32N 31°58' E 120°21'25466.1
2014-Oct-14 09:29N 31°59' E 120°50'663340936.1
2014-Oct-14 09:29N 23°04' E 113°29'152780.1
2014-Oct-14 09:29N 22°53' E 113°18'67089308.0
2014-Oct-14 09:28N 32°01' E 120°31'6922490319.9
2014-Oct-14 09:28N 22°16' E 113°36'489662.7
2014-Oct-14 09:28N 23°04' E 113°29'4114717.1
2014-Oct-14 09:28N 22°28' E 113°48'452515.6
2014-Oct-14 09:27N 23°03' E 113°19'9293.8
2014-Oct-14 09:25N 23°04' E 113°29'9778666.4
2014-Oct-14 09:18N 37°38' E 121°56'691486.5
2014-Oct-14 09:15N 38°43' E 121°29'403574.5
2014-Oct-14 08:33N 32°03' E 120°25'203663.3
2014-Oct-14 08:33N 31°59' E 120°49'66785742.1
2014-Oct-14 08:33N 22°56' E 113°33'65110805.8
2014-Oct-14 08:29N 31°58' E 120°21'65991248.9
2014-Oct-14 08:28N 22°57' E 113°16'667400161.7
2014-Oct-14 08:28N 32°01' E 120°31'12363.0
2014-Oct-14 08:26N 31°57' E 120°18'645178486.1
2014-Oct-14 08:26N 23°04' E 113°29'0 5.0
2014-Oct-14 08:25N 23°04' E 113°29'66218055.0
2014-Oct-14 08:23N 32°02' E 120°45'4033128.1
2014-Oct-14 08:15N 38°43' E 121°31'102630774.3
2014-Oct-14 08:13N 23°04' E 113°29'0 0.8
2014-Oct-14 08:09N 23°04' E 113°29'6471098.1
2014-Oct-14 07:33N 31°58' E 120°21'26478.4
2014-Oct-14 07:33N 31°59' E 120°22'8250.0
2014-Oct-14 07:31N 32°01' E 120°31'65411424.5
2014-Oct-14 07:28N 22°59' E 113°39'64424923.3
2014-Oct-14 07:26N 31°57' E 120°18'645178487.4
2014-Oct-14 07:26N 23°04' E 113°29'0 3.6
2014-Oct-14 07:24N 23°04' E 113°29'97462640.9
2014-Oct-14 07:23N 37°37' E 121°52'10017618.2
2014-Oct-14 07:15N 22°27' E 113°48'66916272.4
2014-Oct-14 07:12N 31°58' E 120°21'46382.3
2014-Oct-14 07:05N 31°41' E 121°11'4890.9
2014-Oct-14 06:33N 31°57' E 120°17'1506.2
2014-Oct-14 06:33N 31°56' E 120°16'5363479.7
2014-Oct-14 06:33N 31°39' E 121°14'499258.8
2014-Oct-14 06:33N 31°58' E 120°21'647290997.3
2014-Oct-14 06:33N 23°04' E 113°29'97524721.2
2014-Oct-14 06:30N 37°36' E 121°54'97547435.9
2014-Oct-14 06:29N 23°04' E 113°29'66114872.8
2014-Oct-14 06:26N 31°47' E 121°05'4124742.5
2014-Oct-14 06:26N 31°57' E 120°18'59628983.3
2014-Oct-14 06:25N 23°04' E 115°17'1001027.8
2014-Oct-14 06:19N 23°04' E 113°29'41170.2
2014-Oct-14 06:05N 22°27' E 113°48'6781291.3
2014-Oct-14 05:33N 31°60' E 120°37'161096.1
2014-Oct-14 05:32N 31°57' E 120°18'64536264.8
2014-Oct-14 05:31N 23°04' E 113°29'6551178381.0
2014-Oct-14 05:31N 32°01' E 120°31'933295.5
2014-Oct-14 05:31N 31°58' E 120°21'1395619.3
2014-Oct-14 05:30N 30°45' E 122°40'67363774.8
2014-Oct-14 05:29N 23°04' E 113°29'0 3.0
2014-Oct-14 05:26N 23°04' E 113°29'0 3.6
2014-Oct-14 05:25N 23°04' E 113°29'61422113.0
2014-Oct-14 05:23N 29°59' E 121°55'1491410.1
2014-Oct-14 05:17N 31°56' E 120°07'2 2.8
2014-Oct-14 04:33N 31°56' E 120°09'1922574.8
2014-Oct-14 04:33N 32°02' E 120°30'91490.1
2014-Oct-14 04:33N 31°58' E 120°21'31513328.2
2014-Oct-14 04:32N 36°52' E 122°35'954312101.1
2014-Oct-14 04:31N 23°04' E 113°29'6551178308.5
2014-Oct-14 04:31N 32°01' E 120°31'65518554.8
2014-Oct-14 04:29N 23°04' E 113°29'63722936.0
2014-Oct-14 04:28N 31°58' E 120°01'127.2
2014-Oct-14 04:26N 31°58' E 120°02'772748.7
2014-Oct-14 04:24N 31°30' E 121°26'66026992.3
2014-Oct-14 04:22N 23°04' E 113°29'0 1.0
2014-Oct-14 04:17N 23°04' E 113°29'9724735.7
2014-Oct-14 04:05N 37°32' E 121°57'365693.3
2014-Oct-14 03:33N 31°27' E 121°29'6525884.4
2014-Oct-14 03:33N 31°60' E 120°23'3403.5
2014-Oct-14 03:33N 31°58' E 120°21'65350016.8
2014-Oct-14 03:32N 23°03' E 113°18'10932.0
2014-Oct-14 03:31N 23°04' E 113°29'024.3
2014-Oct-14 03:31N 23°04' E 113°29'951155564.8
2014-Oct-14 03:31N 36°53' E 122°26'95131396.8
2014-Oct-14 03:29N 23°04' E 113°29'65545316.5
2014-Oct-14 03:28N 32°01' E 120°31'2267.3
2014-Oct-14 03:09N 31°57' E 120°06'4134938.3
2014-Oct-14 03:04N 38°44' E 121°38'10332036.2
2014-Oct-14 02:33N 23°02' E 113°24'648233250.5
2014-Oct-14 02:33N 31°56' E 120°16'4168.4
2014-Oct-14 02:32N 31°58' E 120°21'647258654.2
2014-Oct-14 02:32N 23°04' E 113°29'95195062.1
2014-Oct-14 02:31N 36°53' E 122°26'955156319.4
2014-Oct-14 02:31N 23°02' E 113°22'423313.1
2014-Oct-14 02:30N 22°27' E 113°48'66328072.1
2014-Oct-14 02:28N 31°57' E 120°09'208890.2
2014-Oct-14 02:28N 32°01' E 120°31'65522442.9
2014-Oct-14 02:27N 23°04' E 113°29'1197.5
2014-Oct-14 02:20N 22°55' E 113°35'11259.7
2014-Oct-14 02:17N 23°04' E 113°29'102810820.8
2014-Oct-14 02:11N 38°44' E 121°36'411645.9
2014-Oct-14 01:33N 31°58' E 120°21'647166313.7
2014-Oct-14 01:33N 23°04' E 113°28'642144362.4
2014-Oct-14 01:33N 31°57' E 120°12'17645.8
2014-Oct-14 01:31N 32°01' E 120°31'30761409.2
2014-Oct-14 01:31N 36°53' E 122°26'97646851.5
2014-Oct-14 01:30N 22°27' E 113°48'417786.1
2014-Oct-14 01:29N 23°04' E 113°29'65642943.9
2014-Oct-14 01:28N 31°21' E 121°30'65616870.8
2014-Oct-14 01:26N 23°04' E 113°29'63833780.5
2014-Oct-14 01:25N 31°58' E 120°03'63815013.6
2014-Oct-14 01:22N 23°04' E 113°29'647792.3
2014-Oct-14 00:34N 31°58' E 120°21'647775992.7
2014-Oct-14 00:33N 23°04' E 113°29'644289999.5
2014-Oct-14 00:33N 31°57' E 120°17'64422523.5
2014-Oct-14 00:32N 23°04' E 113°29'655112211.3
2014-Oct-14 00:31N 32°01' E 120°31'30765021.5
2014-Oct-14 00:31N 36°53' E 122°26'97642335.9
2014-Oct-14 00:30N 22°27' E 113°48'4113450.5
2014-Oct-14 00:29N 23°04' E 113°29'064.1
2014-Oct-14 00:29N 23°04' E 113°29'657112698.6
2014-Oct-14 00:29N 31°60' E 120°39'4066773.8
2014-Oct-14 00:25N 38°44' E 121°31'013.2
2014-Oct-14 00:24N 38°44' E 121°31'73391.6
2014-Oct-14 00:13N 37°34' E 121°58'34996669.4
2014-Oct-14 00:12N 31°57' E 120°10'2031.2
2014-Oct-13 23:34N 32°03' E 120°33'657788135.2
2014-Oct-13 23:33N 23°04' E 113°30'648137329.0
2014-Oct-13 23:33N 31°60' E 120°22'71213.4
2014-Oct-13 23:33N 31°57' E 120°15'61399.3
2014-Oct-13 23:33N 31°58' E 120°21'64734744.9
2014-Oct-13 23:31N 23°04' E 113°29'4237926.1
2014-Oct-13 23:31N 22°25' E 113°46'97683624.2
2014-Oct-13 23:31N 36°48' E 122°29'33929801.7
2014-Oct-13 23:30N 31°12' E 121°30'64964938.5
2014-Oct-13 23:29N 23°04' E 113°29'033.3
2014-Oct-13 23:29N 23°04' E 113°29'65543637.7
2014-Oct-13 23:28N 32°01' E 120°31'654716.5
2014-Oct-13 22:33N 23°04' E 113°30'654392247.7
2014-Oct-13 22:33N 32°02' E 120°28'30933733.2
2014-Oct-13 22:33N 36°55' E 122°28'4828669.7
2014-Oct-13 22:33N 37°37' E 121°58'34846411.6
2014-Oct-13 22:32N 31°58' E 120°21'64749529.9
2014-Oct-13 22:31N 23°04' E 113°29'655168309.1
2014-Oct-13 22:31N 32°01' E 120°31'65518850.6
2014-Oct-13 22:29N 23°04' E 113°29'46499.3
2014-Oct-13 22:24N 22°20' E 113°42'35128.0
2014-Oct-13 22:07N 22°55' E 113°35'11413.9
2014-Oct-13 22:05N 23°04' E 113°29'6471213.1
2014-Oct-13 21:33N 31°58' E 120°21'12849.7
2014-Oct-13 21:33N 32°01' E 120°35'65684350.5
2014-Oct-13 21:32N 23°04' E 113°30'499706.6
2014-Oct-13 21:32N 22°16' E 113°39'392893.8
2014-Oct-13 21:31N 22°55' E 113°35'11413.7
2014-Oct-13 21:29N 23°04' E 113°29'032.0
2014-Oct-13 21:29N 23°04' E 113°29'105938905.6
2014-Oct-13 21:28N 39°53' E 119°48'1675039.2
2014-Oct-13 21:26N 37°39' E 121°56'97819140.3
2014-Oct-13 21:22N 23°04' E 113°29'6603210.5
2014-Oct-13 21:10N 31°45' E 121°05'33293.5
2014-Oct-13 21:03N 32°02' E 120°31'1 2.6
2014-Oct-13 20:33N 32°01' E 120°31'6542352885.2
2014-Oct-13 20:33N 23°04' E 113°30'527268.0
2014-Oct-13 20:33N 22°12' E 113°36'688123773.1
2014-Oct-13 20:33N 31°58' E 120°21'34833847.4
2014-Oct-13 20:32N 37°37' E 121°56'98298212.3
2014-Oct-13 20:31N 22°55' E 113°35'1140038.4
2014-Oct-13 20:31N 23°04' E 113°29'0 1.3
2014-Oct-13 20:26N 23°04' E 113°29'66019792.2
2014-Oct-13 20:24N 31°42' E 121°10'5006434.9
2014-Oct-13 20:19N 39°58' E 119°50'106530910.7
2014-Oct-13 20:17N 23°04' E 113°29'654892.3
2014-Oct-13 19:33N 32°01' E 120°31'143572.2
2014-Oct-13 19:33N 32°01' E 120°47'221341.7
2014-Oct-13 19:32N 31°58' E 120°21'48137665.6
2014-Oct-13 19:31N 39°58' E 119°50'1072107210.6
2014-Oct-13 19:31N 22°55' E 113°35'66780055.3
2014-Oct-13 19:30N 32°00' E 120°48'66341848.5
2014-Oct-13 19:29N 23°04' E 113°29'062.4
2014-Oct-13 19:29N 23°04' E 113°29'52617.4
2014-Oct-13 19:24N 22°12' E 113°34'52662.6
2014-Oct-13 19:19N 23°04' E 113°29'647843.8
2014-Oct-13 18:33N 31°58' E 120°21'174685.0
2014-Oct-13 18:33N 31°60' E 120°41'65948391.9
2014-Oct-13 18:32N 23°04' E 113°29'106562836.6
2014-Oct-13 18:31N 39°58' E 119°50'17018033.5
2014-Oct-13 18:31N 37°39' E 121°57'97934204.9
2014-Oct-13 18:29N 23°04' E 113°29'11153.6
2014-Oct-13 18:25N 22°55' E 113°35'11291.2
2014-Oct-13 18:22N 23°04' E 113°29'0 0.9
2014-Oct-13 18:17N 23°04' E 113°29'521898.0
2014-Oct-13 18:16N 22°12' E 113°34'1 1.6
2014-Oct-13 17:33N 22°11' E 113°35'699359489.7
2014-Oct-13 17:33N 32°02' E 120°34'657788461.6
2014-Oct-13 17:33N 23°04' E 113°29'64756781.3
2014-Oct-13 17:32N 31°58' E 120°21'34830548.7
2014-Oct-13 17:32N 37°37' E 121°57'17329587.3
2014-Oct-13 17:31N 39°58' E 119°50'106531676.4
2014-Oct-13 17:29N 23°04' E 113°29'0 0.7
2014-Oct-13 17:22N 23°04' E 113°29'0 0.7
2014-Oct-13 17:17N 23°04' E 113°29'66026681.4
2014-Oct-13 17:16N 31°29' E 121°27'47389.0
2014-Oct-13 17:08N 32°01' E 120°48'6631128.8
2014-Oct-13 16:33N 23°04' E 113°29'6471164016.6
2014-Oct-13 16:33N 31°58' E 120°21'84664.3
2014-Oct-13 16:33N 32°04' E 120°27'69618436.0
2014-Oct-13 16:31N 22°11' E 113°35'4319558.8
2014-Oct-13 16:31N 22°55' E 113°35'11511.7
2014-Oct-13 16:29N 23°04' E 113°29'663183549.9
2014-Oct-13 16:29N 32°01' E 120°48'6631193043.7
2014-Oct-13 16:29N 23°04' E 113°29'106585169.4
2014-Oct-13 16:28N 39°58' E 119°50'5195897.6
2014-Oct-13 16:23N 31°25' E 121°31'65960856.4
2014-Oct-13 16:22N 23°04' E 113°29'649795.3
2014-Oct-13 15:34N 31°60' E 120°22'2592.1
2014-Oct-13 15:33N 31°58' E 120°21'6472328051.3
2014-Oct-13 15:33N 23°04' E 113°29'66325118.0
2014-Oct-13 15:32N 32°01' E 120°48'663198843.2
2014-Oct-13 15:31N 23°04' E 113°29'10653832773.4
2014-Oct-13 15:31N 39°58' E 119°50'106532209.3
2014-Oct-13 15:29N 23°04' E 113°29'517076.7
2014-Oct-13 15:29N 22°14' E 113°41'42472.9
2014-Oct-13 15:24N 22°56' E 113°36'1198.6
2014-Oct-13 15:17N 23°04' E 113°29'643883.0
2014-Oct-13 14:33N 31°57' E 120°16'4779.7
2014-Oct-13 14:33N 31°58' E 120°21'48116501.7
2014-Oct-13 14:31N 39°58' E 119°50'106558077.6
2014-Oct-13 14:30N 23°04' E 113°29'0 1.2
2014-Oct-13 14:26N 23°04' E 113°29'66329827.2
2014-Oct-13 14:25N 32°01' E 120°48'6637341.9
2014-Oct-13 14:20N 23°04' E 113°29'0 0.3
2014-Oct-13 14:05N 23°04' E 113°29'0 0.4
2014-Oct-13 13:33N 23°04' E 113°29'647232805.2
2014-Oct-13 13:33N 31°58' E 120°21'64734234.2
2014-Oct-13 13:32N 23°04' E 113°29'1065225462.5
2014-Oct-13 13:31N 39°58' E 119°50'48319746.8
2014-Oct-13 13:30N 31°56' E 120°10'6403095.6
2014-Oct-13 13:17N 23°04' E 113°29'0 2.7
2014-Oct-13 13:14N 23°04' E 113°29'0 0.3
2014-Oct-13 12:32N 23°04' E 113°29'011.4
2014-Oct-13 12:32N 23°04' E 113°29'1065294837.1
2014-Oct-13 12:31N 39°58' E 119°50'481123766.1
2014-Oct-13 12:31N 31°58' E 120°21'64721162.9
2014-Oct-13 12:29N 23°04' E 113°29'0 3.0
2014-Oct-13 12:26N 23°04' E 113°29'11317.9
2014-Oct-13 12:24N 22°55' E 113°35'6432149.0
2014-Oct-13 12:06N 31°57' E 120°04'1526.5
2014-Oct-13 11:33N 31°58' E 120°21'64768472.1
2014-Oct-13 11:33N 23°04' E 113°29'106554759.5
2014-Oct-13 11:32N 39°58' E 119°50'1072296900.3
2014-Oct-13 11:32N 22°55' E 113°35'64213603.4
2014-Oct-13 11:29N 31°58' E 120°02'63715195.0
2014-Oct-13 11:26N 23°04' E 113°29'0 0.6
2014-Oct-13 11:19N 23°04' E 113°29'0 2.3
2014-Oct-13 11:17N 23°04' E 113°29'0 0.1
2014-Oct-13 10:33N 23°04' E 113°29'647776023.1
2014-Oct-13 10:33N 31°58' E 120°21'64722383.9
2014-Oct-13 10:31N 23°04' E 113°29'63743281.2
2014-Oct-13 10:31N 31°59' E 119°59'644178306.7
2014-Oct-13 10:30N 23°03' E 113°17'12714.1
2014-Oct-13 10:29N 23°04' E 113°29'106555550.0
2014-Oct-13 10:28N 39°58' E 119°50'10949206.0
2014-Oct-13 10:21N 22°29' E 113°47'663198814.4
2014-Oct-13 10:21N 30°30' E 122°16'65116612.6
2014-Oct-13 10:19N 22°55' E 113°35'11151.8
2014-Oct-13 10:14N 23°04' E 113°29'647952.1
2014-Oct-13 09:33N 31°58' E 120°21'651586248.0
2014-Oct-13 09:33N 23°02' E 113°24'65017.5
2014-Oct-13 09:33N 23°04' E 113°29'65329028.7
2014-Oct-13 09:32N 30°36' E 122°18'57550516.4
2014-Oct-13 09:31N 39°58' E 119°50'107259379.1
2014-Oct-13 09:30N 22°55' E 113°35'11886.5
2014-Oct-13 09:29N 23°04' E 113°29'079.1
2014-Oct-13 09:29N 23°04' E 113°29'41105.9
2014-Oct-13 09:06N 22°27' E 113°47'6701229.4
2014-Oct-13 08:33N 31°58' E 120°21'647122575.5
2014-Oct-13 08:33N 23°03' E 113°30'1597.9
2014-Oct-13 08:33N 23°04' E 113°29'416396.3
2014-Oct-13 08:33N 22°27' E 113°47'67335094.0
2014-Oct-13 08:31N 32°00' E 120°22'478172211.2
2014-Oct-13 08:31N 39°58' E 119°50'568113545.1
2014-Oct-13 08:31N 30°44' E 122°19'12233690.9
2014-Oct-13 08:31N 31°56' E 120°25'64724788.9
2014-Oct-13 08:29N 23°04' E 113°29'1163.1
2014-Oct-13 08:18N 22°55' E 113°35'11165.4
2014-Oct-13 08:14N 23°04' E 113°29'654958.4
2014-Oct-13 07:33N 32°01' E 120°31'654181073.7
2014-Oct-13 07:33N 23°04' E 113°29'22364.4
2014-Oct-13 07:33N 23°05' E 113°27'10786.4
2014-Oct-13 07:32N 22°56' E 113°33'22616979.3
2014-Oct-13 07:32N 23°39' E 117°35'22299809.9
2014-Oct-13 07:31N 22°27' E 113°47'675151950.2
2014-Oct-13 07:31N 31°22' E 121°29'5221880162.1
2014-Oct-13 07:31N 39°58' E 119°50'48123413.3
2014-Oct-13 07:30N 31°58' E 120°21'3912793.2
2014-Oct-13 07:30N 31°47' E 121°06'661170069.9
2014-Oct-13 07:30N 23°04' E 113°29'6634734.4
2014-Oct-13 07:21N 32°01' E 120°48'1032804.5
2014-Oct-13 07:19N 30°54' E 122°19'66623742.0
2014-Oct-13 07:17N 23°04' E 113°29'2 2.3
2014-Oct-13 06:33N 23°05' E 113°27'6472329746.3
2014-Oct-13 06:33N 31°58' E 120°21'194.9
2014-Oct-13 06:32N 31°58' E 120°23'64812274.0
2014-Oct-13 06:29N 23°04' E 113°29'106564959.4
2014-Oct-13 06:28N 39°58' E 119°50'1069137393.1
2014-Oct-13 06:28N 23°02' E 113°21'66258102.6
2014-Oct-13 06:27N 31°22' E 121°29'50078233.5
2014-Oct-13 06:27N 23°44' E 117°42'2326533.8
2014-Oct-13 06:24N 22°48' E 113°37'23540.7
2014-Oct-13 06:22N 22°27' E 113°47'667825.6
2014-Oct-13 05:33N 31°57' E 120°17'644165493.9
2014-Oct-13 05:33N 23°04' E 113°29'64751735.3
2014-Oct-13 05:33N 31°58' E 120°21'664103958.2
2014-Oct-13 05:32N 22°31' E 113°52'109166575.4
2014-Oct-13 05:31N 39°58' E 119°50'106871221.1
2014-Oct-13 05:30N 23°03' E 113°20'24924236.2
2014-Oct-13 05:30N 23°49' E 117°47'4948230.0
2014-Oct-13 05:26N 31°22' E 121°29'6561883.7
2014-Oct-13 05:05N 23°04' E 113°29'0 0.4
2014-Oct-13 04:33N 23°04' E 113°29'64724000.5
2014-Oct-13 04:32N 31°58' E 120°21'50266973.2
2014-Oct-13 04:31N 23°54' E 117°49'4891759901.4
2014-Oct-13 04:31N 31°22' E 121°29'52210274.1
2014-Oct-13 04:28N 39°58' E 119°50'109111034.8
2014-Oct-13 04:22N 22°31' E 113°52'39453.8
2014-Oct-13 04:17N 23°04' E 113°29'0 0.4
2014-Oct-13 03:33N 23°04' E 113°29'647582008.4
2014-Oct-13 03:33N 31°58' E 120°21'6740452.6
2014-Oct-13 03:33N 31°22' E 121°29'52214688.6
2014-Oct-13 03:31N 39°58' E 119°50'10729017.5
2014-Oct-13 03:24N 22°55' E 113°35'65911235.8
2014-Oct-13 03:20N 32°01' E 120°31'50813168.4
2014-Oct-13 03:18N 23°53' E 117°50'24412721.9
2014-Oct-13 03:17N 23°04' E 113°29'647892.6
2014-Oct-13 02:33N 31°58' E 120°21'647332573.7
2014-Oct-13 02:33N 23°04' E 113°29'65630259.8
2014-Oct-13 02:32N 31°22' E 121°29'4859648.8
2014-Oct-13 02:29N 23°57' E 117°52'2474777.1
2014-Oct-13 02:26N 23°04' E 113°29'106570974.3
2014-Oct-13 02:25N 39°58' E 119°50'11033492.3
2014-Oct-13 02:06N 22°20' E 113°46'4784.1
2014-Oct-13 01:33N 23°04' E 113°29'64755429.4
2014-Oct-13 01:32N 31°58' E 120°21'67837554.7
2014-Oct-13 01:31N 22°17' E 113°48'1106796039.2
2014-Oct-13 01:31N 39°58' E 119°50'106530660.9
2014-Oct-13 01:29N 23°04' E 113°29'11129.8
2014-Oct-13 01:24N 22°55' E 113°35'651777.6
2014-Oct-13 00:34N 31°58' E 120°21'66763213.6
2014-Oct-13 00:33N 22°18' E 114°09'5910560.3
2014-Oct-13 00:33N 23°04' E 113°29'12508.3
2014-Oct-13 00:31N 22°53' E 113°34'1074429520.2
2014-Oct-13 00:31N 39°58' E 119°50'106512648.9
2014-Oct-13 00:26N 23°04' E 113°29'25630723.1
2014-Oct-13 00:25N 24°07' E 117°60'2531963.0
2014-Oct-13 00:18N 22°55' E 113°35'1114.8
2014-Oct-12 23:33N 23°04' E 113°29'11182.7
2014-Oct-12 23:30N 22°55' E 113°35'25866463.4
2014-Oct-12 23:29N 24°12' E 118°04'481115435.2
2014-Oct-12 23:29N 31°58' E 120°21'647166280.2
2014-Oct-12 23:29N 23°04' E 113°29'10659169.0
2014-Oct-12 23:22N 39°58' E 119°50'10651310.9
2014-Oct-12 22:33N 23°04' E 113°29'595708.3
2014-Oct-12 22:33N 22°18' E 114°09'66740714.2
2014-Oct-12 22:32N 31°58' E 120°21'476131686.8
2014-Oct-12 22:31N 24°16' E 118°09'946121566.0
2014-Oct-12 22:31N 39°58' E 119°50'107255935.2
2014-Oct-12 22:30N 22°55' E 113°35'1158.1
2014-Oct-12 22:18N 23°04' E 113°29'0 0.3
2014-Oct-12 21:33N 23°04' E 113°29'64724000.5
2014-Oct-12 21:32N 31°58' E 120°21'64728739.8
2014-Oct-12 21:30N 23°04' E 113°29'11893.3
2014-Oct-12 21:30N 22°55' E 113°35'107239788.7
2014-Oct-12 21:28N 39°58' E 119°50'10651168.6
2014-Oct-12 20:33N 23°04' E 113°29'64786224.1
2014-Oct-12 20:33N 31°58' E 120°21'48115198.3
2014-Oct-12 20:31N 39°58' E 119°50'1065103585.3
2014-Oct-12 20:30N 23°04' E 113°29'1127.2
2014-Oct-12 20:06N 22°55' E 113°35'6511208.9
2014-Oct-12 19:33N 31°58' E 120°21'647388008.7
2014-Oct-12 19:33N 23°04' E 113°29'0 4.5
2014-Oct-12 19:30N 23°04' E 113°29'1198.0
2014-Oct-12 19:23N 22°55' E 113°35'10726078.0
2014-Oct-12 19:13N 39°58' E 119°50'481730.4
2014-Oct-12 18:33N 31°58' E 120°21'647465614.0
2014-Oct-12 18:33N 23°04' E 113°29'106526617.8
2014-Oct-12 18:31N 39°58' E 119°50'106517909.3
2014-Oct-12 18:27N 23°04' E 113°29'0 0.2
2014-Oct-12 17:33N 23°04' E 113°29'647332578.8
2014-Oct-12 17:33N 31°58' E 120°21'48112646.8
2014-Oct-12 17:31N 39°58' E 119°50'1065116137.8
2014-Oct-12 17:30N 23°04' E 113°29'11710.9
2014-Oct-12 17:29N 22°55' E 113°35'1111.8
2014-Oct-12 16:33N 23°04' E 113°29'647232805.1
2014-Oct-12 16:33N 31°58' E 120°21'647129362.0
2014-Oct-12 16:33N 22°58' E 113°39'12261.9
2014-Oct-12 16:30N 23°04' E 113°29'10657529.6
2014-Oct-12 16:22N 39°58' E 119°50'110940732.4
2014-Oct-12 16:20N 22°17' E 113°35'684879.8
2014-Oct-12 15:33N 31°58' E 120°21'45871723.0
2014-Oct-12 15:33N 24°24' E 119°08'321288458.7
2014-Oct-12 15:33N 23°04' E 113°29'12778.1
2014-Oct-12 15:32N 22°53' E 113°34'12392.2
2014-Oct-12 15:30N 23°04' E 113°29'10657500.0
2014-Oct-12 15:22N 39°58' E 119°50'10681323.7
2014-Oct-12 14:33N 23°02' E 113°24'6512342416.8
2014-Oct-12 14:33N 31°58' E 120°21'686176323.7
2014-Oct-12 14:33N 22°08' E 113°47'32238666.4
2014-Oct-12 14:33N 24°21' E 119°07'93830155.3
2014-Oct-12 14:31N 39°58' E 119°50'1065136879.6
2014-Oct-12 14:30N 23°04' E 113°29'647651.5
2014-Oct-12 13:31N 31°58' E 120°21'64786218.7
2014-Oct-12 13:30N 23°04' E 113°29'106511372.7
2014-Oct-12 13:25N 39°58' E 119°50'4762862.9
2014-Oct-12 13:15N 32°03' E 120°25'5494345.5
2014-Oct-12 13:07N 23°14' E 117°38'548955.0
2014-Oct-12 12:33N 32°02' E 120°25'6272.7
2014-Oct-12 12:31N 31°58' E 120°21'64734233.9
2014-Oct-12 12:30N 23°04' E 113°29'106511339.3
2014-Oct-12 12:25N 39°58' E 119°50'10998419.5
2014-Oct-12 12:17N 22°18' E 114°09'32157.0
2014-Oct-12 12:04N 22°38' E 113°41'6631269.7
2014-Oct-12 11:33N 31°59' E 120°20'663341168.9
2014-Oct-12 11:33N 22°38' E 113°41'66327439.6
2014-Oct-12 11:32N 31°58' E 120°21'64729844.9
2014-Oct-12 11:30N 23°04' E 113°29'106524411.9
2014-Oct-12 11:28N 39°58' E 119°50'10871204.8
2014-Oct-12 10:34N 22°38' E 113°41'663341039.8
2014-Oct-12 10:33N 31°58' E 120°21'48110252.0
2014-Oct-12 10:31N 39°58' E 119°50'1065191634.6
2014-Oct-12 10:30N 23°04' E 113°29'11284.1
2014-Oct-12 10:28N 22°55' E 113°35'64714199.3
2014-Oct-12 10:25N 31°56' E 120°15'6633195.0
2014-Oct-12 10:13N 22°18' E 114°09'6671018.3
2014-Oct-12 09:33N 31°58' E 120°21'45616918.5
2014-Oct-12 09:32N 24°28' E 118°58'45310310.9
2014-Oct-12 09:29N 31°56' E 120°10'66140323.5
2014-Oct-12 09:28N 22°18' E 114°09'593925.9
2014-Oct-12 09:27N 23°04' E 113°29'106523658.5
2014-Oct-12 09:25N 39°58' E 119°50'9286948.5
2014-Oct-12 09:17N 24°31' E 118°59'457635.0
2014-Oct-12 08:33N 32°01' E 120°31'453325953.3
2014-Oct-12 08:33N 24°36' E 118°56'29932570.1
2014-Oct-12 08:33N 22°19' E 114°06'57623.8
2014-Oct-12 08:27N 23°04' E 113°29'30910035.7
2014-Oct-12 08:25N 24°24' E 118°55'93514445.8
2014-Oct-12 08:22N 39°58' E 119°50'48112201.4
2014-Oct-12 08:19N 31°58' E 120°21'6518031.4
2014-Oct-12 08:14N 22°55' E 113°35'659951.7
2014-Oct-12 07:33N 32°01' E 120°31'44655385.6
2014-Oct-12 07:32N 24°43' E 118°51'44237902.7
2014-Oct-12 07:32N 31°58' E 120°21'3059989.5
2014-Oct-12 07:30N 36°47' E 122°20'2245979.5
2014-Oct-12 07:28N 39°58' E 119°50'1065273757.7
2014-Oct-12 07:27N 23°04' E 113°29'65629902.3
2014-Oct-12 07:26N 31°22' E 121°30'6758024.3
2014-Oct-12 07:21N 22°22' E 113°55'373347.4
2014-Oct-12 07:20N 22°55' E 113°35'10721374.9
2014-Oct-12 06:33N 39°58' E 119°50'48166539.6
2014-Oct-12 06:33N 31°58' E 120°21'859.3
2014-Oct-12 06:25N 32°01' E 120°31'6748086.5
2014-Oct-12 06:20N 22°19' E 114°09'592750.7
2014-Oct-12 06:18N 23°04' E 113°29'6552819.2
2014-Oct-12 06:04N 32°04' E 120°28'2 3.2
2014-Oct-12 05:33N 32°03' E 120°26'476570767.0
2014-Oct-12 05:33N 39°58' E 119°50'481216250.9
2014-Oct-12 05:33N 31°58' E 120°21'64712872.5
2014-Oct-12 05:30N 23°04' E 113°29'10138.5
2014-Oct-12 05:26N 23°03' E 113°18'2763539.5
2014-Oct-12 05:21N 24°19' E 118°08'88615413.2
2014-Oct-12 05:18N 39°05' E 117°47'109147.8
2014-Oct-12 04:33N 39°58' E 119°50'48182422.5
2014-Oct-12 04:33N 31°58' E 120°19'293.5
2014-Oct-12 04:32N 31°58' E 120°21'652167732.1
2014-Oct-12 04:32N 23°02' E 113°22'10681097.6
2014-Oct-12 03:33N 39°58' E 119°50'481108125.4
2014-Oct-12 03:33N 31°58' E 120°21'381910.7
2014-Oct-12 03:32N 31°47' E 121°04'662238296.8
2014-Oct-12 03:32N 23°05' E 113°26'98521113.7
2014-Oct-12 03:29N 39°04' E 117°49'497255714.6
2014-Oct-12 03:29N 31°21' E 121°31'656214793.2
2014-Oct-12 03:29N 23°04' E 113°29'6562684.4
2014-Oct-12 03:14N 31°22' E 121°30'66418380.7
2014-Oct-12 03:12N 22°50' E 113°35'10771678.7
2014-Oct-12 02:33N 39°58' E 119°50'48125821.3
2014-Oct-12 02:32N 31°58' E 120°21'683819086.8
2014-Oct-12 02:32N 22°10' E 113°52'581851.3
2014-Oct-12 02:30N 23°04' E 113°29'65628795.3
2014-Oct-12 02:29N 31°21' E 121°31'656118135.0
2014-Oct-12 02:29N 23°04' E 113°29'6567093.6
2014-Oct-12 02:23N 31°22' E 121°30'67212530.4
2014-Oct-12 02:20N 22°20' E 114°05'6603799.3
2014-Oct-12 02:09N 31°59' E 119°59'223622.0
2014-Oct-12 02:09N 31°55' E 120°25'31212066.3
2014-Oct-12 02:07N 36°49' E 122°28'3147342.1
2014-Oct-12 02:05N 31°57' E 120°10'1324.5
2014-Oct-12 01:33N 31°57' E 120°25'107332.0
2014-Oct-12 01:33N 31°57' E 120°13'726866.7
2014-Oct-12 01:33N 31°58' E 120°21'481288338.1
2014-Oct-12 01:33N 39°58' E 119°50'111052565.9
2014-Oct-12 01:32N 22°13' E 113°45'531835.3
2014-Oct-12 01:30N 23°04' E 113°29'65630271.8
2014-Oct-12 01:29N 31°21' E 121°31'65611581.7
2014-Oct-12 01:26N 23°04' E 113°29'6563394.0
2014-Oct-12 01:14N 31°22' E 121°30'69102.0
2014-Oct-12 00:33N 31°58' E 120°21'2542.7
2014-Oct-12 00:33N 31°59' E 120°19'65141848.9
2014-Oct-12 00:32N 22°55' E 113°35'66757160.5
2014-Oct-12 00:31N 32°00' E 120°48'66237823.3
2014-Oct-12 00:30N 23°04' E 113°29'65631908.1
2014-Oct-12 00:29N 31°21' E 121°31'68931418.0
2014-Oct-12 00:28N 22°17' E 113°37'68923635.0
2014-Oct-12 00:26N 31°22' E 121°30'65698424.9
2014-Oct-12 00:26N 23°04' E 113°29'106514740.8
2014-Oct-12 00:21N 39°58' E 119°50'4729234.5
2014-Oct-12 00:18N 32°06' E 119°51'343458.5
2014-Oct-11 23:33N 37°42' E 121°14'34751988.9
2014-Oct-11 23:33N 31°58' E 120°21'42355.7
2014-Oct-11 23:33N 32°01' E 120°25'668141360.5
2014-Oct-11 23:33N 22°38' E 113°41'29767.4
2014-Oct-11 23:30N 23°04' E 113°29'015.5
2014-Oct-11 23:29N 23°04' E 113°29'106547316.2
2014-Oct-11 23:27N 39°58' E 119°50'52325103.7
2014-Oct-11 23:26N 31°22' E 121°30'3739465.7
2014-Oct-11 23:24N 37°35' E 121°52'37446394.8
2014-Oct-11 23:23N 31°21' E 121°31'60431.3
2014-Oct-11 23:15N 31°60' E 120°37'34248.8
2014-Oct-11 23:07N 32°02' E 119°57'3053.8
2014-Oct-11 22:33N 32°01' E 120°33'21477.8
2014-Oct-11 22:33N 32°02' E 120°31'6722417602.2
2014-Oct-11 22:33N 22°38' E 113°41'655102534.2
2014-Oct-11 22:33N 31°60' E 120°00'35137128.8
2014-Oct-11 22:32N 37°38' E 121°53'34835790.5
2014-Oct-11 22:32N 31°58' E 120°21'34824106.0
2014-Oct-11 22:31N 37°42' E 121°28'1562587.3
2014-Oct-11 22:27N 39°58' E 119°50'1064255430.2
2014-Oct-11 22:27N 23°04' E 113°29'65610494.1
2014-Oct-11 22:23N 31°21' E 121°31'6642185.5
2014-Oct-11 22:05N 22°49' E 113°36'9851866.9
2014-Oct-11 21:33N 37°42' E 121°37'137757.7
2014-Oct-11 21:33N 37°38' E 121°52'169304546.0
2014-Oct-11 21:33N 39°58' E 119°50'481123586.7
2014-Oct-11 21:33N 31°58' E 120°21'7753.9
2014-Oct-11 21:32N 32°02' E 120°28'185844.2
2014-Oct-11 21:32N 31°57' E 120°08'646290618.0
2014-Oct-11 21:32N 22°54' E 113°35'101938.2
2014-Oct-11 21:32N 23°03' E 113°31'65715654.1
2014-Oct-11 21:29N 31°21' E 121°31'1 3.4
2014-Oct-11 21:13N 31°22' E 121°30'6496.6
2014-Oct-11 20:33N 32°03' E 120°33'1119718.9
2014-Oct-11 20:33N 31°58' E 120°21'349418496.0
2014-Oct-11 20:33N 37°39' E 121°53'351157993.3
2014-Oct-11 20:33N 31°57' E 120°16'35370523.9
2014-Oct-11 20:33N 37°43' E 121°40'34649802.4
2014-Oct-11 20:32N 32°02' E 120°28'671011.9
2014-Oct-11 20:28N 31°21' E 121°31'1251.8
2014-Oct-11 20:28N 31°22' E 121°30'5237843.1
2014-Oct-11 20:24N 39°58' E 119°50'48012350.1
2014-Oct-11 20:22N 32°00' E 120°49'6632480.8
2014-Oct-11 20:06N 23°04' E 113°29'6880.3
2014-Oct-11 20:05N 23°02' E 113°23'3 4.9
2014-Oct-11 19:33N 23°04' E 113°25'6552358474.1
2014-Oct-11 19:33N 32°02' E 120°27'62313.8
2014-Oct-11 19:33N 31°58' E 120°21'481216264.4
2014-Oct-11 19:33N 39°58' E 119°50'16128983.9
2014-Oct-11 19:33N 37°42' E 121°41'3814913.5
2014-Oct-11 19:28N 31°22' E 121°30'641211.7
2014-Oct-11 19:25N 32°03' E 120°33'652521.7
2014-Oct-11 19:23N 31°21' E 121°31'6567011.2
2014-Oct-11 19:18N 23°04' E 113°29'648875.4
2014-Oct-11 18:33N 31°59' E 120°21'1440.3
2014-Oct-11 18:33N 31°58' E 120°21'703190.7
2014-Oct-11 18:32N 31°21' E 121°31'383106157.2
2014-Oct-11 18:32N 37°44' E 121°38'97745085.9
2014-Oct-11 18:30N 23°03' E 113°30'1066182696.5
2014-Oct-11 18:30N 39°58' E 119°50'52317429.8
2014-Oct-11 18:28N 31°22' E 121°30'44047963.4
2014-Oct-11 18:28N 38°41' E 121°32'102562520.6
2014-Oct-11 18:27N 23°04' E 113°29'97821080.6
2014-Oct-11 18:24N 37°39' E 121°57'353419.8
2014-Oct-11 17:33N 31°56' E 120°13'84574.4
2014-Oct-11 17:33N 31°58' E 120°21'4111369.6
2014-Oct-11 17:33N 31°44' E 121°07'66414839.7
2014-Oct-11 17:30N 22°57' E 113°33'1071154155.4
2014-Oct-11 17:30N 39°58' E 119°50'1065225448.4
2014-Oct-11 17:30N 23°04' E 113°29'65628813.1
2014-Oct-11 17:28N 31°21' E 121°31'3842749.3
2014-Oct-11 17:20N 37°45' E 121°42'159203.2
2014-Oct-11 16:33N 39°58' E 119°50'481108131.6
2014-Oct-11 16:33N 31°58' E 120°21'35326473.1
2014-Oct-11 16:32N 37°45' E 121°39'35744296.0
2014-Oct-11 16:31N 31°57' E 120°03'35423151.9
2014-Oct-11 16:31N 37°39' E 121°53'37910565.2
2014-Oct-11 16:28N 31°21' E 121°31'24187.2
2014-Oct-11 16:21N 31°40' E 121°14'66012852.2
2014-Oct-11 16:18N 23°04' E 113°29'65634237.4
2014-Oct-11 16:17N 31°22' E 121°30'6995.9
2014-Oct-11 15:33N 31°58' E 120°21'48196120.1
2014-Oct-11 15:33N 39°58' E 119°50'52439266.4
2014-Oct-11 15:32N 31°21' E 121°31'385125934.4
2014-Oct-11 15:32N 37°46' E 121°35'36729991.4
2014-Oct-11 15:31N 31°40' E 121°14'35917719.7
2014-Oct-11 15:30N 37°38' E 121°51'975219364.5
2014-Oct-11 15:30N 23°04' E 113°29'484299.8
2014-Oct-11 15:29N 22°17' E 113°36'2245.4
2014-Oct-11 15:29N 22°17' E 113°38'683738.4
2014-Oct-11 14:33N 31°58' E 120°21'3441239308.2
2014-Oct-11 14:33N 37°35' E 121°51'3721337754.4
2014-Oct-11 14:33N 31°23' E 121°30'521144345.3
2014-Oct-11 14:33N 39°58' E 119°50'11103996800.0
2014-Oct-11 14:33N 22°13' E 113°44'69411679.5
2014-Oct-11 14:29N 31°40' E 121°14'6983918.1
2014-Oct-11 14:19N 22°15' E 113°35'504096.8
2014-Oct-11 14:18N 23°04' E 113°29'6563013.3
2014-Oct-11 14:05N 31°22' E 121°30'68129.8
2014-Oct-11 13:33N 31°58' E 120°23'101937.2
2014-Oct-11 13:33N 32°03' E 120°32'613832.6
2014-Oct-11 13:32N 31°26' E 121°29'663041.1
2014-Oct-11 13:31N 31°58' E 120°21'687137323.8
2014-Oct-11 13:30N 22°15' E 113°35'1111105254.8
2014-Oct-11 13:30N 39°58' E 119°50'50315091.4
2014-Oct-11 13:28N 31°40' E 121°14'6931247570.6
2014-Oct-11 13:28N 22°09' E 113°53'603987.5
2014-Oct-11 13:27N 23°04' E 113°29'97769000.0
2014-Oct-11 13:26N 37°44' E 121°43'352401.8
2014-Oct-11 12:33N 31°58' E 120°21'81438.5
2014-Oct-11 12:33N 32°04' E 120°28'1210600.4
2014-Oct-11 12:33N 31°57' E 120°17'349114242.8
2014-Oct-11 12:33N 37°38' E 121°49'36855250.4
2014-Oct-11 12:32N 31°30' E 121°23'13382.2
2014-Oct-11 12:30N 31°40' E 121°14'66076698.6
2014-Oct-11 12:30N 23°04' E 113°29'1065225461.7
2014-Oct-11 12:30N 39°58' E 119°50'11115420.4
2014-Oct-11 12:17N 22°14' E 113°35'10151384.7
2014-Oct-11 11:33N 37°36' E 121°45'34238500.5
2014-Oct-11 11:33N 32°01' E 120°23'3352.9
2014-Oct-11 11:32N 31°58' E 120°21'34969746.0
2014-Oct-11 11:32N 37°41' E 121°38'36222861.1
2014-Oct-11 11:31N 31°40' E 121°14'66611.0
2014-Oct-11 11:25N 31°60' E 120°00'67824916.0
2014-Oct-11 11:23N 22°14' E 113°35'69655685.6
2014-Oct-11 11:22N 31°35' E 121°17'430129111.7
2014-Oct-11 11:22N 38°45' E 121°41'10313835.6
2014-Oct-11 11:06N 23°04' E 113°29'6391182.6
2014-Oct-11 10:33N 31°58' E 120°05'348104407.5
2014-Oct-11 10:33N 37°36' E 121°46'34516110.9
2014-Oct-11 10:32N 31°58' E 120°21'11040.6
2014-Oct-11 10:32N 31°58' E 120°21'488202.4
2014-Oct-11 10:32N 31°40' E 121°12'65921196.5
2014-Oct-11 10:30N 23°04' E 113°29'655102492.9
2014-Oct-11 10:29N 32°01' E 120°32'3446099.7
2014-Oct-11 10:26N 37°41' E 121°33'3803578.1
2014-Oct-11 10:20N 31°22' E 121°30'4593108.7
2014-Oct-11 10:11N 24°19' E 118°08'2631975.3
2014-Oct-11 10:03N 22°42' E 113°41'6601340.4
2014-Oct-11 09:33N 31°58' E 120°21'34669272.2
2014-Oct-11 09:33N 37°37' E 121°48'35617795.3
2014-Oct-11 09:32N 31°43' E 121°07'3597934.7
2014-Oct-11 09:29N 37°42' E 121°23'3472077.8
2014-Oct-11 09:19N 31°58' E 120°21'6479246.2
2014-Oct-11 09:15N 23°04' E 113°29'103124411.6
2014-Oct-11 09:12N 38°46' E 121°36'107561429.5
2014-Oct-11 09:11N 22°15' E 113°35'30268.0
2014-Oct-11 09:04N 22°44' E 113°33'10041941.4
2014-Oct-11 08:33N 39°05' E 117°46'210378654.1
2014-Oct-11 08:33N 37°38' E 121°51'791135666.2
2014-Oct-11 08:33N 24°39' E 119°05'444532778.3
2014-Oct-11 08:33N 31°58' E 120°21'93605.8
2014-Oct-11 08:33N 31°57' E 120°11'73059.5
2014-Oct-11 08:33N 31°58' E 120°19'34729066.7
2014-Oct-11 08:32N 37°42' E 121°11'96425709.6
2014-Oct-11 08:30N 23°04' E 113°29'504871.2
2014-Oct-11 08:29N 22°15' E 113°35'107214836.4
2014-Oct-11 08:25N 38°44' E 121°32'4423857.1
2014-Oct-11 08:18N 31°22' E 121°30'4583467.6
2014-Oct-11 08:10N 24°20' E 118°08'8201348.3
2014-Oct-11 07:33N 37°38' E 121°48'347138920.9
2014-Oct-11 07:33N 31°58' E 120°18'21283.5
2014-Oct-11 07:33N 31°58' E 120°21'71245.6
2014-Oct-11 07:33N 32°02' E 120°28'445266837.9
2014-Oct-11 07:33N 24°43' E 119°04'43735746.2
2014-Oct-11 07:32N 31°56' E 120°14'44594136.0
2014-Oct-11 07:32N 39°04' E 117°49'103323392.9
2014-Oct-11 07:29N 22°15' E 113°35'50264.4
2014-Oct-11 07:18N 23°04' E 113°29'18148.5
2014-Oct-11 07:10N 22°48' E 113°21'6651080.1
2014-Oct-11 06:33N 31°58' E 120°21'4401582699.8
2014-Oct-11 06:33N 24°45' E 118°55'442198824.1
2014-Oct-11 06:33N 32°00' E 120°24'189.8
2014-Oct-11 06:32N 32°01' E 120°25'17532.8
2014-Oct-11 06:31N 32°02' E 120°45'556544.3
2014-Oct-11 06:30N 31°21' E 121°27'69146038.9
2014-Oct-11 06:29N 22°15' E 113°35'103310273.5
2014-Oct-11 06:23N 39°04' E 117°51'4965755.5
2014-Oct-11 06:18N 31°22' E 121°30'6563236.3
2014-Oct-11 06:06N 23°04' E 113°29'6531210.3
2014-Oct-11 05:33N 32°02' E 120°27'444159761.1
2014-Oct-11 05:33N 24°47' E 118°46'439395190.8
2014-Oct-11 05:33N 31°58' E 120°21'34510611.4
2014-Oct-11 05:31N 37°35' E 121°52'38120490.7
2014-Oct-11 05:30N 31°14' E 121°29'68639835.9
2014-Oct-11 05:29N 22°15' E 113°35'6932496495.9
2014-Oct-11 05:29N 32°00' E 120°32'65484121.0
2014-Oct-11 05:29N 23°04' E 113°29'64572549.9
2014-Oct-11 05:28N 31°57' E 120°18'47211716.6
2014-Oct-11 05:26N 24°20' E 118°08'885102806.1
2014-Oct-11 05:25N 39°05' E 117°45'4987176.4
2014-Oct-11 05:21N 31°22' E 121°30'6582.0
2014-Oct-11 04:33N 32°02' E 120°31'6512315.4
2014-Oct-11 04:33N 31°22' E 121°30'68243857.9
2014-Oct-11 04:33N 32°02' E 120°26'5396.6
2014-Oct-11 04:32N 31°58' E 120°21'34528205.4
2014-Oct-11 04:31N 37°35' E 121°53'97320487.6
2014-Oct-11 04:29N 23°04' E 113°29'3143396.2
2014-Oct-11 04:23N 24°40' E 118°56'8671047.8
2014-Oct-11 03:33N 39°05' E 117°46'445320074.4
2014-Oct-11 03:33N 32°01' E 120°33'6311321.2
2014-Oct-11 03:33N 31°22' E 121°30'7111072.3
2014-Oct-11 03:33N 31°58' E 120°19'21983.4
2014-Oct-11 03:33N 31°58' E 120°21'343205997.9
2014-Oct-11 03:32N 37°34' E 121°50'101334717.5
2014-Oct-11 03:31N 22°10' E 113°53'2683179.2
2014-Oct-11 03:26N 24°20' E 118°08'2675427.6
2014-Oct-11 03:23N 23°05' E 113°28'11141.1
2014-Oct-11 03:18N 22°54' E 113°30'656883.3
2014-Oct-11 02:33N 31°58' E 120°21'34214490.4
2014-Oct-11 02:32N 37°33' E 121°49'97573104.9
2014-Oct-11 02:31N 23°02' E 113°22'542192.0
2014-Oct-11 02:30N 22°13' E 113°46'6874677.9
2014-Oct-11 02:21N 31°22' E 121°30'45813098.7
2014-Oct-11 02:19N 24°20' E 118°08'2801479.8
2014-Oct-11 02:07N 22°14' E 113°35'6871210.4
2014-Oct-11 01:33N 31°58' E 120°21'68458597.0
2014-Oct-11 01:33N 22°15' E 113°40'10131823656.0
2014-Oct-11 01:33N 37°34' E 121°52'81846002.6
2014-Oct-11 01:32N 24°20' E 118°08'26418974.9
2014-Oct-11 01:31N 22°55' E 113°35'66045693.4
2014-Oct-11 01:30N 31°22' E 121°30'772.7
2014-Oct-11 01:24N 31°28' E 121°27'81806.7
2014-Oct-11 01:18N 30°24' E 122°25'435575.4
2014-Oct-11 00:33N 24°14' E 118°07'43792617.7
2014-Oct-11 00:32N 30°25' E 122°27'14218952.8
2014-Oct-11 00:32N 31°58' E 120°21'7113462.2
2014-Oct-11 00:32N 31°23' E 121°34'3719140.8
2014-Oct-11 00:29N 37°34' E 121°51'101516457.2
2014-Oct-11 00:25N 22°14' E 113°35'7027018.2
2014-Oct-11 00:19N 32°01' E 120°48'30977.9
2014-Oct-11 00:18N 31°56' E 120°13'72647.5
2014-Oct-11 00:11N 31°21' E 121°27'377.4
2014-Oct-11 00:09N 31°22' E 121°30'14192.2
2014-Oct-11 00:05N 31°32' E 121°20'88169.6
2014-Oct-10 23:33N 30°25' E 122°27'14827972.8
2014-Oct-10 23:33N 31°56' E 120°11'48121397.2
2014-Oct-10 23:32N 24°08' E 118°01'27053987.3
2014-Oct-10 23:31N 22°14' E 113°35'69550055.6
2014-Oct-10 23:31N 31°28' E 121°27'6495.3
2014-Oct-10 23:30N 31°21' E 121°27'6724224.1
2014-Oct-10 23:30N 31°58' E 120°21'18175.6
2014-Oct-10 23:23N 32°00' E 120°42'561328.2
2014-Oct-10 23:21N 31°22' E 121°30'37417943.0
2014-Oct-10 23:20N 37°35' E 121°52'345448.1
2014-Oct-10 22:33N 31°58' E 120°21'1324031.2
2014-Oct-10 22:33N 31°60' E 120°37'34172106.3
2014-Oct-10 22:33N 37°35' E 121°52'37470797.3
2014-Oct-10 22:33N 31°21' E 121°27'477171580.0
2014-Oct-10 22:33N 24°03' E 117°57'451812516.5
2014-Oct-10 22:33N 30°25' E 122°27'442176904.2
2014-Oct-10 22:33N 37°43' E 121°12'37147663.5
2014-Oct-10 22:32N 31°32' E 121°20'6911833.3
2014-Oct-10 22:32N 31°57' E 120°05'812737.0
2014-Oct-10 22:30N 31°22' E 121°30'4222021.1
2014-Oct-10 22:17N 24°40' E 119°02'3337543.6
2014-Oct-10 22:15N 22°14' E 113°36'687999.4
2014-Oct-10 21:33N 31°58' E 120°21'107293.2
2014-Oct-10 21:33N 32°01' E 120°33'136163676.2
2014-Oct-10 21:33N 30°25' E 122°27'430258003.5
2014-Oct-10 21:33N 37°34' E 121°49'35732971.1
2014-Oct-10 21:33N 31°38' E 121°15'431110880.9
2014-Oct-10 21:32N 24°42' E 119°04'43920283.4
2014-Oct-10 21:31N 31°59' E 119°60'864406.3
2014-Oct-10 21:30N 31°22' E 121°30'360.8
2014-Oct-10 21:27N 31°21' E 121°27'6699830.2
2014-Oct-10 21:23N 22°28' E 113°54'22487.5
2014-Oct-10 21:21N 22°14' E 113°36'10151293.8
2014-Oct-10 20:34N 37°45' E 121°22'347178586.5
2014-Oct-10 20:33N 32°01' E 120°33'136163681.2
2014-Oct-10 20:33N 30°25' E 122°27'432310877.8
2014-Oct-10 20:33N 37°36' E 121°47'37461242.1
2014-Oct-10 20:33N 31°22' E 121°30'282241.8
2014-Oct-10 20:32N 31°42' E 121°08'69311387.9
2014-Oct-10 20:29N 22°17' E 113°38'24912122.7
2014-Oct-10 20:27N 23°54' E 117°48'48827425.0
2014-Oct-10 20:26N 31°21' E 121°27'7686.2
2014-Oct-10 19:33N 30°25' E 122°27'433778569.7
2014-Oct-10 19:33N 37°36' E 121°47'850510232.4
2014-Oct-10 19:33N 23°52' E 117°43'247147909.0
2014-Oct-10 19:33N 23°03' E 113°20'653106827.6
2014-Oct-10 19:33N 31°58' E 120°21'35128118.0
2014-Oct-10 19:32N 37°46' E 121°26'384461148.4
2014-Oct-10 19:32N 31°21' E 121°27'331096.8
2014-Oct-10 19:30N 31°46' E 121°02'347694.5
2014-Oct-10 19:30N 31°22' E 121°30'632530.3
2014-Oct-10 19:28N 32°01' E 120°33'348380.1
2014-Oct-10 18:33N 37°46' E 121°27'348313117.7
2014-Oct-10 18:33N 32°01' E 120°33'61109840.1
2014-Oct-10 18:33N 31°21' E 121°27'3751351275.2
2014-Oct-10 18:33N 37°36' E 121°47'37548226.7
2014-Oct-10 18:33N 31°22' E 121°30'7420602.6
2014-Oct-10 18:33N 30°25' E 122°27'14234119.0
2014-Oct-10 18:32N 31°58' E 120°21'322991.4
2014-Oct-10 18:32N 31°47' E 120°57'658147959.4
2014-Oct-10 18:32N 23°05' E 113°26'2366348.6
2014-Oct-10 18:29N 23°49' E 117°39'2612597.5
2014-Oct-10 18:23N 22°37' E 113°06'6812369.5
2014-Oct-10 18:06N 31°58' E 120°21'712.7
2014-Oct-10 17:33N 32°02' E 120°28'7751.3
2014-Oct-10 17:33N 31°58' E 120°21'34546046.8
2014-Oct-10 17:32N 37°36' E 121°47'43333139.6
2014-Oct-10 17:32N 30°25' E 122°27'767389.6
2014-Oct-10 17:31N 31°21' E 121°27'6562362684.4
2014-Oct-10 17:31N 23°00' E 113°31'97639481.1
2014-Oct-10 17:30N 37°46' E 121°26'973140137.6
2014-Oct-10 17:29N 23°04' E 113°30'6591978.7
2014-Oct-10 17:09N 31°53' E 120°53'66414657.5
2014-Oct-10 17:06N 22°55' E 113°35'9791786.5
2014-Oct-10 16:34N 37°46' E 121°26'350139979.7
2014-Oct-10 16:33N 31°60' E 120°22'1163.3
2014-Oct-10 16:33N 31°58' E 120°21'685308094.0
2014-Oct-10 16:33N 22°17' E 113°35'1014114041.4
2014-Oct-10 16:32N 37°37' E 121°47'43350279.6
2014-Oct-10 16:32N 30°25' E 122°27'65765749.4
2014-Oct-10 16:31N 22°55' E 113°30'5409.4
2014-Oct-10 16:30N 22°55' E 113°35'66087998.3
2014-Oct-10 16:30N 31°22' E 121°30'3258.7
2014-Oct-10 16:29N 31°21' E 121°27'68285.6
2014-Oct-10 16:15N 31°58' E 120°21'6473812.1
2014-Oct-10 16:05N 23°04' E 113°30'6471232.0
2014-Oct-10 15:33N 31°58' E 120°21'55770.0
2014-Oct-10 15:33N 31°56' E 120°16'34883477.5
2014-Oct-10 15:33N 37°36' E 121°47'186021.1
2014-Oct-10 15:33N 37°46' E 121°27'384276454.2
2014-Oct-10 15:33N 31°22' E 121°30'690124257.6
2014-Oct-10 15:33N 22°13' E 113°41'68146281.9
2014-Oct-10 15:32N 30°25' E 122°27'660158283.8
2014-Oct-10 15:31N 22°54' E 113°28'10243.8
2014-Oct-10 15:29N 23°04' E 113°30'65415494.3
2014-Oct-10 15:26N 31°21' E 121°27'567442.3
2014-Oct-10 15:26N 31°60' E 120°40'69292244.5
2014-Oct-10 15:26N 22°37' E 113°06'68110092.1
2014-Oct-10 15:22N 31°58' E 120°21'911.0
2014-Oct-10 14:34N 32°02' E 120°31'349418685.7
2014-Oct-10 14:33N 37°48' E 121°25'446178220.4
2014-Oct-10 14:33N 30°25' E 122°27'142170631.6
2014-Oct-10 14:33N 31°58' E 120°21'68758909.2
2014-Oct-10 14:33N 22°07' E 113°49'606163.8
2014-Oct-10 14:32N 23°04' E 113°30'97246041.0
2014-Oct-10 14:31N 37°36' E 121°47'3452308.8
2014-Oct-10 14:22N 31°58' E 120°21'704908.6
2014-Oct-10 14:21N 31°22' E 121°30'6686948.6
2014-Oct-10 14:15N 22°54' E 113°22'9851419.2
2014-Oct-10 13:33N 37°48' E 121°22'234348.8
2014-Oct-10 13:33N 37°35' E 121°46'344112679.2
2014-Oct-10 13:33N 31°58' E 120°21'64743955.8
2014-Oct-10 13:32N 23°04' E 113°30'65252137.1
2014-Oct-10 13:31N 30°25' E 122°27'1427220.2
2014-Oct-10 13:30N 31°58' E 120°21'6526706.5
2014-Oct-10 13:24N 22°55' E 113°35'66011534.3
2014-Oct-10 13:21N 31°22' E 121°30'312.7
2014-Oct-10 13:09N 31°21' E 121°27'67113.6
2014-Oct-10 12:33N 31°58' E 120°21'81066.7
2014-Oct-10 12:33N 31°56' E 120°12'7544954.7
2014-Oct-10 12:33N 31°22' E 121°30'745055.1
2014-Oct-10 12:32N 30°25' E 122°27'762056.4
2014-Oct-10 12:30N 31°21' E 121°27'66336148.6
2014-Oct-10 12:29N 22°54' E 113°28'98484379.9
2014-Oct-10 12:28N 37°48' E 121°27'9757119.8
2014-Oct-10 12:20N 23°04' E 113°29'1162.7
2014-Oct-10 12:09N 22°55' E 113°35'6521095.5
2014-Oct-10 11:33N 31°58' E 120°21'64728076.5
2014-Oct-10 11:32N 23°04' E 113°29'654181238.7
2014-Oct-10 11:32N 31°21' E 121°27'762941.1
2014-Oct-10 11:30N 30°25' E 122°27'7411163.4
2014-Oct-10 11:30N 31°22' E 121°30'6606947.8
2014-Oct-10 11:24N 22°55' E 113°35'642256943.5
2014-Oct-10 11:24N 31°58' E 120°01'3574694.7
2014-Oct-10 11:20N 37°48' E 121°31'354461.4
2014-Oct-10 10:33N 31°58' E 120°21'51276807.3
2014-Oct-10 10:33N 23°47' E 117°39'23410918.9
2014-Oct-10 10:32N 23°04' E 113°29'11410.4
2014-Oct-10 10:30N 22°55' E 113°35'660139779.4
2014-Oct-10 10:30N 31°22' E 121°30'7422319.5
2014-Oct-10 10:30N 30°25' E 122°27'4366132.6
2014-Oct-10 10:25N 37°41' E 122°14'9931130.8
2014-Oct-10 09:33N 22°55' E 113°35'99439340.3
2014-Oct-10 09:31N 37°42' E 122°16'98824205.2
2014-Oct-10 09:29N 23°04' E 113°29'652469425.6
2014-Oct-10 09:29N 30°25' E 122°27'4458620.3
2014-Oct-10 09:26N 37°47' E 121°22'86782102.6
2014-Oct-10 09:25N 23°43' E 117°35'517602.3
2014-Oct-10 08:33N 31°58' E 120°21'14263969.4
2014-Oct-10 08:33N 30°25' E 122°27'65553552.6
2014-Oct-10 08:33N 22°55' E 113°35'2223728.2
2014-Oct-10 08:29N 23°40' E 117°32'22554115.4
2014-Oct-10 08:29N 23°04' E 113°29'63812092.8
2014-Oct-10 08:26N 32°01' E 119°58'348418107.1
2014-Oct-10 08:26N 37°44' E 121°13'471585.5
2014-Oct-10 08:24N 37°42' E 122°12'3828242.5
2014-Oct-10 08:21N 31°22' E 121°30'69010444.2
2014-Oct-10 08:17N 22°38' E 113°06'4002301.4
2014-Oct-10 08:07N 22°33' E 120°19'5651021.4
2014-Oct-10 07:33N 31°58' E 120°21'697561.2
2014-Oct-10 07:33N 31°22' E 121°30'676486608.9
2014-Oct-10 07:33N 22°27' E 113°47'412396.7
2014-Oct-10 07:32N 23°04' E 113°29'373122197.3
2014-Oct-10 07:32N 22°31' E 120°12'567203941.6
2014-Oct-10 07:31N 31°58' E 120°05'15321181.2
2014-Oct-10 07:31N 30°25' E 122°27'68617893.8
2014-Oct-10 07:29N 22°38' E 113°06'69257915.5
2014-Oct-10 07:28N 31°49' E 120°55'66270136.7
2014-Oct-10 07:27N 23°02' E 113°24'99029227.1
2014-Oct-10 07:25N 37°43' E 122°08'360415.3
2014-Oct-10 06:33N 31°56' E 120°10'64071970.2
2014-Oct-10 06:33N 23°04' E 113°30'647388250.4
2014-Oct-10 06:33N 31°58' E 120°21'64740177.8
2014-Oct-10 06:32N 23°04' E 113°29'660339332.3
2014-Oct-10 06:32N 31°46' E 121°03'3603747.6
2014-Oct-10 06:26N 37°43' E 122°03'9913556.0
2014-Oct-10 06:09N 22°55' E 113°35'35688.5
2014-Oct-10 06:06N 22°20' E 113°41'6741234.7
2014-Oct-10 05:33N 31°56' E 120°13'5246931.3
2014-Oct-10 05:33N 31°41' E 121°12'693311893.0
2014-Oct-10 05:33N 22°17' E 113°40'68340291.2
2014-Oct-10 05:32N 31°58' E 120°21'647105926.4
2014-Oct-10 05:32N 23°04' E 113°29'98343673.9
2014-Oct-10 05:30N 37°44' E 121°56'101625754.4
2014-Oct-10 05:28N 22°38' E 113°06'29385.8
2014-Oct-10 05:24N 23°02' E 113°22'3711822.0
2014-Oct-10 05:11N 22°32' E 120°03'566897.8
2014-Oct-10 04:34N 31°58' E 120°21'41234.9
2014-Oct-10 04:33N 31°57' E 120°16'64592898.6
2014-Oct-10 04:33N 23°04' E 113°26'6100.6
2014-Oct-10 04:30N 23°01' E 113°31'66022222.0
2014-Oct-10 04:28N 31°34' E 121°20'69330079.3
2014-Oct-10 04:26N 22°38' E 113°06'386231384.7
2014-Oct-10 04:26N 22°33' E 120°03'9171042.0
2014-Oct-10 03:34N 37°46' E 121°49'  

Dump ship's entire track history